[[{"header":{"parameterUnit":"m.s-1","parameterCategory":1,"la1":31.0,"la2":29.5877,"lo1":-88.7671,"lo2":-86.6584,"dy":0.0162,"dx":0.0185,"nx":115,"ny":88,"refTime":"2024-10-06T18:00:00:Z","depth":0,"parameterNumber":2,"parameterNumberName":"U-component_of_WINDS"},"data":[0.0,0.0,0.0,0.0,0.0,0.0,0.0,0.0,0.0,0.0,0.0,0.0,0.0,0.0,0.0,0.0,0.0,0.0,0.0,0.0,0.0,0.0,0.0,0.0,0.0,0.0,0.0,0.0,0.0,0.0,0.0,0.0,0.0,0.0,0.0,0.0,0.0,0.0,0.0,0.0,0.0,0.0,0.0,0.0,0.0,0.0,0.0,0.0,0.0,0.0,0.0,0.0,0.0,0.0,0.0,0.0,0.0,0.0,0.0,0.0,0.0,0.0,0.0,0.0,0.0,0.0,0.0,0.0,0.0,0.0,0.0,0.0,0.0,0.0,0.0,0.0,0.0,0.0,0.0,0.0,0.0,0.0,0.0,0.0,0.0,0.0,0.0,0.0,0.0,0.0,0.0,0.0,0.0,0.0,0.0,0.0,0.0,0.0,0.0,0.0,0.0,0.0,0.0,0.0,0.0,0.0,0.0,0.0,0.0,0.0,0.0,0.0,0.0,0.0,0.0,0.0,0.0,0.0,0.0,0.0,0.0,0.0,0.0,0.0,0.0,0.0,0.0,0.0,0.0,0.0,0.0,0.0,0.0,0.0,0.0,0.0,0.0,0.0,0.0,0.0,0.0,0.0,0.0,0.0,0.0,0.0,0.0,0.0,0.0,0.0,0.0,0.0,0.0,0.0,0.0,0.0,0.0,0.0,0.0,0.0,0.0,0.0,0.0,0.0,0.0,0.0,0.0,0.0,0.0,0.0,0.0,0.0,0.0,0.0,0.0,0.0,0.0,0.0,0.0,0.0,0.0,0.0,0.0,0.0,0.0,0.0,0.0,0.0,0.0,0.0,0.0,0.0,0.0,0.0,0.0,0.0,0.0,0.0,0.0,0.0,0.0,0.0,0.0,0.0,0.0,0.0,0.0,0.0,0.0,0.0,0.0,0.0,0.0,0.0,0.0,0.0,0.0,0.0,0.0,0.0,0.0,0.0,0.0,0.0,0.0,0.0,0.0,0.0,0.0,0.0,0.0,0.0,0.0,0.0,0.0,0.0,0.0,0.0,0.0,0.0,0.0,0.0,0.0,0.0,0.0,0.0,0.0,0.0,0.0,0.0,0.0,0.0,0.0,0.0,0.0,0.0,0.0,0.0,0.0,0.0,0.0,0.0,0.0,0.0,0.0,0.0,0.0,0.0,0.0,0.0,0.0,0.0,0.0,0.0,0.0,0.0,0.0,0.0,0.0,0.0,0.0,0.0,0.0,0.0,0.0,0.0,0.0,0.0,0.0,0.0,0.0,0.0,0.0,0.0,0.0,0.0,0.0,0.0,0.0,0.0,0.0,0.0,0.0,0.0,0.0,0.0,0.0,0.0,0.0,0.0,0.0,0.0,0.0,0.0,0.0,0.0,0.0,0.0,0.0,0.0,0.0,0.0,0.0,0.0,0.0,0.0,0.0,0.0,0.0,0.0,0.0,0.0,0.0,0.0,0.0,0.0,0.0,0.0,0.0,0.0,0.0,0.0,0.0,0.0,0.0,0.0,0.0,0.0,0.0,0.0,0.0,0.0,0.0,0.0,0.0,0.0,0.0,0.0,0.0,0.0,0.0,0.0,0.0,0.0,0.0,0.0,0.0,0.0,0.0,0.0,0.0,0.0,0.0,0.0,0.0,0.0,0.0,0.0,0.0,0.0,0.0,0.0,0.0,0.0,0.0,0.0,0.0,0.0,0.0,0.0,0.0,0.0,0.0,0.0,0.0,0.0,0.0,0.0,0.0,0.0,0.0,0.0,0.0,0.0,0.0,0.0,0.0,0.0,0.0,0.0,0.0,0.0,0.0,0.0,0.0,0.0,0.0,0.0,0.0,0.0,0.0,0.0,0.0,0.0,0.0,0.0,0.0,0.0,0.0,0.0,0.0,0.0,0.0,0.0,0.0,0.0,0.0,0.0,0.0,0.0,0.0,0.0,0.0,0.0,0.0,0.0,0.0,0.0,0.0,0.0,0.0,0.0,0.0,0.0,0.0,0.0,0.0,0.0,0.0,0.0,0.0,0.0,0.0,0.0,0.0,0.0,0.0,0.0,0.0,0.0,0.0,0.0,0.0,0.0,0.0,0.0,0.0,0.0,0.0,0.0,0.0,0.0,0.0,0.0,0.0,0.0,0.0,0.0,0.0,0.0,0.0,0.0,0.0,0.0,0.0,0.0,0.0,0.0,0.0,0.0,0.0,0.0,0.0,0.0,0.0,0.0,0.0,0.0,0.0,0.0,0.0,0.0,0.0,0.0,0.0,0.0,0.0,0.0,0.0,0.0,0.0,0.0,0.0,0.0,0.0,0.0,0.0,0.0,0.0,0.0,0.0,0.0,0.0,0.0,0.0,0.0,0.0,0.0,0.0,0.0,0.0,0.0,0.0,0.0,0.0,0.0,0.0,0.0,0.0,0.0,0.0,0.0,0.0,0.0,0.0,0.0,0.0,0.0,0.0,0.0,0.0,0.0,0.0,0.0,0.0,0.0,0.0,0.0,0.0,0.0,0.0,0.0,0.0,0.0,0.0,0.0,0.0,0.0,0.0,0.0,0.0,0.0,0.0,0.0,0.0,0.0,0.0,0.0,0.0,0.0,0.0,0.0,0.0,0.0,0.0,0.0,0.0,0.0,0.0,0.0,0.0,0.0,0.0,0.0,0.0,0.0,0.0,0.0,0.0,0.0,0.0,0.0,0.0,0.0,0.0,0.0,0.0,0.0,0.0,0.0,0.0,0.0,0.0,0.0,0.0,0.0,0.0,0.0,0.0,0.0,0.0,0.0,0.0,0.0,0.0,0.0,0.0,0.0,0.0,0.0,0.0,0.0,0.0,0.0,0.0,0.0,0.0,0.0,0.0,0.0,0.0,0.0,0.0,0.0,0.0,0.0,0.0,0.0,0.0,0.0,0.0,0.0,0.0,0.0,0.0,0.0,0.0,0.0,0.0,0.0,0.0,0.0,0.0,0.0,0.0,0.0,0.0,0.0,0.0,0.0,0.0,0.0,0.0,0.0,0.0,0.0,0.0,0.0,0.0,0.0,0.0,0.0,0.0,0.0,0.0,0.0,0.0,0.0,0.0,0.0,0.0,0.0,0.0,0.0,0.0,0.0,0.0,0.0,0.0,0.0,0.0,0.0,0.0,0.0,0.0,0.0,0.0,0.0,0.0,0.0,0.0,0.0,0.0,0.0,0.0,0.0,0.0,0.0,0.0,0.0,0.0,0.0,0.0,0.0,0.0,0.0,0.0,0.0,0.0,0.0,0.0,0.0,0.0,0.0,0.0,0.0,0.0,0.0,0.0,0.0,0.0,0.0,0.0,0.0,0.0,0.0,0.0,0.0,0.0,0.0,0.0,0.0,0.0,0.0,0.0,0.0,0.0,0.0,0.0,0.0,0.0,0.0,0.0,0.0,0.0,0.0,0.0,0.0,0.0,0.0,0.0,0.0,0.0,0.0,0.0,0.0,0.0,0.0,0.0,0.0,0.0,0.0,0.0,0.0,0.0,0.0,0.0,0.0,0.0,0.0,0.0,0.0,0.0,0.0,0.0,0.0,0.0,0.0,0.0,0.0,0.0,0.0,0.0,0.0,0.0,0.0,0.0,0.0,0.0,0.0,0.0,0.0,0.0,0.0,0.0,0.0,0.0,0.0,0.0,0.0,0.0,0.0,0.0,0.0,0.0,0.0,0.0,0.0,0.0,0.0,0.0,0.0,0.0,0.0,0.0,0.0,0.0,0.0,0.0,0.0,0.0,0.0,0.0,0.0,0.0,0.0,0.0,0.0,0.0,0.0,0.0,0.0,0.0,0.0,0.0,0.0,0.0,0.0,0.0,0.0,0.0,0.0,0.0,0.0,0.0,0.0,0.0,0.0,0.0,0.0,0.0,0.0,0.0,0.0,0.0,0.0,0.0,0.0,0.0,0.0,0.0,0.0,0.0,0.0,0.0,0.0,0.0,0.0,0.0,0.0,0.0,0.0,0.0,0.0,0.0,0.0,0.0,0.0,0.0,0.0,0.0,0.0,0.0,0.0,0.0,0.0,0.0,0.0,0.0,0.0,0.0,0.0,0.0,0.0,0.0,0.0,0.0,0.0,0.0,0.0,0.0,0.0,0.0,0.0,0.0,0.0,0.0,0.0,0.0,0.0,0.0,0.0,0.0,0.0,0.0,0.0,0.0,0.0,0.0,0.0,0.0,0.0,0.0,0.0,0.0,0.0,0.0,0.0,0.0,0.0,0.0,0.0,0.0,0.0,0.0,0.0,2.9754,0.0,0.0,0.0,0.0,0.0,0.0,0.0,0.0,0.0,0.0,0.0,0.0,0.0,0.0,0.0,0.0,0.0,0.0,0.0,0.0,0.0,0.0,0.0,0.0,0.0,0.0,0.0,0.0,0.0,0.0,0.0,0.0,0.0,0.0,0.0,0.0,0.0,0.0,0.0,0.0,0.0,0.0,0.0,0.0,0.0,0.0,0.0,0.0,0.0,0.0,0.0,0.0,0.0,0.0,0.0,0.0,0.0,0.0,0.0,0.0,0.0,0.0,0.0,0.0,0.0,0.0,0.0,0.0,0.0,0.0,0.0,0.0,0.0,0.0,0.0,0.0,0.0,0.0,0.0,0.0,0.0,0.0,0.0,0.0,0.0,0.0,0.0,0.0,0.0,0.0,0.0,0.0,0.0,0.0,0.0,0.0,0.0,0.0,0.0,0.0,0.0,0.0,0.0,0.0,0.0,0.0,0.0,0.0,0.0,0.0,2.9779,2.9779,2.9779,2.9654,2.9283,0.0,0.0,0.0,0.0,0.0,0.0,0.0,0.0,0.0,0.0,0.0,0.0,0.0,0.0,0.0,0.0,0.0,0.0,0.0,0.0,0.0,0.0,0.0,0.0,0.0,0.0,0.0,0.0,0.0,0.0,0.0,0.0,0.0,0.0,0.0,0.0,0.0,0.0,0.0,0.0,0.0,0.0,0.0,0.0,0.0,0.0,0.0,0.0,0.0,0.0,0.0,0.0,0.0,0.0,0.0,0.0,0.0,0.0,0.0,0.0,0.0,0.0,0.0,0.0,0.0,0.0,0.0,0.0,0.0,0.0,0.0,0.0,0.0,0.0,0.0,0.0,0.0,0.0,0.0,0.0,0.0,0.0,0.0,0.0,0.0,0.0,0.0,0.0,0.0,0.0,0.0,0.0,0.0,0.0,0.0,0.0,0.0,0.0,0.0,0.0,0.0,0.0,0.0,0.0,0.0,0.0,0.0,0.0,0.0,0.0,0.0,0.0,3.0206,2.9829,2.9132,0.0,0.0,0.0,0.0,0.0,0.0,0.0,0.0,0.0,0.0,0.0,0.0,0.0,0.0,0.0,0.0,0.0,0.0,0.0,0.0,0.0,0.0,0.0,0.0,0.0,0.0,0.0,0.0,0.0,0.0,0.0,0.0,0.0,0.0,0.0,0.0,0.0,0.0,0.0,0.0,0.0,0.0,0.0,0.0,0.0,0.0,0.0,0.0,0.0,0.0,0.0,0.0,0.0,0.0,0.0,0.0,0.0,0.0,0.0,0.0,0.0,0.0,0.0,0.0,0.0,0.0,0.0,0.0,0.0,0.0,0.0,0.0,0.0,0.0,0.0,0.0,0.0,0.0,0.0,0.0,0.0,0.0,0.0,0.0,0.0,0.0,0.0,0.0,0.0,0.0,0.0,0.0,0.0,0.0,0.0,0.0,0.0,0.0,0.0,0.0,0.0,0.0,0.0,0.0,0.0,0.0,0.0,0.0,0.0,0.0,3.0482,3.1938,3.1486,0.0,2.9829,0.0,0.0,0.0,0.0,0.0,0.0,0.0,0.0,0.0,0.0,0.0,0.0,0.0,0.0,0.0,0.0,0.0,0.0,0.0,0.0,0.0,0.0,0.0,0.0,0.0,0.0,0.0,0.0,0.0,0.0,0.0,0.0,0.0,0.0,0.0,0.0,0.0,0.0,0.0,0.0,0.0,0.0,0.0,0.0,0.0,0.0,0.0,0.0,0.0,0.0,0.0,0.0,0.0,0.0,0.0,0.0,0.0,0.0,0.0,0.0,0.0,0.0,0.0,0.0,0.0,0.0,0.0,0.0,0.0,0.0,0.0,0.0,0.0,0.0,0.0,0.0,0.0,0.0,0.0,0.0,0.0,0.0,0.0,0.0,0.0,0.0,0.0,0.0,0.0,0.0,0.0,0.0,0.0,0.0,0.0,0.0,0.0,0.0,0.0,0.0,0.0,0.0,0.0,0.0,0.0,0.0,0.0,0.0,0.0,0.0,0.0,3.1712,3.0884,3.0231,0.0,0.0,0.0,0.0,0.0,0.0,0.0,0.0,0.0,0.0,0.0,0.0,0.0,0.0,0.0,0.0,0.0,0.0,0.0,0.0,0.0,0.0,0.0,0.0,0.0,0.0,0.0,0.0,0.0,0.0,0.0,0.0,0.0,0.0,0.0,0.0,0.0,0.0,0.0,0.0,0.0,0.0,0.0,0.0,0.0,0.0,0.0,0.0,0.0,0.0,0.0,0.0,0.0,0.0,0.0,0.0,0.0,0.0,0.0,0.0,0.0,0.0,0.0,0.0,0.0,0.0,0.0,0.0,0.0,0.0,0.0,0.0,0.0,0.0,0.0,0.0,0.0,0.0,0.0,0.0,0.0,0.0,0.0,0.0,0.0,0.0,0.0,0.0,0.0,0.0,0.0,0.0,0.0,0.0,0.0,0.0,0.0,0.0,0.0,0.0,0.0,0.0,0.0,0.0,0.0,0.0,0.0,0.0,0.0,0.0,3.1256,0.0,3.1834,3.126,3.0507,2.9578,0.0,0.0,0.0,0.0,0.0,0.0,0.0,0.0,0.0,0.0,0.0,0.0,0.0,0.0,0.0,0.0,0.0,0.0,0.0,0.0,0.0,0.0,0.0,0.0,0.0,0.0,0.0,0.0,0.0,0.0,0.0,0.0,0.0,0.0,0.0,0.0,0.0,0.0,0.0,0.0,0.0,0.0,0.0,0.0,0.0,0.0,0.0,0.0,0.0,0.0,0.0,0.0,0.0,0.0,0.0,0.0,0.0,0.0,0.0,0.0,0.0,0.0,0.0,0.0,0.0,0.0,0.0,0.0,0.0,0.0,0.0,0.0,0.0,0.0,0.0,0.0,0.0,0.0,0.0,0.0,0.0,0.0,0.0,0.0,0.0,0.0,0.0,0.0,0.0,0.0,0.0,0.0,0.0,0.0,0.0,0.0,0.0,0.0,0.0,0.0,0.0,0.0,0.0,0.0,0.0,0.0,0.0,0.0,0.0,3.2164,3.1934,3.2989,3.3445,3.2215,0.0,0.0,0.0,0.0,0.0,0.0,0.0,0.0,0.0,0.0,0.0,0.0,0.0,0.0,0.0,0.0,0.0,0.0,0.0,0.0,0.0,0.0,0.0,0.0,0.0,0.0,0.0,0.0,0.0,0.0,0.0,0.0,0.0,0.0,0.0,0.0,0.0,0.0,0.0,0.0,0.0,0.0,0.0,0.0,0.0,0.0,0.0,0.0,0.0,0.0,0.0,0.0,0.0,0.0,0.0,0.0,0.0,0.0,0.0,0.0,0.0,0.0,0.0,0.0,0.0,0.0,0.0,0.0,0.0,0.0,0.0,0.0,0.0,0.0,0.0,0.0,0.0,0.0,0.0,0.0,0.0,0.0,0.0,0.0,0.0,0.0,0.0,0.0,0.0,0.0,0.0,0.0,0.0,0.0,0.0,0.0,0.0,0.0,0.0,0.0,0.0,0.0,0.0,0.0,0.0,0.0,0.0,0.0,0.0,3.0613,3.1135,3.2265,3.3972,3.229,3.0859,0.0,0.0,0.0,0.0,0.0,0.0,0.0,0.0,0.0,0.0,0.0,0.0,0.0,0.0,0.0,0.0,0.0,0.0,0.0,0.0,0.0,0.0,0.0,0.0,0.0,0.0,0.0,0.0,0.0,0.0,0.0,0.0,0.0,0.0,0.0,0.0,0.0,0.0,0.0,0.0,0.0,0.0,0.0,0.0,0.0,0.0,0.0,0.0,0.0,0.0,0.0,0.0,0.0,0.0,0.0,0.0,0.0,0.0,0.0,0.0,0.0,0.0,0.0,0.0,0.0,0.0,0.0,0.0,0.0,0.0,0.0,0.0,0.0,0.0,0.0,0.0,0.0,0.0,0.0,0.0,0.0,0.0,0.0,0.0,0.0,0.0,0.0,0.0,0.0,0.0,0.0,0.0,0.0,0.0,0.0,0.0,0.0,0.0,0.0,0.0,0.0,0.0,0.0,0.0,0.0,0.0,0.0,0.0,0.0,3.0203,0.0,3.3308,0.0,3.1746,2.998,0.0,0.0,0.0,0.0,0.0,0.0,0.0,0.0,0.0,0.0,0.0,0.0,0.0,0.0,0.0,0.0,0.0,0.0,0.0,0.0,0.0,0.0,0.0,0.0,0.0,0.0,0.0,0.0,0.0,0.0,0.0,0.0,0.0,0.0,0.0,0.0,0.0,0.0,0.0,0.0,0.0,0.0,0.0,0.0,0.0,0.0,0.0,0.0,0.0,0.0,0.0,0.0,0.0,0.0,0.0,0.0,0.0,0.0,0.0,0.0,0.0,0.0,0.0,0.0,0.0,0.0,0.0,0.0,0.0,0.0,0.0,0.0,0.0,0.0,0.0,0.0,0.0,0.0,0.0,0.0,0.0,0.0,0.0,0.0,0.0,0.0,0.0,0.0,0.0,0.0,0.0,0.0,0.0,0.0,0.0,0.0,0.0,0.0,0.0,0.0,0.0,0.0,0.0,0.0,0.0,0.0,0.0,0.0,2.9189,3.2777,3.4486,3.4773,3.3812,3.2138,2.9849,0.0,0.0,0.0,0.0,0.0,0.0,0.0,0.0,0.0,0.0,0.0,0.0,0.0,0.0,0.0,0.0,0.0,0.0,0.0,0.0,0.0,0.0,0.0,0.0,0.0,0.0,0.0,0.0,0.0,0.0,0.0,0.0,0.0,0.0,0.0,0.0,0.0,0.0,0.0,0.0,0.0,0.0,0.0,0.0,0.0,0.0,0.0,0.0,0.0,0.0,0.0,0.0,0.0,0.0,0.0,0.0,0.0,0.0,0.0,0.0,0.0,0.0,0.0,0.0,0.0,0.0,0.0,0.0,0.0,0.0,0.0,0.0,0.0,0.0,0.0,0.0,0.0,0.0,0.0,0.0,0.0,0.0,0.0,0.0,0.0,0.0,0.0,0.0,0.0,0.0,0.0,0.0,0.0,0.0,0.0,0.0,0.0,0.0,0.0,0.0,0.0,0.0,0.0,0.0,0.0,0.0,0.0,0.0,0.0,3.1066,3.2145,3.3083,3.3734,3.114,2.9559,0.0,0.0,0.0,0.0,0.0,0.0,0.0,0.0,0.0,0.0,0.0,0.0,0.0,0.0,0.0,0.0,0.0,0.0,0.0,0.0,0.0,0.0,0.0,0.0,0.0,0.0,0.0,0.0,0.0,0.0,0.0,0.0,0.0,0.0,0.0,0.0,0.0,0.0,0.0,0.0,0.0,0.0,0.0,0.0,0.0,0.0,0.0,0.0,0.0,0.0,0.0,0.0,0.0,0.0,0.0,0.0,0.0,0.0,0.0,0.0,0.0,0.0,0.0,0.0,0.0,0.0,0.0,0.0,0.0,0.0,0.0,0.0,0.0,0.0,0.0,0.0,0.0,0.0,0.0,0.0,0.0,0.0,0.0,0.0,0.0,0.0,0.0,0.0,0.0,0.0,0.0,0.0,0.0,0.0,0.0,0.0,0.0,0.0,0.0,0.0,0.0,0.0,0.0,0.0,0.0,0.0,0.0,0.0,0.0,3.1741,3.2722,3.3572,3.4195,3.1357,2.976,2.9628,0.0,0.0,0.0,0.0,0.0,0.0,0.0,0.0,0.0,0.0,0.0,0.0,0.0,0.0,0.0,0.0,0.0,0.0,0.0,0.0,0.0,0.0,0.0,0.0,0.0,0.0,0.0,0.0,0.0,0.0,0.0,0.0,0.0,0.0,0.0,0.0,0.0,0.0,0.0,0.0,0.0,0.0,0.0,0.0,0.0,0.0,0.0,0.0,0.0,0.0,0.0,0.0,0.0,0.0,0.0,0.0,0.0,0.0,0.0,0.0,0.0,0.0,0.0,0.0,0.0,0.0,0.0,0.0,0.0,0.0,0.0,0.0,0.0,0.0,0.0,0.0,0.0,0.0,0.0,0.0,0.0,0.0,0.0,0.0,0.0,0.0,0.0,0.0,0.0,0.0,0.0,0.0,0.0,0.0,0.0,0.0,0.0,0.0,0.0,0.0,0.0,0.0,0.0,0.0,0.0,0.0,0.0,0.0,3.4197,3.5669,3.5827,3.4684,3.2521,3.0427,0.0,0.0,0.0,0.0,0.0,0.0,0.0,0.0,0.0,0.0,0.0,0.0,0.0,0.0,0.0,0.0,0.0,0.0,0.0,0.0,0.0,0.0,0.0,0.0,0.0,0.0,0.0,0.0,0.0,0.0,0.0,0.0,0.0,0.0,0.0,0.0,0.0,0.0,0.0,0.0,0.0,0.0,0.0,0.0,0.0,0.0,0.0,0.0,0.0,0.0,0.0,0.0,0.0,0.0,0.0,0.0,0.0,0.0,0.0,0.0,0.0,0.0,0.0,0.0,0.0,0.0,0.0,0.0,0.0,0.0,0.0,0.0,0.0,0.0,0.0,0.0,0.0,0.0,0.0,0.0,0.0,0.0,0.0,0.0,0.0,0.0,0.0,0.0,0.0,0.0,0.0,0.0,0.0,0.0,0.0,0.0,0.0,0.0,0.0,0.0,0.0,0.0,0.0,0.0,0.0,0.0,0.0,0.0,0.0,3.5405,3.5644,3.5429,3.4692,3.2538,3.0934,0.0,0.0,0.0,0.0,0.0,0.0,0.0,0.0,0.0,0.0,0.0,0.0,0.0,0.0,0.0,0.0,0.0,0.0,0.0,0.0,0.0,0.0,0.0,0.0,0.0,0.0,0.0,0.0,0.0,0.0,0.0,0.0,0.0,0.0,0.0,0.0,0.0,0.0,0.0,0.0,0.0,0.0,0.0,0.0,0.0,0.0,0.0,0.0,0.0,0.0,0.0,0.0,0.0,0.0,0.0,0.0,0.0,0.0,0.0,0.0,0.0,0.0,0.0,0.0,0.0,0.0,0.0,0.0,0.0,0.0,0.0,0.0,0.0,0.0,0.0,0.0,0.0,0.0,0.0,0.0,0.0,0.0,0.0,0.0,0.0,0.0,0.0,0.0,0.0,0.0,0.0,0.0,0.0,0.0,0.0,0.0,0.0,0.0,0.0,0.0,0.0,0.0,0.0,0.0,0.0,0.0,0.0,0.0,3.4838,3.5634,3.5788,3.5481,3.4728,3.347,3.2068,0.0,0.0,0.0,0.0,0.0,0.0,0.0,0.0,0.0,0.0,0.0,0.0,0.0,0.0,0.0,0.0,0.0,0.0,0.0,0.0,0.0,0.0,0.0,0.0,0.0,0.0,0.0,0.0,0.0,0.0,0.0,0.0,0.0,0.0,0.0,0.0,0.0,0.0,0.0,0.0,0.0,0.0,0.0,0.0,0.0,0.0,0.0,0.0,0.0,0.0,0.0,0.0,0.0,0.0,0.0,0.0,0.0,0.0,0.0,0.0,0.0,0.0,0.0,0.0,0.0,0.0,0.0,0.0,0.0,0.0,0.0,0.0,0.0,0.0,0.0,0.0,0.0,0.0,0.0,0.0,0.0,0.0,0.0,0.0,0.0,0.0,0.0,0.0,0.0,0.0,0.0,0.0,0.0,0.0,0.0,0.0,0.0,0.0,0.0,0.0,0.0,0.0,0.0,0.0,0.0,0.0,0.0,0.0,3.517,3.5335,3.5978,3.578,3.4753,3.4653,3.3348,0.0,0.0,0.0,0.0,0.0,0.0,0.0,0.0,0.0,0.0,0.0,0.0,0.0,0.0,0.0,0.0,0.0,0.0,0.0,0.0,0.0,0.0,0.0,0.0,0.0,0.0,0.0,0.0,0.0,0.0,0.0,0.0,0.0,0.0,0.0,0.0,0.0,0.0,0.0,0.0,0.0,0.0,0.0,0.0,0.0,0.0,0.0,0.0,0.0,0.0,0.0,0.0,0.0,0.0,0.0,0.0,0.0,0.0,0.0,0.0,0.0,0.0,0.0,0.0,0.0,0.0,0.0,0.0,0.0,0.0,0.0,0.0,0.0,0.0,0.0,0.0,0.0,0.0,0.0,0.0,0.0,0.0,0.0,0.0,0.0,0.0,0.0,0.0,0.0,0.0,0.0,0.0,0.0,0.0,0.0,0.0,0.0,0.0,0.0,0.0,0.0,0.0,0.0,0.0,0.0,0.0,0.0,0.0,3.6082,3.5314,3.5551,3.538,3.4703,3.4299,3.2993,0.0,0.0,0.0,0.0,0.0,0.0,0.0,0.0,0.0,0.0,0.0,0.0,0.0,0.0,0.0,0.0,0.0,0.0,0.0,0.0,0.0,0.0,0.0,0.0,0.0,0.0,0.0,0.0,0.0,0.0,0.0,0.0,0.0,0.0,0.0,0.0,0.0,0.0,0.0,0.0,0.0,0.0,0.0,0.0,0.0,0.0,0.0,0.0,2.5323,0.0,0.0,0.0,0.0,0.0,0.0,0.0,0.0,0.0,0.0,0.0,0.0,0.0,0.0,0.0,0.0,0.0,0.0,0.0,0.0,0.0,0.0,0.0,0.0,0.0,0.0,0.0,0.0,0.0,0.0,0.0,0.0,0.0,0.0,0.0,0.0,0.0,0.0,0.0,0.0,0.0,0.0,0.0,0.0,0.0,0.0,0.0,0.0,0.0,0.0,0.0,0.0,0.0,0.0,0.0,0.0,0.0,0.0,0.0,3.6279,3.5087,3.5352,3.4854,3.3537,3.3195,3.2043,0.0,0.0,0.0,0.0,0.0,0.0,0.0,0.0,0.0,0.0,0.0,0.0,0.0,0.0,0.0,0.0,0.0,0.0,0.0,0.0,0.0,0.0,0.0,0.0,0.0,0.0,0.0,0.0,0.0,0.0,0.0,0.0,0.0,0.0,0.0,0.0,0.0,0.0,0.0,0.0,0.0,0.0,0.0,0.0,0.0,0.0,0.0,0.0,0.0,0.0,0.0,0.0,0.0,0.0,0.0,0.0,0.0,0.0,0.0,0.0,0.0,0.0,0.0,0.0,0.0,0.0,0.0,0.0,0.0,0.0,0.0,0.0,0.0,0.0,0.0,0.0,0.0,0.0,0.0,0.0,0.0,0.0,0.0,0.0,0.0,0.0,0.0,0.0,0.0,0.0,0.0,0.0,0.0,0.0,0.0,0.0,0.0,0.0,0.0,0.0,0.0,0.0,0.0,0.0,0.0,0.0,0.0,3.5388,3.588,3.4768,3.4871,3.3975,3.1954,3.1703,3.0575,2.846,0.0,0.0,0.0,0.0,0.0,0.0,0.0,0.0,0.0,0.0,0.0,0.0,0.0,0.0,0.0,0.0,0.0,0.0,0.0,0.0,0.0,0.0,0.0,0.0,0.0,0.0,0.0,0.0,0.0,0.0,0.0,0.0,0.0,0.0,0.0,0.0,0.0,0.0,2.4547,2.6152,0.0,0.0,0.0,0.0,0.0,0.0,0.0,0.0,2.6627,0.0,0.0,0.0,0.0,0.0,0.0,0.0,0.0,0.0,0.0,0.0,0.0,0.0,0.0,0.0,0.0,0.0,0.0,0.0,0.0,0.0,0.0,0.0,0.0,0.0,0.0,0.0,0.0,0.0,0.0,0.0,0.0,0.0,0.0,0.0,0.0,0.0,0.0,0.0,0.0,0.0,0.0,0.0,0.0,0.0,0.0,0.0,0.0,0.0,0.0,0.0,0.0,0.0,0.0,0.0,0.0,3.4372,3.4339,3.4439,3.4675,3.3355,3.2086,3.088,2.9864,2.8006,2.5302,0.0,0.0,0.0,0.0,0.0,0.0,0.0,0.0,0.0,0.0,0.0,0.0,0.0,0.0,0.0,0.0,0.0,0.0,0.0,0.0,0.0,0.0,0.0,0.0,0.0,0.0,0.0,0.0,0.0,0.0,0.0,0.0,0.0,0.0,0.0,0.0,0.0,0.0,0.0,2.7252,2.8242,0.0,0.0,0.0,0.0,0.0,0.0,0.0,0.0,2.6953,0.0,0.0,0.0,0.0,0.0,0.0,0.0,0.0,0.0,0.0,0.0,0.0,0.0,0.0,0.0,0.0,0.0,0.0,0.0,0.0,0.0,0.0,0.0,0.0,0.0,0.0,0.0,0.0,0.0,0.0,0.0,0.0,0.0,0.0,0.0,0.0,0.0,0.0,0.0,0.0,0.0,0.0,0.0,0.0,0.0,0.0,0.0,0.0,0.0,0.0,0.0,0.0,0.0,0.0,0.0,3.314,3.4187,3.4229,3.3369,3.2297,3.0755,2.8723,2.7481,2.5637,0.0,0.0,0.0,0.0,0.0,0.0,0.0,0.0,0.0,0.0,0.0,0.0,0.0,0.0,0.0,0.0,0.0,0.0,0.0,0.0,0.0,0.0,0.0,0.0,0.0,0.0,0.0,0.0,0.0,0.0,0.0,0.0,0.0,0.0,0.0,0.0,0.0,0.0,0.0,0.0,2.7812,2.8848,2.9492,0.0,0.0,0.0,0.0,0.0,0.0,2.7194,2.7213,0.0,0.0,0.0,0.0,0.0,0.0,0.0,0.0,0.0,0.0,0.0,0.0,0.0,0.0,0.0,0.0,0.0,0.0,0.0,0.0,0.0,0.0,0.0,0.0,0.0,0.0,0.0,0.0,0.0,0.0,0.0,0.0,0.0,0.0,0.0,0.0,0.0,0.0,0.0,0.0,0.0,0.0,0.0,0.0,0.0,0.0,0.0,0.0,0.0,0.0,0.0,0.0,0.0,0.0,0.0,3.1629,3.3379,3.3597,3.212,3.1055,2.9285,2.6853,2.5454,2.382,0.0,0.0,0.0,0.0,0.0,0.0,0.0,0.0,0.0,0.0,0.0,0.0,0.0,0.0,0.0,0.0,0.0,0.0,0.0,0.0,0.0,0.0,0.0,0.0,0.0,0.0,0.0,0.0,0.0,0.0,0.0,0.0,0.0,0.0,0.0,0.0,0.0,0.0,0.0,0.0,0.0,2.9889,3.0376,2.9639,0.0,0.0,0.0,0.0,2.7552,2.7812,0.0,0.0,0.0,0.0,0.0,0.0,0.0,0.0,0.0,0.0,0.0,0.0,0.0,0.0,0.0,0.0,0.0,0.0,0.0,0.0,0.0,0.0,0.0,0.0,0.0,0.0,0.0,0.0,0.0,0.0,0.0,0.0,0.0,0.0,0.0,0.0,0.0,0.0,0.0,0.0,0.0,0.0,0.0,0.0,0.0,0.0,0.0,0.0,0.0,0.0,0.0,0.0,0.0,0.0,0.0,0.0,3.0626,3.044,3.0865,3.189,2.9034,2.7081,2.6367,2.482,2.3101,0.0,0.0,0.0,0.0,0.0,0.0,0.0,0.0,0.0,0.0,0.0,0.0,0.0,0.0,0.0,0.0,0.0,0.0,0.0,0.0,0.0,0.0,0.0,0.0,0.0,0.0,0.0,0.0,0.0,0.0,0.0,0.0,0.0,0.0,0.0,0.0,0.0,0.0,0.0,0.0,0.0,3.2154,3.1368,3.0261,2.9481,0.0,0.0,2.8887,2.9246,2.9344,0.0,0.0,0.0,0.0,0.0,0.0,0.0,0.0,0.0,0.0,0.0,0.0,0.0,0.0,0.0,0.0,0.0,0.0,0.0,0.0,0.0,0.0,0.0,0.0,0.0,0.0,0.0,0.0,0.0,0.0,0.0,0.0,0.0,0.0,0.0,0.0,0.0,0.0,0.0,0.0,0.0,0.0,0.0,0.0,0.0,0.0,0.0,0.0,0.0,0.0,0.0,0.0,0.0,0.0,0.0,2.794,2.9067,3.0013,3.0204,2.9525,2.7802,2.6378,2.5242,2.3804,2.2225,0.0,0.0,0.0,0.0,0.0,0.0,0.0,0.0,0.0,0.0,0.0,0.0,0.0,0.0,0.0,0.0,0.0,0.0,0.0,0.0,0.0,0.0,0.0,0.0,0.0,0.0,0.0,0.0,0.0,0.0,0.0,0.0,0.0,0.0,0.0,0.0,0.0,0.0,0.0,0.0,0.0,0.0,3.2636,3.1546,0.0,0.0,0.0,3.0,2.9941,0.0,0.0,0.0,0.0,0.0,0.0,0.0,0.0,0.0,0.0,0.0,0.0,0.0,0.0,0.0,0.0,0.0,0.0,0.0,0.0,0.0,0.0,0.0,0.0,0.0,0.0,0.0,0.0,0.0,0.0,0.0,0.0,0.0,0.0,0.0,0.0,0.0,0.0,0.0,0.0,0.0,0.0,0.0,0.0,0.0,0.0,0.0,0.0,0.0,0.0,0.0,0.0,0.0,0.0,0.0,0.0,0.0,2.7927,2.9765,2.9738,2.7673,2.6835,2.5779,2.4437,2.3379,0.0,0.0,0.0,0.0,0.0,0.0,0.0,0.0,0.0,0.0,0.0,0.0,0.0,0.0,0.0,0.0,0.0,0.0,0.0,0.0,0.0,0.0,0.0,0.0,0.0,0.0,0.0,2.0214,0.0,0.0,0.0,0.0,0.0,0.0,0.0,0.0,0.0,0.0,0.0,0.0,0.0,0.0,3.2795,3.3714,3.2687,3.1797,0.0,0.0,3.0918,3.0586,3.0254,2.954,0.0,0.0,0.0,0.0,0.0,0.0,0.0,0.0,0.0,0.0,0.0,0.0,0.0,0.0,0.0,0.0,0.0,0.0,0.0,0.0,0.0,0.0,0.0,0.0,0.0,0.0,0.0,0.0,0.0,0.0,0.0,0.0,0.0,0.0,0.0,0.0,0.0,0.0,0.0,0.0,0.0,0.0,0.0,0.0,0.0,0.0,0.0,0.0,0.0,0.0,0.0,0.0,0.0,0.0,0.0,2.7931,2.8982,2.8912,2.7602,2.6034,2.4981,2.441,2.3923,2.2717,0.0,0.0,0.0,0.0,0.0,0.0,0.0,0.0,0.0,0.0,0.0,0.0,0.0,0.0,0.0,0.0,0.0,0.0,0.0,0.0,0.0,0.0,0.0,0.0,0.0,0.0,0.0,0.0,0.0,0.0,0.0,0.0,0.0,0.0,0.0,0.0,0.0,0.0,0.0,0.0,0.0,3.4995,3.4343,3.3375,3.2578,0.0,0.0,3.1465,3.1396,3.1357,3.0547,2.8093,0.0,0.0,0.0,0.0,0.0,0.0,0.0,0.0,0.0,0.0,0.0,0.0,0.0,0.0,0.0,0.0,0.0,0.0,0.0,0.0,0.0,0.0,0.0,0.0,0.0,0.0,0.0,0.0,0.0,0.0,0.0,0.0,0.0,0.0,0.0,0.0,0.0,0.0,0.0,0.0,0.0,0.0,0.0,0.0,0.0,0.0,0.0,0.0,0.0,0.0,0.0,0.0,0.0,2.7659,2.683,2.852,2.8425,2.65,2.5807,2.5273,2.4848,2.4414,2.3164,0.0,0.0,0.0,0.0,0.0,0.0,0.0,0.0,0.0,0.0,0.0,0.0,0.0,0.0,0.0,0.0,0.0,0.0,0.0,0.0,0.0,0.0,0.0,0.0,0.0,0.0,0.0,0.0,2.2678,2.3193,2.3837,0.0,0.0,0.0,0.0,0.0,0.0,0.0,0.0,0.0,0.0,3.4295,3.4653,3.3821,0.0,0.0,3.2187,3.1816,3.1533,3.1055,3.0195,2.8672,2.8223,0.0,0.0,0.0,0.0,0.0,0.0,0.0,0.0,0.0,0.0,0.0,0.0,0.0,0.0,0.0,0.0,0.0,0.0,0.0,0.0,0.0,0.0,0.0,0.0,0.0,0.0,0.0,0.0,0.0,0.0,0.0,0.0,0.0,0.0,0.0,0.0,0.0,0.0,0.0,0.0,0.0,0.0,0.0,0.0,0.0,0.0,0.0,0.0,0.0,0.0,0.0,0.0,2.7686,2.6371,2.8366,2.8192,2.5766,2.5698,2.5503,2.5102,2.4648,2.3513,0.0,0.0,0.0,0.0,0.0,0.0,0.0,0.0,0.0,0.0,0.0,0.0,0.0,0.0,0.0,0.0,0.0,0.0,0.0,0.0,0.0,0.0,0.0,0.0,0.0,0.0,0.0,0.0,2.3047,2.3472,2.4211,0.0,0.0,0.0,0.0,0.0,0.0,0.0,0.0,0.0,0.0,3.417,3.4724,3.399,3.3211,3.2695,3.2246,3.1855,3.1562,3.0996,3.0254,2.9277,0.0,0.0,0.0,0.0,0.0,0.0,0.0,0.0,0.0,0.0,0.0,0.0,0.0,0.0,0.0,0.0,0.0,0.0,0.0,0.0,0.0,0.0,0.0,0.0,0.0,0.0,0.0,0.0,0.0,0.0,2.4184,0.0,0.0,0.0,0.0,0.0,0.0,0.0,0.0,0.0,0.0,0.0,0.0,0.0,0.0,0.0,0.0,0.0,0.0,0.0,0.0,0.0,0.0,2.8236,2.6943,2.8567,2.8215,2.582,2.5698,2.5503,2.5121,2.4648,2.3786,2.2479,0.0,0.0,0.0,0.0,0.0,0.0,0.0,0.0,0.0,0.0,0.0,0.0,0.0,0.0,0.0,0.0,0.0,0.0,0.0,0.0,0.0,0.0,0.0,0.0,0.0,0.0,2.375,2.3376,2.3164,0.0,0.0,0.0,0.0,0.0,0.0,0.0,0.0,0.0,0.0,3.4595,3.5187,3.4461,3.384,3.3164,3.2355,3.1836,3.1543,3.1513,3.1455,3.1055,0.0,0.0,0.0,0.0,0.0,0.0,0.0,0.0,0.0,0.0,0.0,0.0,0.0,0.0,0.0,0.0,0.0,0.0,0.0,0.0,0.0,0.0,0.0,0.0,0.0,0.0,0.0,2.378,2.3429,0.0,0.0,0.0,0.0,0.0,0.0,0.0,0.0,0.0,0.0,0.0,2.6277,2.6727,0.0,0.0,0.0,0.0,0.0,0.0,0.0,0.0,0.0,0.0,0.0,0.0,2.8655,2.8228,2.8968,2.8611,2.7006,2.6135,2.564,2.5484,2.5078,2.4144,2.2559,0.0,0.0,0.0,0.0,0.0,0.0,0.0,0.0,0.0,0.0,0.0,0.0,0.0,0.0,0.0,0.0,0.0,0.0,0.0,0.0,0.0,0.0,0.0,0.0,0.0,2.4199,0.0,0.0,0.0,0.0,0.0,0.0,0.0,0.0,0.0,0.0,0.0,3.4275,3.4339,3.4462,3.4341,3.3824,3.3824,3.3555,0.0,0.0,0.0,0.0,0.0,0.0,0.0,0.0,0.0,0.0,0.0,0.0,0.0,0.0,2.9008,2.9122,2.7868,2.7223,2.8676,0.0,0.0,0.0,0.0,0.0,0.0,0.0,0.0,0.0,0.0,0.0,0.0,0.0,0.0,2.3878,0.0,2.3841,0.0,0.0,0.0,0.0,0.0,0.0,0.0,0.0,2.6951,2.7081,2.7186,2.7592,2.7058,0.0,2.6451,2.5547,0.0,0.0,0.0,0.0,0.0,0.0,0.0,0.0,2.8718,2.8444,2.8656,2.8168,2.6982,2.6135,2.5698,2.5698,2.5293,2.4437,2.2986,2.2422,2.1707,0.0,0.0,0.0,0.0,0.0,0.0,0.0,0.0,0.0,0.0,0.0,0.0,0.0,0.0,0.0,0.0,0.0,0.0,0.0,0.0,0.0,0.0,0.0,2.4801,0.0,0.0,0.0,0.0,0.0,0.0,0.0,0.0,0.0,3.4105,3.4554,3.4763,3.4748,3.4481,3.4082,3.3464,0.0,0.0,0.0,0.0,0.0,0.0,0.0,3.0082,3.0161,2.9413,2.9277,3.0641,3.077,3.0389,2.9529,0.0,0.0,2.9366,2.866,2.845,2.9855,3.0768,3.123,3.0957,3.1367,3.168,0.0,0.0,0.0,0.0,0.0,0.0,0.0,0.0,2.4141,2.4242,0.0,2.3034,0.0,0.0,0.0,0.0,0.0,2.6883,0.0,0.0,2.8307,2.8466,2.7945,2.7352,2.6836,2.6465,2.6847,2.6163,2.4529,2.4597,0.0,0.0,0.0,0.0,0.0,0.0,2.8421,2.7765,2.7673,2.7006,2.5888,2.5742,2.5698,2.5698,2.5312,2.473,2.3909,2.3809,2.2716,2.0298,2.0039,0.0,0.0,0.0,0.0,0.0,0.0,0.0,0.0,0.0,0.0,0.0,0.0,0.0,0.0,0.0,0.0,0.0,0.0,0.0,0.0,2.5416,0.0,0.0,0.0,0.0,0.0,0.0,0.0,0.0,0.0,0.0,3.368,3.5002,3.5781,3.4864,0.0,0.0,0.0,0.0,3.2147,3.0379,3.0026,2.9497,2.8131,2.821,2.8292,2.7866,0.0,0.0,2.8369,2.9095,3.0032,3.0853,3.0361,2.9734,2.92,3.0216,3.1145,3.136,3.2496,3.3382,3.3406,3.3328,3.3457,2.4004,0.0,0.0,0.0,0.0,2.5191,2.5367,2.5488,2.5723,2.5434,2.4711,2.4476,0.0,0.0,0.0,0.0,0.0,0.0,2.6851,2.7849,2.7605,2.758,2.7799,2.7872,2.7721,2.7356,2.7448,2.6939,2.5864,2.586,2.5393,2.4466,0.0,0.0,0.0,0.0,2.7839,2.8277,2.7845,2.7434,2.7054,2.6159,2.5698,2.5698,2.5581,2.5273,2.475,2.473,2.4237,2.3175,2.0975,0.0,0.0,0.0,0.0,0.0,0.0,0.0,0.0,0.0,0.0,0.0,0.0,0.0,0.0,0.0,0.0,0.0,0.0,0.0,2.3877,2.4455,2.5302,0.0,0.0,0.0,0.0,0.0,0.0,0.0,0.0,0.0,3.5666,3.6257,3.6386,0.0,0.0,3.498,3.4414,3.3095,3.1987,3.1409,3.018,0.0,2.8754,2.8537,2.8455,2.8602,2.9113,2.8672,2.6128,2.8135,2.9778,2.8844,2.9747,3.0615,3.0518,3.1167,3.2238,3.3411,3.4288,3.4707,3.4434,3.459,3.4824,2.4817,2.6206,2.5723,2.5888,2.6498,2.6855,2.7025,2.7148,2.7148,2.6861,2.6353,2.5977,2.5726,2.5531,2.5186,0.0,0.0,0.0,2.6819,2.7864,2.7639,2.7656,2.7936,2.8164,2.8164,2.7956,2.7936,2.7585,2.692,2.692,2.6236,2.4988,0.0,0.0,2.6832,2.6911,2.7237,2.7779,2.7184,2.6839,2.6836,2.611,2.5698,2.5698,2.5698,2.5581,2.5356,2.5332,2.4903,2.3989,2.2159,2.1133,0.0,0.0,0.0,0.0,0.0,0.0,0.0,0.0,0.0,0.0,0.0,1.7888,1.9219,0.0,0.0,0.0,2.0761,2.1543,2.2497,2.4543,0.0,0.0,0.0,0.0,0.0,0.0,0.0,3.4629,3.5371,3.6094,3.7047,3.7109,3.7005,3.6784,3.6269,3.551,3.4425,0.0,3.1801,3.034,2.9075,2.8096,2.7372,2.7044,2.6984,2.7201,2.8142,2.8202,2.6336,2.8434,3.0296,3.0088,3.1052,3.2292,3.2862,3.3511,3.3988,3.4528,3.5442,3.6035,3.5781,3.5957,3.6152,2.5432,2.6922,2.5752,2.6256,2.7891,2.8652,2.875,2.8398,2.8379,2.8379,2.8281,2.7519,2.7148,2.7045,2.6303,0.0,2.6627,2.7031,2.7422,2.78,2.8191,2.832,2.8301,2.8301,2.8301,2.8301,2.8301,2.8112,2.7761,2.7767,2.733,2.6534,2.6679,2.7052,2.7458,2.6925,2.6604,2.6625,2.6036,2.5698,2.5698,2.5698,2.5698,2.5698,2.5698,2.5645,2.5528,2.5528,2.4825,2.3275,2.3148,2.2624,2.1478,0.0,0.0,0.0,0.0,0.0,0.0,0.0,0.0,0.0,0.0,0.0,0.0,0.0,0.0,0.0,2.2113,0.0,2.1412,2.5407,0.0,0.0,0.0,3.1894,3.2492,3.3867,3.5156,3.604,0.0,0.0,3.791,3.7637,3.7539,3.7894,3.7246,3.6054,3.4155,3.3336,3.1613,2.8393,2.736,2.6502,2.5194,2.485,2.5093,2.5643,2.643,2.7563,2.7831,2.9641,3.1604,3.2807,3.3653,3.4434,3.5888,3.6351,3.6386,3.5167,3.6112,3.7207,3.7168,3.7129,3.7109,2.3657,2.6214,2.5944,2.7104,2.9141,2.9364,2.9383,2.9285,2.9285,2.9082,2.875,2.8555,2.8301,2.7988,2.8079,2.8196,2.834,2.8797,2.8848,2.8633,2.873,2.8594,2.8301,2.8301,2.8301,2.8301,2.8301,2.8242,2.8171,2.8171,2.7897,2.7434,2.7436,2.7033,2.6194,2.6036,2.5952,2.5928,2.5781,2.5698,2.5698,2.5698,2.5698,2.5698,2.5698,2.5216,2.4221,2.4171,2.3523,2.218,2.1858,2.1976,2.2554,2.1069,0.0,0.0,0.0,0.0,0.0,0.0,0.0,0.0,0.0,1.9795,1.8043,0.0,1.9388,0.0,2.0312,2.1964,2.4682,2.618,0.0,0.0,3.2719,3.3672,3.5424,3.5664,3.6172,3.7308,3.7621,3.793,3.8359,3.834,3.8337,3.8398,3.7695,3.6973,3.6406,3.3696,3.1435,3.0082,2.7585,2.5435,2.4837,2.4599,2.5625,2.847,2.8161,2.796,2.9401,3.1313,3.2895,3.3619,3.4976,3.6278,3.7199,3.7523,3.7647,3.7562,3.7252,3.6949,3.7207,3.707,3.6934,2.3031,2.5984,2.6015,2.7623,3.0156,3.0185,3.0156,3.0165,2.9941,2.9707,2.9473,2.9297,2.9082,2.8914,2.9101,2.9219,2.9238,2.9481,2.9461,2.9199,2.8976,2.8762,2.8555,2.8379,2.8301,2.8301,2.8301,2.8301,2.8301,2.8301,2.8191,2.7976,2.7976,2.7506,2.6621,2.6381,2.6259,2.6284,2.6089,2.6089,2.6264,2.5913,2.5698,2.5698,2.5698,2.4974,2.3455,2.3592,2.2997,2.1562,2.1313,2.1779,2.3021,2.2118,2.2172,0.0,0.0,0.0,0.0,0.0,0.0,0.0,0.0,0.0,0.0,0.0,1.9583,1.988,2.0815,2.274,2.5992,2.7654,2.9978,3.3448,3.4575,3.5625,3.6816,3.6894,3.7191,3.8105,3.7424,3.6934,3.7161,3.6442,3.5868,3.5905,3.6236,3.6519,3.6356,3.4518,3.2523,3.0404,2.823,2.6636,2.614,2.6684,2.7837,2.9741,3.0149,3.0482,3.1662,3.3458,3.4842,3.5137,3.6115,3.7012,3.7324,3.7695,3.7972,3.8105,3.7734,3.7441,3.7773,3.7711,3.7633,2.3031,2.5984,2.6015,2.7871,3.0928,3.0928,3.0928,3.0859,3.0449,3.0273,3.0273,2.9931,2.9774,2.9774,2.9755,2.9774,2.9774,2.9755,2.9735,2.9657,2.9258,2.9035,2.8984,2.8633,2.8457,2.8484,2.8457,2.8457,2.8457,2.8457,2.8437,2.8379,2.8379,2.8164,2.778,2.7363,2.7103,2.7012,2.666,2.6641,2.6967,2.6264,2.5757,2.5508,2.5508,2.4594,2.2684,2.2994,2.249,2.0995,2.1037,2.1728,2.2927,2.2755,2.3238,0.0,2.4312,0.0,0.0,0.0,0.0,0.0,0.0,0.0,0.0,2.0561,2.1203,2.1719,2.3042,2.4825,2.7149,2.9827,3.2113,3.3809,3.6058,3.739,3.7142,3.7419,3.7714,3.7822,3.6238,3.5124,3.5101,3.3617,3.2571,3.293,3.4145,3.505,3.5144,3.5238,3.3831,2.9671,2.8963,2.8597,2.8909,2.9717,3.0562,3.1221,3.2298,3.3581,3.4137,3.5565,3.6743,3.6821,3.7055,3.7207,3.6988,3.7519,3.793,3.8047,3.8027,3.8086,3.8398,3.8435,3.8552,2.3031,2.5984,2.6015,2.7901,3.0898,3.0928,3.0928,3.0879,3.0801,3.0791,3.0742,3.0664,3.0644,3.0644,3.0673,3.0673,3.0644,3.0644,3.0478,3.0078,3.0,2.9766,2.9481,2.9403,2.9364,2.9364,2.9364,2.9364,2.9344,2.9344,2.9188,2.8809,2.8781,2.8594,2.821,0.0,0.0,0.0,2.6908,2.6908,2.6986,2.683,2.6053,2.4643,2.4549,0.0,2.045,2.0607,2.0242,1.9147,2.0258,0.0,0.0,0.0,0.0,0.0,0.0,0.0,0.0,0.0,0.0,0.0,2.1922,2.082,2.0636,2.3328,2.5178,2.5427,2.762,3.001,3.2333,3.3305,3.4702,3.6808,3.7828,3.772,3.6128,3.6256,3.5822,3.3847,3.3301,3.3137,3.3307,3.3011,3.278,3.2626,3.3165,3.3262,3.3049,3.4356,3.377,2.9952,2.9094,2.9996,3.2791,3.2181,3.2656,3.4893,3.4822,3.4947,3.6229,3.6797,3.7305,3.7559,3.748,3.7519,3.8047,3.8086,3.8047,3.8379,3.8437,3.8476,3.8591,3.8301,3.8144,2.2546,0.0,2.4809,2.6698,0.0,2.9648,3.0157,3.0928,3.0928,3.0928,3.0928,3.0928,3.0928,3.0928,3.0928,3.0928,3.0928,3.0928,3.0762,3.0527,3.0293,3.0078,2.9891,2.9696,2.9598,2.9598,2.9598,2.9598,2.9598,2.9598,2.9481,2.9238,2.9266,2.9168,2.8953,2.8953,2.8523,2.7656,2.7441,2.7084,2.6582,2.6135,2.512,2.3488,2.341,0.0,0.0,0.0,0.0,0.0,0.0,0.0,0.0,0.0,0.0,2.3658,2.3971,2.4366,2.4824,2.3749,2.3442,2.4337,2.4204,2.349,2.2116,2.4906,2.6793,2.706,2.9597,3.213,3.427,3.483,3.5851,3.7914,3.7524,3.6608,3.5645,3.4815,3.397,3.2863,3.1847,3.1316,3.1583,3.0682,3.0181,3.0221,3.1038,3.1213,3.0438,3.2282,3.3011,3.1105,3.1387,3.2382,3.4177,3.4739,3.4846,3.6701,3.6524,3.6423,3.7381,3.7422,3.7441,3.7812,3.7734,3.7773,3.8125,3.8223,3.832,3.8516,3.8611,3.8611,3.8611,3.8398,3.8301,2.2104,2.3574,2.3605,2.5269,2.7991,2.8277,2.9353,3.0928,0.0,0.0,0.0,3.0928,3.0928,3.0928,3.0928,3.0928,3.0928,3.0928,3.0928,3.0879,3.0488,3.0332,3.0293,2.9989,2.9833,2.9833,2.9833,2.9833,2.9833,2.9833,2.9794,2.9715,2.9696,2.9517,2.9159,2.8887,2.8396,2.7704,2.7611,2.7018,2.5816,2.5147,2.401,2.2435,2.2408,2.1713,2.0204,2.0522,2.0217,1.9202,1.9183,1.9924,2.1409,2.1774,2.2872,2.4886,2.536,2.5802,2.6433,2.5339,2.4914,2.5553,2.6636,2.6324,2.4141,2.6667,2.8518,2.8857,3.1436,3.3798,3.5541,3.5907,3.6756,3.8526,3.6849,3.5548,3.5025,3.334,3.2088,3.1721,3.0327,2.9569,2.9742,2.8532,2.7389,2.758,2.8924,2.9258,2.8027,2.9631,3.1785,3.2835,3.3446,3.4422,3.5595,3.6535,3.7468,3.7527,3.7523,3.7656,3.7871,3.7754,3.7695,3.8008,3.8047,3.8066,3.8066,3.834,3.863,3.8708,3.865,3.863,3.8708,3.8691,3.8652,2.209,2.3605,2.3605,2.4655,2.6439,2.7811,2.9353,3.0898,3.0928,3.0928,3.0928,3.0928,3.0928,3.0928,3.0928,3.0928,3.0928,3.0928,3.0928,3.0879,3.0849,3.083,3.0801,3.0742,3.0703,3.0703,3.0684,3.0732,3.0732,3.0703,3.0508,3.0156,3.0117,2.9222,2.7472,2.6071,2.5326,2.5208,2.6519,2.6332,2.4584,2.467,2.3876,2.2186,2.2056,2.1262,1.9627,1.9827,1.9964,2.001,2.0294,2.0654,2.1123,2.1502,2.1829,2.219,2.2668,2.3136,2.3515,2.3529,2.4456,2.6607,2.8629,2.8849,2.6857,3.0418,3.3074,3.357,3.5554,3.7326,3.8035,3.8097,3.8308,3.8858,3.7315,3.547,3.3873,3.2068,3.0325,2.8562,2.7715,2.7989,2.8345,2.8042,2.7794,2.7712,2.8318,2.7948,2.7554,2.7255,2.9748,3.3504,3.3741,3.4456,3.6974,3.8183,3.8359,3.8435,3.8379,3.8398,3.8457,3.8398,3.8379,3.8513,3.8476,3.8476,3.8516,3.8552,3.8787,3.8984,3.8848,3.873,3.9004,3.9101,3.9004,2.1538,2.2215,2.2247,2.3714,2.6197,2.8664,3.0186,3.0898,3.0928,3.0928,3.0928,3.0928,3.0928,3.0928,3.0928,3.0928,3.0928,3.0928,3.0928,3.0928,3.0928,3.0928,3.0928,3.0928,3.0928,3.0928,3.0928,3.0928,3.0928,3.0928,3.0781,3.0509,2.9687,2.874,2.7768,2.6202,2.49,2.3874,2.5127,2.5003,2.3389,2.3442,2.2705,2.1075,2.1031,2.0745,2.014,2.0201,2.0414,2.0664,2.0989,2.1248,2.1381,2.1777,2.2017,2.2077,2.2579,2.3046,2.3375,2.4973,2.6862,2.9023,3.1262,3.2166,3.1174,3.2948,3.4269,3.4576,3.6981,3.8691,3.8906,3.8906,3.9082,3.9531,3.7558,3.5952,3.5096,3.3424,3.192,3.1011,3.0947,3.0702,2.9794,2.9713,2.916,2.8382,2.8827,2.9445,2.9182,3.0104,3.1369,3.3564,3.5078,3.6682,3.834,3.8789,3.8923,3.8926,3.9121,3.916,3.8984,3.8926,3.8926,3.8926,3.8906,3.9023,3.9199,3.9297,3.9297,3.9121,3.9082,3.9043,3.918,3.9394,3.9414,2.1551,2.1887,2.1787,2.3588,2.6712,2.9246,3.0538,3.0879,3.0928,3.0928,3.0928,3.0928,3.0928,3.0928,3.0928,3.0928,3.0928,3.0928,3.0928,3.0928,3.0928,3.0928,3.0928,3.0928,3.0928,3.0928,3.0928,3.0928,3.0928,3.0928,3.0928,3.0674,2.8861,2.7871,2.7841,2.5893,2.4147,2.2788,2.3488,2.329,2.2152,2.215,2.1588,2.0519,2.0428,2.0535,2.0793,2.0775,2.0909,2.1203,2.1462,2.1676,2.189,2.2271,2.2579,2.2739,2.3198,2.3887,2.4825,2.726,2.9633,3.1673,3.384,3.5114,3.515,3.5242,3.5279,3.5552,3.7692,3.918,3.9199,3.9297,3.9551,3.9828,3.7838,3.6529,3.67,3.5123,3.3951,3.4176,3.4252,3.3629,3.2509,3.1681,3.0729,2.9634,3.0385,3.1314,3.1843,3.3596,3.448,3.4462,3.6489,3.8419,3.8779,3.9178,3.9336,3.9355,3.9629,3.9648,3.9434,3.9355,3.9355,3.9355,3.9355,3.9473,3.9805,3.9863,3.9766,3.959,3.9473,3.9394,3.957,3.9805,3.9863,2.2851,2.4107,2.3904,2.5465,2.8086,2.8593,2.9627,3.083,3.0928,3.0928,3.0918,3.0928,3.0928,3.0928,3.0928,3.0928,3.0928,3.0928,3.0928,3.0928,3.0928,3.0928,3.0928,3.0928,3.0928,3.0928,3.0928,3.0928,3.0928,3.0928,3.0898,3.0557,2.7781,2.6241,2.5893,2.3186,2.1524,2.1276,2.1375,2.1239,2.0902,2.1101,2.1186,2.1029,2.1029,2.1042,2.1069,2.1069,2.1203,2.1515,2.1582,2.199,2.2653,2.2827,2.3108,2.3629,2.3928,2.5107,2.7503,2.959,3.1671,3.3983,3.5882,3.6971,3.7026,3.7316,3.7565,3.774,3.8545,3.9219,3.9238,3.959,4.0,4.0295,3.8364,3.6909,3.7252,3.5502,3.4193,3.421,3.4966,3.4578,3.4351,3.2858,3.1516,3.1185,3.1764,3.2601,3.391,3.5988,3.7277,3.6656,3.7053,3.795,3.9237,3.9785,3.9824,3.9824,3.9863,3.9902,3.9863,3.9824,3.9824,3.9824,3.9824,3.9883,3.9941,3.9902,4.0059,4.0156,4.0039,3.9941,4.0273,4.0391,4.0293,2.5528,2.6184,2.6009,2.7183,2.916,3.023,3.1052,3.1621,3.1367,3.1269,3.123,3.0996,3.0928,3.0928,3.0928,3.0928,3.0928,3.0928,3.0928,3.0928,3.0928,3.0928,3.0928,3.0928,3.0928,3.0928,3.0928,3.0928,3.0928,3.0928,3.0421,2.9294,2.7073,2.5528,2.4502,2.2278,2.1109,2.1109,2.1109,2.1136,2.1221,2.1136,2.1109,2.1122,2.1269,2.1395,2.1422,2.1537,2.1683,2.185,2.2171,2.2519,2.288,2.3228,2.3536,2.3817,2.4209,2.6028,2.957,3.0938,3.2997,3.624,3.746,3.8083,3.8102,3.8223,3.8398,3.8711,3.9258,3.9707,3.9941,4.0118,4.0391,4.0627,3.9721,3.9144,3.96,3.8877,3.8349,3.8367,3.8456,3.7896,3.6642,3.4692,3.3472,3.3553,3.4246,3.5416,3.6433,3.8377,3.9537,3.9505,3.9392,3.9433,3.9964,4.0117,4.0215,4.0293,4.0488,4.0605,4.0312,4.0273,4.0273,4.0273,4.0273,4.0391,4.0683,4.0625,4.0684,4.0644,4.0469,4.0332,4.045,4.0723,4.0781,2.7951,2.8264,2.8622,2.9426,3.047,3.1672,3.2198,3.2159,3.1836,3.1699,3.166,3.1367,3.123,3.124,3.1016,3.0928,3.0898,3.1016,3.1055,3.1074,3.1221,3.1279,3.1279,3.125,3.123,3.1279,3.1269,3.1221,3.1074,3.0937,3.0077,2.8523,2.6925,2.5353,2.3828,2.2165,2.1349,2.1349,2.1349,2.1456,2.1649,2.1456,2.1349,2.1363,2.1596,2.1703,2.1735,2.1903,2.2071,2.2265,2.2666,2.3014,2.3268,2.3683,2.3955,2.4178,2.4516,2.6399,3.0206,3.1441,3.352,3.6801,3.8035,3.8611,3.863,3.8672,3.8945,3.9355,3.9805,4.0215,4.0411,4.0625,4.084,4.1152,4.0879,4.084,4.1074,4.1211,4.1036,4.1211,4.0783,4.0353,3.8271,3.6522,3.5581,3.5759,3.6842,3.831,3.8803,4.0138,4.1113,4.1211,4.1152,4.0918,4.0391,4.0488,4.0684,4.0742,4.0957,4.0996,4.0742,4.0723,4.0703,4.0703,4.0703,4.0742,4.0918,4.1093,4.1132,4.082,4.0684,4.0684,4.0762,4.0996,4.1152,2.9487,3.0763,3.2004,3.227,3.2127,3.2226,3.2237,3.2276,3.2179,3.2179,3.2179,3.212,3.212,3.2042,3.1289,3.0918,3.1006,3.1328,3.1504,3.1494,3.1905,3.212,3.2159,3.214,3.212,3.2022,3.2022,3.1836,3.1455,3.1054,3.023,2.8816,2.7084,2.5628,2.4171,2.2655,2.197,2.1884,2.1884,2.197,2.201,2.1951,2.1984,2.1977,2.1964,2.1977,2.2024,2.2024,2.2258,2.284,2.2934,2.3308,2.4022,2.4182,2.4449,2.4954,2.5037,2.6236,2.8927,3.0969,3.312,3.5463,3.7528,3.863,3.8689,3.8926,3.9336,3.9824,4.0215,4.0469,4.0586,4.0879,4.1132,4.1191,4.1191,4.1133,4.1191,4.1211,4.1211,4.1211,4.1211,4.0392,3.835,3.7856,3.7777,3.7777,3.7935,3.8627,4.0314,4.1055,4.1172,4.1211,4.1211,4.1191,4.1132,4.1035,4.1093,4.1113,4.1055,4.1191,4.1191,4.1191,4.1172,4.1113,4.1055,4.1055,4.1172,4.1211,4.1191,4.1055,4.1035,4.1093,4.1015,4.1132,4.1211,3.2847,3.3304,3.3805,3.3769,3.343,3.343,3.3242,3.2949,3.2676,3.2609,3.255,3.2316,3.2198,3.2179,3.1885,3.1729,3.1749,3.1875,3.1964,3.1983,3.214,3.2198,3.2198,3.2198,3.2198,3.2198,3.2198,3.212,3.1813,3.0664,2.9225,2.7673,2.6008,2.4362,2.3019,2.2306,2.2024,2.2024,2.2024,2.2071,2.2285,2.2479,2.2632,2.2806,2.2458,2.2352,2.2572,2.2726,2.3033,2.3469,2.3643,2.3955,2.4436,2.4836,2.513,2.5344,2.5569,2.6665,2.8864,3.108,3.3208,3.533,3.7419,3.8747,3.8926,3.9141,3.9492,4.0137,4.041,4.0625,4.0898,4.1094,4.1211,4.1211,4.1211,4.1211,4.1211,4.1211,4.1211,4.1211,4.1211,4.0802,4.0236,3.9982,4.0021,4.0021,3.9982,4.0353,4.088,4.1211,4.1211,4.1211,4.1211,4.1211,4.1211,4.1191,4.1211,4.1211,4.1211,4.1211,4.1211,4.1211,4.1172,4.1172,4.1211,4.1211,4.1211,4.1211,4.1211,4.1211,4.1211,4.1211,4.1211,4.1211,4.1211,3.4687,3.4687,3.4687,3.4551,3.4329,3.431,3.4055,3.3613,3.332,3.3144,3.2969,3.2695,3.2609,3.2609,3.2578,3.2578,3.2559,3.2472,3.2394,3.2413,3.25,3.2578,3.2578,3.2578,3.2578,3.2539,3.2452,3.2413,3.2141,3.0433,2.8787,2.7405,2.561,2.4003,2.2815,2.2599,2.2565,2.2565,2.2599,2.2672,2.2859,2.3081,2.3247,2.338,2.306,2.2974,2.3188,2.3354,2.3607,2.3901,2.4182,2.4516,2.4866,2.5291,2.5558,2.5742,2.652,2.7586,2.9235,3.1826,3.4128,3.562,3.7591,3.8965,3.9375,3.9551,3.9904,4.0352,4.0684,4.0879,4.1113,4.1211,4.1211,4.1211,4.1211,4.1211,4.1211,4.1211,4.1211,4.1211,4.1211,4.1172,4.1211,4.1172,4.1133,4.1211,4.1211,4.1211,4.1211,4.1211,4.1211,4.1211,4.1211,4.1211,4.1211,4.1211,4.1211,4.1211,4.1211,4.1211,4.1211,4.1211,4.1211,4.1211,4.1211,4.1211,4.1211,4.1211,4.1211,4.1211,4.1211,4.1211,4.1211,4.1211,4.1094,3.4746,3.4785,3.4726,3.4766,3.4707,3.4707,3.4473,3.4134,3.4055,3.3782,3.3437,3.3379,3.325,3.3308,3.3262,3.3328,3.332,3.3027,3.2832,3.2832,3.3164,3.3289,3.3269,3.3308,3.3398,3.3367,3.3008,3.2851,3.2797,3.0609,2.8899,2.7851,2.602,2.4519,2.375,2.3629,2.3696,2.3656,2.3616,2.3696,2.3803,2.375,2.3777,2.3803,2.3741,2.379,2.383,2.3794,2.3955,2.4222,2.4516,2.4879,2.5398,2.5558,2.5717,2.6448,2.7904,2.9034,2.9891,3.3222,3.5559,3.6358,3.8064,3.9414,3.9844,4.0195,4.0411,4.0625,4.0898,4.1191,4.1191,4.1211,4.1211,4.1211,4.1211,4.1211,4.1211,4.1211,4.1211,4.1211,4.1211,4.1211,4.1211,4.1211,4.1211,4.1211,4.1211,4.1211,4.1211,4.1211,4.1211,4.1211,4.1211,4.1211,4.1211,4.1211,4.1211,4.1211,4.1211,4.1211,4.1211,4.1211,4.1211,4.1211,4.1211,4.1211,4.1211,4.1211,4.1211,4.1211,4.1211,4.1211,4.1211,4.1133,4.0841,3.5605,3.5605,3.5572,3.543,3.5195,3.5176,3.4922,3.4492,3.4251,3.4016,3.3828,3.3555,3.3386,3.3386,3.3386,3.3594,3.3828,3.3711,3.3516,3.3269,3.3347,3.3406,3.3464,3.373,3.4023,3.4199,3.3867,3.3828,3.3412,3.063,2.8776,2.8283,2.579,2.4202,2.3866,2.3817,2.3817,2.3817,2.3817,2.3817,2.383,2.4017,2.4075,2.4088,2.4262,2.4449,2.4649,2.4476,2.4516,2.4796,2.5077,2.5411,2.5797,2.6012,2.6797,2.8205,2.9173,3.05,3.2098,3.4585,3.6515,3.6983,3.8538,3.9732,4.0254,4.0411,4.0664,4.0898,4.1132,4.1211,4.1211,4.1211,4.1211,4.1211,4.1211,4.1211,4.1211,4.1211,4.1211,4.1211,4.1211,4.1211,4.1172,4.1094,4.0802,4.0841,4.0919,4.0919,4.0997,4.0841,4.1211,4.1211,4.1211,4.1172,4.1211,4.1211,4.1211,4.1211,4.1211,4.1211,4.1211,4.1211,4.1211,4.123,4.123,4.123,4.123,4.1211,4.1211,4.123,4.125,4.123,4.1211,4.088,4.0449,3.6406,3.6269,3.6269,3.6016,3.5644,3.5625,3.5371,3.4961,3.4687,3.4505,3.4277,3.4023,3.3906,3.3906,3.3906,3.4043,3.4297,3.4349,3.416,3.3894,3.3906,3.3906,3.3926,3.416,3.4434,3.4609,3.4434,3.4466,3.4504,3.1579,2.9733,2.8903,2.6535,2.4864,2.4358,2.4405,2.4422,2.4422,2.4436,2.4422,2.4449,2.4596,2.4653,2.4716,2.4863,2.5013,2.5262,2.5807,2.592,2.5604,2.6177,2.6941,2.7273,2.8296,2.9472,3.0608,3.1955,3.3232,3.4543,3.6676,3.8023,3.8402,3.9414,4.0274,4.0664,4.0762,4.0918,4.1113,4.1211,4.1211,4.1211,4.1211,4.1211,4.1211,4.1211,4.1211,4.1211,4.1211,4.1211,4.1055,4.047,4.0099,3.9943,3.908,3.8882,3.8803,3.8803,3.8803,3.8961,3.9413,3.9786,4.0372,4.0802,4.088,4.1172,4.1211,4.1211,4.1211,4.1211,4.1211,4.1211,4.1211,4.1211,4.1308,4.1328,4.1348,4.1328,4.125,4.1211,4.125,4.1328,4.1308,4.123,4.0189,3.9517,3.7086,3.6753,3.6734,3.6445,3.6074,3.6055,3.582,3.5449,3.5332,3.5078,3.4785,3.4609,3.4609,3.4648,3.4551,3.4609,3.4746,3.4746,3.4785,3.4766,3.4766,3.4746,3.4707,3.4759,3.4805,3.4863,3.4785,3.4805,3.492,3.2917,3.1334,2.9806,2.8223,2.6653,2.5371,2.5344,2.5485,2.5772,2.5764,2.5751,2.5764,2.5729,2.5742,2.5805,2.5843,2.6036,2.67,2.8183,2.8242,2.6648,2.8382,2.95,3.0036,3.192,3.2779,3.3276,3.5509,3.6436,3.7298,3.8651,3.9929,4.0201,4.0375,4.0723,4.1035,4.1132,4.1132,4.1211,4.1211,4.1211,4.1211,4.1289,4.1308,4.1289,4.1289,4.123,4.1211,4.1055,4.0627,4.0392,3.9158,3.7737,3.7715,3.6236,3.5544,3.5318,3.5474,3.5703,3.604,3.7218,3.7867,3.8914,4.0269,4.1073,4.1465,4.0288,4.0172,3.9805,3.9803,3.9663,3.9921,4.002,4.0331,4.0545,4.0876,4.1014,4.1465,4.1406,4.1445,4.1543,4.1582,4.1543,4.0619,3.9292,3.7565,3.7226,3.7129,3.7129,3.6875,3.6558,3.6538,3.625,3.5806,3.5527,3.5371,3.5176,3.4844,3.4766,3.4707,3.4746,3.4883,3.5137,3.5234,3.541,3.5644,3.565,3.5488,3.5273,3.5215,3.5371,3.5586,3.543,3.5547,3.5938,3.4075,3.2333,3.0953,2.9393,2.747,2.5715,2.572,2.6368,2.7589,2.7792,2.7821,2.7821,2.7821,2.7778,2.7778,2.7807,2.8664,3.01,3.1395,3.1837,3.1311,3.1946,3.256,3.2664,3.3442,3.4521,3.5807,3.6728,3.8047,3.9337,4.026,4.0859,4.1015,4.0996,4.1055,4.1191,4.1211,4.1211,4.1211,4.1211,4.1211,4.123,4.1465,4.1738,4.1953,4.1385,4.1074,4.086,3.9767,3.8764,3.8548,3.6877,3.585,3.5457,3.5079,3.4596,3.4645,3.466,3.4923,3.5023,3.6607,3.7961,3.9033,4.025,4.1224,4.1363,3.9959,3.8995,3.8319,3.7819,3.7135,3.7311,3.7445,3.7988,3.8533,3.9051,3.9307,4.0882,4.1775,4.1815,4.0846,4.0118,3.9231,3.8555,3.743,3.5233,3.7734,3.7559,3.7559,3.7324,3.6953,3.6934,3.6797,3.6504,3.6113,3.6055,3.6055,3.5723,3.5527,3.5527,3.5547,3.5566,3.5664,3.584,3.5957,3.5957,3.5962,3.5859,3.5742,3.5801,3.6055,3.6269,3.623,3.6484,3.6658,3.5508,3.4194,3.2883,3.1749,3.0233,2.8626,2.8603,2.919,3.0342,3.0633,3.0718,3.0501,3.0485,3.0391,3.036,3.0445,3.1593,3.3736,3.4628,3.4559,3.3892,3.436,3.5063,3.5158,3.6132,3.7113,3.8343,3.8794,3.966,4.0511,4.1055,4.1191,4.1211,4.1211,4.1211,4.1211,4.1211,4.1211,4.1211,4.1211,4.1308,4.1484,4.1816,4.165,4.0944,4.0539,4.0256,4.0256,3.8258,3.7073,3.6405,3.5138,3.367,3.3628,3.3108,3.2655,3.2462,3.2229,3.2934,3.3824,3.62,3.8271,3.9227,4.0182,4.1128,4.0669,3.9248,3.7363,3.663,3.5451,3.4741,3.5229,3.541,3.615,3.6871,3.7256,3.7918,3.9282,3.9896,3.8784,3.7811,3.7287,3.7061,3.6559,3.5361,3.3135,3.8359,3.7952,3.7952,3.7754,3.7402,3.7363,3.7285,3.7207,3.6855,3.6929,3.7051,3.6855,3.6621,3.6773,3.6562,3.6504,3.6177,3.6523,3.6445,3.6348,3.6269,3.623,3.6269,3.6406,3.6601,3.6758,3.7129,3.7246,3.7254,3.7218,3.628,3.483,3.4572,3.3774,3.196,3.2359,3.3149,3.3398,3.3703,3.3686,3.3424,3.3374,3.3257,3.3145,3.3869,3.496,3.6651,3.7397,3.6887,3.4771,3.6329,3.7231,3.7576,3.951,4.0278,4.0356,4.0589,4.0958,4.1152,4.1172,4.1211,4.1211,4.1211,4.1211,4.123,4.1269,4.1348,4.1328,4.1289,4.1601,4.1874,4.2145,4.119,3.9796,3.9107,3.8371,3.8046,3.6484,3.518,3.5012,3.3226,3.2165,3.1467,3.0448,2.9259,3.0995,3.108,3.2388,3.3967,3.63,3.8038,3.9295,4.0173,4.1044,3.9909,3.8465,3.6417,3.4761,3.3156,3.2524,3.356,3.4052,3.471,3.5249,3.546,3.5939,3.6803,3.661,3.5975,3.585,3.605,3.5624,3.5012,3.3203,3.1192,3.8571,3.8437,3.8474,3.8184,3.7832,3.7757,3.7617,3.7324,3.7207,3.7246,3.7285,3.7207,3.7168,3.7148,3.7168,3.7109,3.6973,3.707,3.709,3.7051,3.7012,3.7012,3.6953,3.689,3.6875,3.7109,3.7246,3.748,3.7695,3.7689,3.6939,3.565,3.5829,3.4953,3.3465,3.3973,3.4555,3.5712,3.6166,3.6184,3.6056,3.6003,3.595,3.5976,3.7325,3.8614,3.9414,3.9779,3.9739,3.9775,3.9833,3.9892,4.0105,4.0608,4.0976,4.1016,4.1074,4.1211,4.1211,4.1211,4.1211,4.1211,4.1211,4.1211,4.1211,4.1465,4.1621,4.1719,4.1973,4.1928,4.201,4.1024,4.0037,3.8965,3.6789,3.4831,3.4439,3.368,3.3108,3.2594,3.1267,2.9756,2.9841,3.0203,2.967,2.9727,3.0911,3.2324,3.449,3.6878,3.8202,3.9679,4.0105,4.051,3.8187,3.6581,3.4521,3.3193,3.1772,3.0995,3.2031,3.2208,3.2715,3.3116,3.3502,3.4064,3.4615,3.5312,3.5034,3.496,3.4555,3.3808,3.2762,3.1023,3.0274,3.8691,3.8848,3.8708,3.8437,3.8242,3.8223,3.8105,3.7871,3.7656,3.7715,3.7812,3.7695,3.7598,3.7598,3.7578,3.75,3.7324,3.7305,3.7422,3.7461,3.7422,3.7402,3.7523,3.7402,3.7402,3.7617,3.7832,3.8027,3.8223,3.8345,3.8138,3.737,3.7652,3.7576,3.6547,3.6603,3.7535,3.8322,3.876,3.876,3.8591,3.8553,3.8515,3.8592,3.9605,4.0391,4.0743,4.0801,4.0957,4.1152,4.1211,4.1211,4.1211,4.1211,4.1211,4.1211,4.1211,4.1211,4.1211,4.1211,4.1211,4.123,4.1211,4.1348,4.1387,4.1543,4.1719,4.1675,4.113,4.0391,4.0052,3.9263,3.8296,3.6929,3.5062,3.3058,3.2028,3.1433,3.1191,3.1058,3.0434,2.9926,2.9887,3.0595,3.154,3.2143,3.4054,3.5498,3.6949,3.8972,3.9225,4.0102,4.0289,3.9486,3.6697,3.4468,3.2343,3.1494,3.1022,3.0695,3.1221,3.0915,3.0479,3.1308,3.2264,3.1868,3.2412,3.317,3.3685,3.263,3.1931,3.1509,3.1058,3.0343,2.9879,3.8984,3.9277,3.8962,3.8769,3.8806,3.8826,3.8767,3.8594,3.8301,3.834,3.8591,3.8262,3.8184,3.8108,3.8108,3.791,3.7734,3.7676,3.7949,3.8125,3.7793,3.7812,3.7969,3.8086,3.8066,3.8086,3.8418,3.8633,3.8769,3.9062,3.9127,3.9263,3.969,3.945,3.9831,4.0314,4.0183,4.0298,4.0569,4.0647,4.0395,4.0375,4.0337,4.0375,4.0471,4.0762,4.1074,4.1152,4.1191,4.1211,4.1211,4.1211,4.1211,4.1211,4.1211,4.1211,4.1211,4.1211,4.125,4.1289,4.1348,4.1308,4.1328,4.1484,4.1719,4.1205,4.1061,4.0667,3.9895,3.8003,3.6801,3.6448,3.5609,3.436,3.3546,3.208,3.0663,3.0047,3.0232,3.011,3.0312,3.0344,3.1426,3.2515,3.3575,3.4812,3.6788,3.8334,3.961,4.0361,4.033,3.9283,3.908,3.7146,3.4348,3.3531,3.1259,3.0875,3.0547,3.0635,3.0782,3.0727,3.0608,3.0664,3.1103,3.1308,3.1561,3.2382,3.2118,3.0427,3.0115,3.0554,3.0305,2.9815,2.9673,3.9726,3.9766,3.9707,3.9668,3.9668,3.9668,3.9414,3.9121,3.9004,3.9023,3.9082,3.9004,3.8965,3.8965,3.8984,3.8926,3.8789,3.875,3.8828,3.8887,3.8555,3.8457,3.8555,3.8789,3.8769,3.8652,3.8906,3.9141,3.916,3.9531,3.9746,3.9863,4.0215,4.041,4.0527,4.082,4.0996,4.0976,4.1152,4.1094,4.1035,4.0996,4.0996,4.0996,4.0996,4.1113,4.1191,4.123,4.1211,4.1211,4.1211,4.1211,4.123,4.123,4.125,4.1269,4.1269,4.1308,4.1367,4.1543,4.166,4.1699,4.1699,4.1776,4.167,4.0543,3.9766,3.9062,3.8187,3.6846,3.6754,3.5162,3.4317,3.3426,3.237,3.124,3.0765,3.0555,3.0394,3.014,3.0429,3.1499,3.3361,3.4848,3.5794,3.7031,3.8649,3.9354,3.9817,4.0352,4.0474,3.8957,3.7238,3.4667,3.1775,3.1711,3.0934,3.1006,3.0822,3.0902,3.1036,3.1102,3.1115,3.1711,3.2407,3.3112,3.3071,3.291,3.2599,3.2491,3.1405,3.0214,3.0114,3.0181,3.0114,3.9805,4.0157,4.0,3.9883,3.9883,3.9883,3.9766,3.959,3.957,3.957,3.957,3.957,3.957,3.9551,3.957,3.957,3.957,3.957,3.9551,3.9492,3.9355,3.9258,3.9238,3.9473,3.9434,3.9434,3.9668,3.959,3.9316,3.9902,4.0176,4.0312,4.0644,4.0859,4.0879,4.1055,4.1211,4.1211,4.1211,4.1211,4.1211,4.1211,4.1211,4.1211,4.125,4.1328,4.1426,4.1289,4.1348,4.1445,4.1328,4.123,4.1289,4.1387,4.1504,4.1504,4.1504,4.1621,4.1777,4.2031,4.2109,4.2129,4.2069,4.1623,4.0906,3.97,3.8086,3.6387,3.5967,3.4756,3.3635,3.2884,3.2407,3.2289,3.1546,3.1072,3.0887,3.0901,3.0897,3.0967,3.2113,3.3866,3.6234,3.7439,3.821,3.9355,4.0499,4.0456,4.0105,3.963,3.947,3.7181,3.5165,3.3618,3.1374,3.1289,3.1149,3.1149,3.1102,3.1183,3.1737,3.2025,3.2752,3.3579,3.4225,3.4939,3.5707,3.5905,3.5273,3.4456,3.3245,3.2118,3.1103,3.0621,3.0501,4.0019,4.0625,4.0293,4.0156,4.0156,4.0156,4.0117,4.0039,4.0019,4.0019,4.0019,4.0019,4.0019,4.0019,4.0019,4.0019,4.0019,4.0019,4.0019,3.998,3.9863,3.9863,3.9883,3.998,3.9941,3.9824,4.0351,4.0234,3.9844,4.0293,4.0586,4.0723,4.1035,4.1211,4.1191,4.1191,4.1211,4.1211,4.1211,4.1211,4.1211,4.125,4.1308,4.1367,4.1387,4.1621,4.1855,4.1699,4.168,4.1777,4.168,4.1504,4.1484,4.1738,4.1953,4.2031,4.1973,4.2129,4.2305,4.2539,4.2558,4.2558,4.2037,4.105,3.9817,3.8342,3.6212,3.327,3.2674,3.2691,3.1674,3.1006,3.1419,3.213,3.2181,3.1974,3.2662,3.2952,3.2981,3.3444,3.4354,3.5151,3.6502,3.8428,3.886,3.8997,4.0123,3.9965,3.943,3.7976,3.7022,3.4695,3.2991,3.2352,3.1504,3.1631,3.1524,3.1483,3.1396,3.141,3.2349,3.3205,3.4228,3.5403,3.6113,3.6889,3.7896,3.8518,3.7682,3.6626,3.5239,3.3653,3.189,3.0962,3.0728,4.1054,4.1132,4.1035,4.1074,4.1035,4.1015,4.0781,4.043,4.0449,4.0411,4.0449,4.0449,4.0449,4.0449,4.0411,4.0449,4.0449,4.0449,4.0449,4.041,4.0176,4.0039,4.0,4.0312,4.0254,4.0215,4.0742,4.0781,4.0508,4.082,4.1055,4.1074,4.1094,4.1211,4.1211,4.1211,4.1211,4.1211,4.1211,4.123,4.1269,4.1523,4.1699,4.1777,4.1992,4.2206,4.2305,4.2207,4.2206,4.2305,4.2285,4.2246,4.2285,4.2265,4.2578,4.2676,4.2617,4.2383,4.2578,4.293,4.282,4.2392,4.1313,4.0326,3.8659,3.6134,3.3395,3.1142,3.0945,3.1413,3.1408,3.1268,3.2292,3.3703,3.4609,3.5761,3.6588,3.418,3.4302,3.4838,3.5437,3.4884,3.5256,3.7431,3.9242,3.9395,3.9373,3.9139,3.835,3.6622,3.5373,3.3228,3.2272,3.1685,3.1543,3.1698,3.1724,3.1724,3.2097,3.1995,3.2608,3.383,3.6172,3.7241,3.7812,3.8486,3.9463,3.9816,3.9649,3.805,3.5697,3.3813,3.2055,3.143,3.0996,4.1211,4.1211,4.1211,4.1211,4.1211,4.1211,4.1113,4.0918,4.0879,4.0898,4.0898,4.0898,4.0898,4.0879,4.0898,4.0879,4.0879,4.0879,4.0879,4.0859,4.0684,4.0586,4.0684,4.0801,4.0742,4.0723,4.0976,4.1113,4.0996,4.1035,4.1211,4.1211,4.1211,4.1211,4.1211,4.1211,4.1211,4.1269,4.1367,4.1387,4.1406,4.1758,4.2051,4.1836,4.2206,4.2499,4.2715,4.2479,4.2598,4.2656,4.2598,4.2558,4.2793,4.3027,4.3359,4.3769,4.3926,4.3691,4.3359,4.3808,4.3263,4.198,4.0602,3.9358,3.6927,3.4036,3.1788,3.081,3.0801,3.149,3.2736,3.3347,3.4916,3.6328,3.739,3.8108,3.8569,3.6375,3.5232,3.588,3.6079,3.5023,3.454,3.659,3.7834,3.7414,3.7145,3.6689,3.5747,3.416,3.3155,3.2272,3.184,3.1651,3.1657,3.1724,3.1751,3.2022,3.3634,3.3417,3.3035,3.4269,3.6573,3.7944,3.821,3.9181,4.0618,4.0232,3.9253,3.7547,3.5685,3.3981,3.232,3.1752,3.1417,4.1211,4.1211,4.1211,4.1211,4.1211,4.1211,4.1211,4.1211,4.1191,4.1211,4.1211,4.1191,4.1191,4.1211,4.1191,4.1152,4.1191,4.1211,4.1211,4.1211,4.1211,4.1152,4.1113,4.1172,4.1172,4.1211,4.1152,4.1191,4.1191,4.1211,4.1211,4.1211,4.1211,4.1211,4.1211,4.123,4.125,4.1445,4.1621,4.168,4.1719,4.2226,4.2344,4.2363,4.2519,4.291,4.3125,4.3144,4.3203,4.3281,4.3223,4.3281,4.3633,4.3789,4.4043,4.4453,4.4766,4.4707,4.4394,4.4282,4.3391,4.1573,3.9123,3.6975,3.3874,3.1533,3.0929,3.1069,3.2213,3.3404,3.4801,3.5893,3.7905,3.9261,4.0349,4.055,4.0271,3.829,3.6745,3.6807,3.6321,3.4134,3.4278,3.5961,3.6429,3.5617,3.4966,3.4496,3.3658,3.2614,3.2276,3.1938,3.1872,3.1805,3.1711,3.1751,3.1764,3.2232,3.386,3.4196,3.3328,3.4506,3.68,3.7742,3.8009,3.8387,3.8904,3.8849,3.8653,3.6993,3.5385,3.4003,3.2772,3.2138,3.1764,4.1211,4.1211,4.1211,4.1211,4.1211,4.1211,4.1211,4.1211,4.1211,4.1211,4.1211,4.1211,4.1211,4.1211,4.1211,4.1211,4.1211,4.1211,4.1211,4.1211,4.1211,4.1211,4.1211,4.1211,4.1211,4.1211,4.1211,4.1211,4.1211,4.1211,4.1211,4.1211,4.1211,4.1211,4.125,4.1289,4.1406,4.1641,4.1875,4.209,4.2285,4.2695,4.299,4.3027,4.332,4.3633,4.3672,4.3828,4.4004,4.4101,4.4023,4.4258,4.4531,4.4512,4.4707,4.5176,4.5527,4.5449,4.5254,4.4927,4.3638,4.0953,3.7581,3.4351,3.202,3.127,3.1062,3.2022,3.361,3.5407,3.6913,3.8449,4.06,4.2337,4.3161,4.318,4.2435,4.0432,3.9037,3.8272,3.6452,3.3996,3.3217,3.4761,3.5192,3.4451,3.4269,3.3792,3.3522,3.2737,3.2447,3.2246,3.2118,3.1984,3.1757,3.1784,3.1904,3.2367,3.3513,3.3469,3.2856,3.4712,3.6994,3.6408,3.6398,3.6795,3.7055,3.6933,3.6692,3.6148,3.5026,3.3455,3.255,3.1948,3.1845,4.1211,4.1211,4.1211,4.1211,4.1211,4.1211,4.1211,4.1211,4.1211,4.1211,4.1211,4.1211,4.1211,4.1211,4.1211,4.1211,4.1211,4.1211,4.1211,4.1211,4.1211,4.1211,4.1211,4.1211,4.1211,4.1211,4.1211,4.1211,4.1211,4.1211,4.1211,4.1211,4.123,4.1211,4.125,4.1445,4.1641,4.1894,4.2246,4.2598,4.2479,4.3086,4.334,4.3125,4.3496,4.3672,4.3711,4.3848,4.4101,4.4336,4.4433,4.4844,4.5293,4.5195,4.5449,4.5894,4.625,4.623,4.5943,4.5532,4.3977,3.9546,3.5654,3.2465,3.1417,3.1705,3.2788,3.4041,3.5486,3.7413,4.0532,4.1649,4.3005,4.508,4.5807,4.5461,4.396,4.1611,3.9347,3.7694,3.5617,3.3255,3.3072,3.3354,3.3458,3.3389,3.3276,3.3187,3.304,3.2919,3.2679,3.2492,3.2398,3.2238,3.2072,3.2051,3.2118,3.268,3.3292,3.3145,3.3119,3.4915,3.6524,3.5632,3.4752,3.497,3.5058,3.5034,3.4699,3.4279,3.3577,3.2624,3.2043,3.1738,3.1845,4.1211,4.1211,4.1211,4.1211,4.1211,4.1211,4.1211,4.1211,4.1211,4.1211,4.1211,4.1211,4.1211,4.1211,4.1211,4.1211,4.1211,4.1211,4.1211,4.1211,4.1211,4.1211,4.1211,4.1211,4.1211,4.1211,4.1211,4.1211,4.1211,4.1211,4.1211,4.125,4.1289,4.1328,4.1269,4.1562,4.1855,4.2148,4.2638,4.3066,4.287,4.334,4.3613,4.3379,4.373,4.3945,4.4082,4.4316,4.4629,4.4785,4.4922,4.5195,4.5547,4.5859,4.6094,4.6479,4.6831,4.6889,4.6639,4.4546,4.2675,3.9121,3.4771,3.2681,3.2222,3.3016,3.4622,3.5842,3.7597,4.0226,4.3878,4.4508,4.5462,4.7292,4.5924,4.5252,4.3452,4.1262,3.8942,3.6777,3.4779,3.3106,3.316,3.3267,3.3293,3.3334,3.3334,3.3293,3.324,3.3106,3.2986,3.2812,3.2679,3.2541,3.2353,3.2412,3.2519,3.2745,3.3266,3.3481,3.3975,3.5402,3.5572,3.4569,3.3783,3.3322,3.3349,3.3699,3.3188,3.242,3.2095,3.1995,3.2022,3.1872,3.1845,4.1211,4.1211,4.1211,4.1211,4.1211,4.1211,4.1211,4.1211,4.1211,4.1211,4.1211,4.1211,4.1211,4.1211,4.1211,4.1211,4.1211,4.1211,4.1211,4.1211,4.1211,4.1211,4.1211,4.1211,4.1211,4.1211,4.1211,4.1211,4.1211,4.1211,4.1211,4.1406,4.1582,4.166,4.1289,4.1601,4.2012,4.2382,4.2891,4.3242,4.3476,4.3633,4.3633,4.3711,4.3926,4.4101,4.4336,4.4726,4.4869,4.465,4.477,4.4866,4.4881,4.5164,4.5474,4.5948,4.662,4.6928,4.6712,4.2136,4.0367,3.9682,3.6299,3.3971,3.3637,3.4875,3.6924,3.8434,4.0938,4.3562,4.5648,4.6885,4.7892,4.7458,4.5965,4.4019,4.2146,4.0472,3.8042,3.591,3.4547,3.3387,3.3387,3.34,3.3387,3.34,3.34,3.3387,3.3347,3.3293,3.3173,3.3106,3.2959,3.2799,3.2666,3.2812,3.2969,3.3098,3.3161,3.3408,3.3503,3.4058,3.3928,3.3347,3.3213,3.3066,3.2799,3.2638,3.2225,3.1957,3.1885,3.1799,3.1898,3.1957,3.1957,4.1211,4.1211,4.1211,4.1211,4.1211,4.1211,4.1211,4.1211,4.1211,4.1211,4.1211,4.1211,4.1211,4.1211,4.1211,4.1211,4.1211,4.1211,4.1211,4.1211,4.1211,4.1211,4.1211,4.1211,4.1211,4.1211,4.1211,4.1211,4.1211,4.125,4.1426,4.1601,4.1992,4.2109,4.2168,4.2402,4.2754,4.291,4.3262,4.3574,4.3691,4.3691,4.3711,4.3711,4.3906,4.4141,4.4433,4.4902,4.4615,4.379,4.3647,4.3092,4.2612,4.2556,4.3885,4.4785,4.5801,4.75,4.6909,4.448,4.2556,4.1359,3.9456,3.7339,3.813,3.8812,4.0233,4.1453,4.348,4.562,4.714,4.7581,4.7856,4.6206,4.4468,4.2178,4.0236,3.8772,3.6868,3.5027,3.345,3.3414,3.3414,3.3414,3.3414,3.3414,3.3414,3.3414,3.3387,3.3387,3.332,3.332,3.3227,3.308,3.3013,3.3053,3.3053,3.3116,3.3129,3.3192,3.3276,3.3387,3.34,3.3374,3.3146,3.2919,3.2599,3.2291,3.1984,3.1744,3.1751,3.1831,3.1957,3.2078,3.2144,4.1211,4.1211,4.1211,4.1211,4.1211,4.1211,4.1211,4.1211,4.1211,4.1211,4.1211,4.1211,4.1211,4.1211,4.1211,4.1211,4.1211,4.1211,4.1211,4.1211,4.1211,4.1211,4.1211,4.1172,4.1211,4.1172,4.1172,4.1211,4.123,4.1367,4.1758,4.2226,4.25,4.2715,4.2851,4.3027,4.3048,4.3144,4.3398,4.3672,4.3691,4.3691,4.3691,4.3769,4.3926,4.418,4.4531,4.4485,4.4028,4.2766,4.1924,4.1086,4.0288,4.0345,4.1984,4.3388,4.5773,4.7547,4.7559,4.7114,4.5713,4.5455,4.2719,4.0976,4.1188,4.1675,4.2799,4.4157,4.5551,4.6727,4.7861,4.8215,4.6512,4.4829,4.2332,4.0077,3.8609,3.7119,3.5734,3.3887,3.3414,3.3414,3.3414,3.3414,3.3414,3.3414,3.3414,3.3414,3.3414,3.3414,3.3414,3.34,3.34,3.3267,3.3187,3.3187,3.3173,3.3146,3.316,3.32,3.3267,3.3414,3.3414,3.3374,3.3146,3.2853,3.2425,3.2091,3.1891,3.177,3.1744,3.1864,3.2064,3.2198,3.2318,4.1211,4.1211,4.1211,4.1211,4.1211,4.1211,4.1211,4.1211,4.1211,4.1211,4.1211,4.1211,4.1211,4.1211,4.1211,4.1211,4.1211,4.1211,4.1211,4.1211,4.1211,4.1211,4.1055,4.088,4.0841,4.1016,4.0938,4.0645,4.1133,4.1758,4.2363,4.2812,4.3008,4.3223,4.3359,4.332,4.3203,4.334,4.3496,4.3691,4.3691,4.3691,4.3769,4.3887,4.4121,4.4551,4.4961,4.5203,4.4296,4.3302,4.2514,4.0926,3.9812,3.913,4.0627,4.3,4.6222,4.7651,4.8548,4.8219,4.8257,4.7411,4.426,4.2178,4.2376,4.4175,4.5194,4.6056,4.7083,4.7725,4.842,4.67,4.4988,4.2608,4.0013,3.8264,3.6923,3.5585,3.4286,3.3414,3.3414,3.3414,3.3414,3.3414,3.3414,3.3414,3.3414,3.3414,3.3414,3.3414,3.3414,3.3414,3.34,3.3414,3.336,3.3307,3.3293,3.3267,3.3307,3.3334,3.34,3.3414,3.3414,3.3334,3.3133,3.2812,3.2345,3.2078,3.1917,3.1851,3.1904,3.2166,3.2358,3.2433,3.2541,4.1211,4.1211,4.1211,4.1211,4.1211,4.1211,4.1211,4.1211,4.1211,4.1211,4.1211,4.1211,4.1211,4.1211,4.1211,4.1211,4.1211,4.1211,4.1211,4.1211,4.1211,4.1211,4.0685,3.9943,4.006,4.0217,4.0137,4.0016,4.1482,4.2266,4.2695,4.3047,4.334,4.3574,4.3613,4.3574,4.3516,4.3516,4.3652,4.3711,4.373,4.373,4.3887,4.418,4.4277,4.4766,4.5332,4.5566,4.4578,4.3057,4.2621,4.0898,3.6698,3.9511,4.2793,4.5806,4.7483,4.8281,4.8776,4.8894,4.8894,4.8848,4.683,4.7035,4.6924,4.6822,4.7353,4.7791,4.7539,4.7651,4.6682,4.4984,4.2863,4.0223,3.7968,3.6657,3.5451,3.4571,3.3414,3.3414,3.3414,3.3414,3.3414,3.3414,3.3414,3.3414,3.3414,3.3414,3.3414,3.3414,3.3414,3.3414,3.3414,3.3414,3.3414,3.3374,3.3387,3.34,3.3414,3.3414,3.3414,3.3414,3.3414,3.3144,3.2683,3.2447,3.2225,3.1845,3.1142,3.1912,3.2101,3.2425,3.2625,3.2274,3.1861,4.1211,4.1211,4.1211,4.1211,4.1211,4.1211,4.1211,4.1211,4.1211,4.1211,4.1211,4.1211,4.1211,4.1211,4.1211,4.1211,4.1211,4.1211,4.1211,4.1211,4.1211,4.1211,4.0431,3.9295,3.9531,3.9688,3.9666,3.9403,4.1339,4.2617,4.3146,4.3359,4.3633,4.3672,4.3691,4.3672,4.3672,4.3672,4.3711,4.3808,4.3848,4.3828,4.4082,4.4492,4.4531,4.4941,4.5566,4.5683,4.4597,4.2657,4.2085,4.0084,3.7483,4.0765,4.3416,4.5996,4.7515,4.8196,4.8796,4.8894,4.8894,4.857,4.793,4.7102,4.7474,4.7493,4.8181,4.8617,4.7632,4.6616,4.4937,4.3054,4.0416,3.7738,3.6425,3.5118,3.4336,3.36,3.3414,3.3414,3.3414,3.3414,3.3414,3.3414,3.3414,3.3414,3.3414,3.3414,3.3414,3.3414,3.3414,3.3414,3.3414,3.3414,3.3414,3.3414,3.3414,3.3414,3.3414,3.3414,3.3414,3.3414,3.3414,3.2791,3.1972,3.1747,3.1425,3.0659,3.0147,3.115,3.1894,3.1904,3.1606,3.0864,3.0451,4.1211,4.1211,4.1211,4.1211,4.1211,4.1211,4.1211,4.1211,4.1211,4.1211,4.1211,4.1211,4.1211,4.1211,4.1211,4.1211,4.1211,4.1211,4.1211,4.1211,4.1211,4.1211,4.0548,3.9256,3.9413,3.9746,3.9606,3.8982,4.1097,4.2472,4.3275,4.3526,4.3691,4.3711,4.3691,4.3691,4.3711,4.3711,4.3848,4.3984,4.4141,4.4121,4.4141,4.4844,4.4902,4.4941,4.5527,4.5435,4.4753,4.2602,4.0988,3.963,4.0498,4.1622,4.364,4.5463,4.7473,4.8267,4.8519,4.832,4.8134,4.7446,4.6242,4.5126,4.5267,4.5896,4.6336,4.6336,4.5191,4.3927,4.229,4.0609,3.8246,3.6425,3.5068,3.4286,3.38,3.3414,3.3414,3.3414,3.3414,3.3414,3.3414,3.3414,3.3414,3.3414,3.3414,3.3414,3.3414,3.3414,3.3414,3.3414,3.3414,3.3414,3.3414,3.3414,3.3414,3.3414,3.3414,3.3414,3.3414,3.3414,3.3414,3.2868,3.2337,3.0964,3.028,3.0291,3.0559,3.0834,3.1344,3.1235,3.069,2.9845,2.8781,4.1211,4.1211,4.1211,4.1211,4.1211,4.1211,4.1211,4.1211,4.1211,4.1211,4.1211,4.1211,4.1211,4.1211,4.1211,4.1211,4.1211,4.1211,4.1211,4.1211,4.1211,4.1211,4.0763,3.9119,3.9413,3.9825,3.9507,3.8948,4.0518,4.207,4.2732,4.1686,4.2576,4.3691,4.3691,4.3691,4.373,4.3808,4.4043,4.4258,4.4433,4.4512,4.4609,4.5215,4.541,4.5527,4.5957,4.6046,4.4668,4.2818,4.2264,4.1957,4.2376,4.3315,4.4975,4.6946,4.7926,4.8211,4.7919,4.7008,4.6055,4.5191,4.3879,4.2768,4.2338,4.2816,4.3024,4.2928,4.2338,4.1091,3.9739,3.8099,3.6509,3.5104,3.39,3.365,3.3414,3.3414,3.3414,3.3414,3.3414,3.3414,3.3414,3.3414,3.3414,3.3414,3.3414,3.3414,3.3414,3.3414,3.3414,3.3414,3.3414,3.3414,3.3414,3.3414,3.3414,3.3414,3.3414,3.3414,3.325,3.3364,3.3364,3.335,3.2794,3.1239,3.0715,3.1892,3.2027,3.1275,3.1362,3.1513,3.0036,2.8905,2.7505,4.1211,4.1211,4.1211,4.1211,4.1211,4.1211,4.1211,4.1211,4.1211,4.1211,4.1211,4.1211,4.1211,4.1211,4.1211,4.1211,4.1211,4.1211,4.1211,4.1211,4.1211,4.1211,4.0314,3.9177,3.9786,4.0216,4.0477,4.0511,4.0771,4.2198,4.2908,4.1932,4.3176,4.3691,4.3691,4.3711,4.3848,4.4043,4.4297,4.457,4.4785,4.4883,4.5137,4.5683,4.5859,4.5996,4.6152,4.6158,4.4782,4.3444,4.2712,4.2021,4.2721,4.4417,4.653,4.7508,4.773,4.7148,4.6476,4.5079,4.3452,4.2529,4.0947,3.9593,3.9059,3.9496,4.0126,4.0029,3.9884,3.8734,3.7953,3.6509,3.5253,3.395,3.36,3.3464,3.3414,3.3414,3.3414,3.3414,3.3414,3.3414,3.3414,3.3414,3.3414,3.3414,3.3414,3.3414,3.3414,3.3414,3.3414,3.3414,3.3414,3.3414,3.3414,3.3414,3.3414,3.3414,3.3414,3.2435,3.1982,3.2849,3.3314,3.2472,3.1755,3.1027,3.1027,3.206,3.1551,3.035,3.1027,3.1903,3.0119,2.8291,2.6495,4.1211,4.1211,4.1211,4.1211,4.1211,4.1211,4.1211,4.1211,4.1211,4.1211,4.1211,4.1211,4.1211,4.1211,4.1211,4.1211,4.1211,4.1211,4.1211,4.1211,4.1211,4.1211,4.0626,3.9685,4.0427,4.1187,4.1711,4.1735,4.1767,4.2985,4.3567,4.3485,4.3567,4.3691,4.3711,4.3828,4.3984,4.4297,4.4629,4.5019,4.5215,4.5351,4.5664,4.5879,4.6016,4.5996,4.6191,4.5939,4.487,4.3187,4.2197,4.2123,4.3199,4.5316,4.6592,4.7599,4.6374,4.5408,4.4163,4.2195,4.1187,4.0078,3.8002,3.679,3.6362,3.6559,3.7134,3.7233,3.7085,3.6756,3.5932,3.5302,3.4136,3.3464,3.3414,3.3414,3.3414,3.3414,3.3414,3.3414,3.3414,3.3414,3.3414,3.3414,3.3414,3.3414,3.3414,3.3414,3.3414,3.3414,3.3414,3.3414,3.3414,3.3414,3.3414,3.3414,3.3414,3.3414,3.315,3.1617,3.0911,3.2234,3.2284,3.0521,2.9855,3.0876,3.0901,3.1427,3.0574,3.0333,3.134,3.2344,3.1001,2.8901,2.5871,4.1211,4.1211,4.1211,4.1211,4.1211,4.1211,4.1211,4.1211,4.1211,4.1211,4.1211,4.1211,4.1211,4.1211,4.1211,4.1211,4.1211,4.1211,4.1211,4.1211,4.1289,4.125,4.1133,4.0776,4.1459,4.2107,4.2396,4.1914,4.2182,4.3021,4.2803,4.1598,4.3339,4.3709,4.3789,4.3984,4.4355,4.4648,4.5058,4.5488,4.559,4.5683,4.5859,4.6074,4.623,4.623,4.6289,4.6308,4.3593,4.1291,4.0532,4.166,4.338,4.5584,4.6724,4.6066,4.489,4.3292,4.1668,3.9448,3.8344,3.7855,3.6016,3.472,3.4422,3.4422,3.477,3.477,3.467,3.467,3.4136,3.4136,3.3414,3.3414,3.3414,3.3414,3.3414,3.3414,3.3414,3.3414,3.3414,3.3414,3.3414,3.3414,3.3414,3.3414,3.3414,3.3414,3.3414,3.3414,3.3414,3.3414,3.3414,3.3414,3.3414,3.3414,3.3414,3.3414,3.2749,3.0899,3.0495,3.2133,3.1605,2.9194,3.0634,3.2496,3.232,3.1717,3.2056,3.2158,3.2622,3.2836,3.1466,2.951,2.6434]},{"header":{"parameterUnit":"m.s-1","parameterCategory":1,"la1":31.0,"la2":29.5877,"lo1":-88.7671,"lo2":-86.6584,"dy":0.0162,"dx":0.0185,"nx":115,"ny":88,"refTime":"2024-10-06T18:00:00:Z","depth":0,"parameterNumber":3,"parameterNumberName":"V-component_of_WINDS"},"data":[0.0,0.0,0.0,0.0,0.0,0.0,0.0,0.0,0.0,0.0,0.0,0.0,0.0,0.0,0.0,0.0,0.0,0.0,0.0,0.0,0.0,0.0,0.0,0.0,0.0,0.0,0.0,0.0,0.0,0.0,0.0,0.0,0.0,0.0,0.0,0.0,0.0,0.0,0.0,0.0,0.0,0.0,0.0,0.0,0.0,0.0,0.0,0.0,0.0,0.0,0.0,0.0,0.0,0.0,0.0,0.0,0.0,0.0,0.0,0.0,0.0,0.0,0.0,0.0,0.0,0.0,0.0,0.0,0.0,0.0,0.0,0.0,0.0,0.0,0.0,0.0,0.0,0.0,0.0,0.0,0.0,0.0,0.0,0.0,0.0,0.0,0.0,0.0,0.0,0.0,0.0,0.0,0.0,0.0,0.0,0.0,0.0,0.0,0.0,0.0,0.0,0.0,0.0,0.0,0.0,0.0,0.0,0.0,0.0,0.0,0.0,0.0,0.0,0.0,0.0,0.0,0.0,0.0,0.0,0.0,0.0,0.0,0.0,0.0,0.0,0.0,0.0,0.0,0.0,0.0,0.0,0.0,0.0,0.0,0.0,0.0,0.0,0.0,0.0,0.0,0.0,0.0,0.0,0.0,0.0,0.0,0.0,0.0,0.0,0.0,0.0,0.0,0.0,0.0,0.0,0.0,0.0,0.0,0.0,0.0,0.0,0.0,0.0,0.0,0.0,0.0,0.0,0.0,0.0,0.0,0.0,0.0,0.0,0.0,0.0,0.0,0.0,0.0,0.0,0.0,0.0,0.0,0.0,0.0,0.0,0.0,0.0,0.0,0.0,0.0,0.0,0.0,0.0,0.0,0.0,0.0,0.0,0.0,0.0,0.0,0.0,0.0,0.0,0.0,0.0,0.0,0.0,0.0,0.0,0.0,0.0,0.0,0.0,0.0,0.0,0.0,0.0,0.0,0.0,0.0,0.0,0.0,0.0,0.0,0.0,0.0,0.0,0.0,0.0,0.0,0.0,0.0,0.0,0.0,0.0,0.0,0.0,0.0,0.0,0.0,0.0,0.0,0.0,0.0,0.0,0.0,0.0,0.0,0.0,0.0,0.0,0.0,0.0,0.0,0.0,0.0,0.0,0.0,0.0,0.0,0.0,0.0,0.0,0.0,0.0,0.0,0.0,0.0,0.0,0.0,0.0,0.0,0.0,0.0,0.0,0.0,0.0,0.0,0.0,0.0,0.0,0.0,0.0,0.0,0.0,0.0,0.0,0.0,0.0,0.0,0.0,0.0,0.0,0.0,0.0,0.0,0.0,0.0,0.0,0.0,0.0,0.0,0.0,0.0,0.0,0.0,0.0,0.0,0.0,0.0,0.0,0.0,0.0,0.0,0.0,0.0,0.0,0.0,0.0,0.0,0.0,0.0,0.0,0.0,0.0,0.0,0.0,0.0,0.0,0.0,0.0,0.0,0.0,0.0,0.0,0.0,0.0,0.0,0.0,0.0,0.0,0.0,0.0,0.0,0.0,0.0,0.0,0.0,0.0,0.0,0.0,0.0,0.0,0.0,0.0,0.0,0.0,0.0,0.0,0.0,0.0,0.0,0.0,0.0,0.0,0.0,0.0,0.0,0.0,0.0,0.0,0.0,0.0,0.0,0.0,0.0,0.0,0.0,0.0,0.0,0.0,0.0,0.0,0.0,0.0,0.0,0.0,0.0,0.0,0.0,0.0,0.0,0.0,0.0,0.0,0.0,0.0,0.0,0.0,0.0,0.0,0.0,0.0,0.0,0.0,0.0,0.0,0.0,0.0,0.0,0.0,0.0,0.0,0.0,0.0,0.0,0.0,0.0,0.0,0.0,0.0,0.0,0.0,0.0,0.0,0.0,0.0,0.0,0.0,0.0,0.0,0.0,0.0,0.0,0.0,0.0,0.0,0.0,0.0,0.0,0.0,0.0,0.0,0.0,0.0,0.0,0.0,0.0,0.0,0.0,0.0,0.0,0.0,0.0,0.0,0.0,0.0,0.0,0.0,0.0,0.0,0.0,0.0,0.0,0.0,0.0,0.0,0.0,0.0,0.0,0.0,0.0,0.0,0.0,0.0,0.0,0.0,0.0,0.0,0.0,0.0,0.0,0.0,0.0,0.0,0.0,0.0,0.0,0.0,0.0,0.0,0.0,0.0,0.0,0.0,0.0,0.0,0.0,0.0,0.0,0.0,0.0,0.0,0.0,0.0,0.0,0.0,0.0,0.0,0.0,0.0,0.0,0.0,0.0,0.0,0.0,0.0,0.0,0.0,0.0,0.0,0.0,0.0,0.0,0.0,0.0,0.0,0.0,0.0,0.0,0.0,0.0,0.0,0.0,0.0,0.0,0.0,0.0,0.0,0.0,0.0,0.0,0.0,0.0,0.0,0.0,0.0,0.0,0.0,0.0,0.0,0.0,0.0,0.0,0.0,0.0,0.0,0.0,0.0,0.0,0.0,0.0,0.0,0.0,0.0,0.0,0.0,0.0,0.0,0.0,0.0,0.0,0.0,0.0,0.0,0.0,0.0,0.0,0.0,0.0,0.0,0.0,0.0,0.0,0.0,0.0,0.0,0.0,0.0,0.0,0.0,0.0,0.0,0.0,0.0,0.0,0.0,0.0,0.0,0.0,0.0,0.0,0.0,0.0,0.0,0.0,0.0,0.0,0.0,0.0,0.0,0.0,0.0,0.0,0.0,0.0,0.0,0.0,0.0,0.0,0.0,0.0,0.0,0.0,0.0,0.0,0.0,0.0,0.0,0.0,0.0,0.0,0.0,0.0,0.0,0.0,0.0,0.0,0.0,0.0,0.0,0.0,0.0,0.0,0.0,0.0,0.0,0.0,0.0,0.0,0.0,0.0,0.0,0.0,0.0,0.0,0.0,0.0,0.0,0.0,0.0,0.0,0.0,0.0,0.0,0.0,0.0,0.0,0.0,0.0,0.0,0.0,0.0,0.0,0.0,0.0,0.0,0.0,0.0,0.0,0.0,0.0,0.0,0.0,0.0,0.0,0.0,0.0,0.0,0.0,0.0,0.0,0.0,0.0,0.0,0.0,0.0,0.0,0.0,0.0,0.0,0.0,0.0,0.0,0.0,0.0,0.0,0.0,0.0,0.0,0.0,0.0,0.0,0.0,0.0,0.0,0.0,0.0,0.0,0.0,0.0,0.0,0.0,0.0,0.0,0.0,0.0,0.0,0.0,0.0,0.0,0.0,0.0,0.0,0.0,0.0,0.0,0.0,0.0,0.0,0.0,0.0,0.0,0.0,0.0,0.0,0.0,0.0,0.0,0.0,0.0,0.0,0.0,0.0,0.0,0.0,0.0,0.0,0.0,0.0,0.0,0.0,0.0,0.0,0.0,0.0,0.0,0.0,0.0,0.0,0.0,0.0,0.0,0.0,0.0,0.0,0.0,0.0,0.0,0.0,0.0,0.0,0.0,0.0,0.0,0.0,0.0,0.0,0.0,0.0,0.0,0.0,0.0,0.0,0.0,0.0,0.0,0.0,0.0,0.0,0.0,0.0,0.0,0.0,0.0,0.0,0.0,0.0,0.0,0.0,0.0,0.0,0.0,0.0,0.0,0.0,0.0,0.0,0.0,0.0,0.0,0.0,0.0,0.0,0.0,0.0,0.0,0.0,0.0,0.0,0.0,0.0,0.0,0.0,0.0,0.0,0.0,0.0,0.0,0.0,0.0,0.0,0.0,0.0,0.0,0.0,0.0,0.0,0.0,0.0,0.0,0.0,0.0,0.0,0.0,0.0,0.0,0.0,0.0,0.0,0.0,0.0,0.0,0.0,0.0,0.0,0.0,0.0,0.0,0.0,0.0,0.0,0.0,0.0,0.0,0.0,0.0,0.0,0.0,0.0,0.0,0.0,0.0,0.0,0.0,0.0,0.0,0.0,0.0,0.0,0.0,0.0,0.0,0.0,0.0,0.0,0.0,0.0,0.0,0.0,0.0,0.0,0.0,0.0,0.0,0.0,0.0,0.0,0.0,0.0,0.0,0.0,0.0,0.0,0.0,0.0,0.0,0.0,0.0,0.0,0.0,0.0,0.0,0.0,0.0,0.0,0.0,0.0,0.0,0.0,0.0,0.0,0.0,0.0,0.0,0.0,0.0,0.0,0.0,0.0,0.0,0.0,0.0,0.0,0.0,0.0,0.0,0.0,0.0,0.0,0.0,0.0,0.0,0.0,0.0,0.0,0.0,0.0,0.0,0.0,0.0,0.0,0.0,0.0,0.0,0.0,3.5459,0.0,0.0,0.0,0.0,0.0,0.0,0.0,0.0,0.0,0.0,0.0,0.0,0.0,0.0,0.0,0.0,0.0,0.0,0.0,0.0,0.0,0.0,0.0,0.0,0.0,0.0,0.0,0.0,0.0,0.0,0.0,0.0,0.0,0.0,0.0,0.0,0.0,0.0,0.0,0.0,0.0,0.0,0.0,0.0,0.0,0.0,0.0,0.0,0.0,0.0,0.0,0.0,0.0,0.0,0.0,0.0,0.0,0.0,0.0,0.0,0.0,0.0,0.0,0.0,0.0,0.0,0.0,0.0,0.0,0.0,0.0,0.0,0.0,0.0,0.0,0.0,0.0,0.0,0.0,0.0,0.0,0.0,0.0,0.0,0.0,0.0,0.0,0.0,0.0,0.0,0.0,0.0,0.0,0.0,0.0,0.0,0.0,0.0,0.0,0.0,0.0,0.0,0.0,0.0,0.0,0.0,0.0,0.0,0.0,0.0,3.5489,3.5489,3.5489,3.534,3.4937,0.0,0.0,0.0,0.0,0.0,0.0,0.0,0.0,0.0,0.0,0.0,0.0,0.0,0.0,0.0,0.0,0.0,0.0,0.0,0.0,0.0,0.0,0.0,0.0,0.0,0.0,0.0,0.0,0.0,0.0,0.0,0.0,0.0,0.0,0.0,0.0,0.0,0.0,0.0,0.0,0.0,0.0,0.0,0.0,0.0,0.0,0.0,0.0,0.0,0.0,0.0,0.0,0.0,0.0,0.0,0.0,0.0,0.0,0.0,0.0,0.0,0.0,0.0,0.0,0.0,0.0,0.0,0.0,0.0,0.0,0.0,0.0,0.0,0.0,0.0,0.0,0.0,0.0,0.0,0.0,0.0,0.0,0.0,0.0,0.0,0.0,0.0,0.0,0.0,0.0,0.0,0.0,0.0,0.0,0.0,0.0,0.0,0.0,0.0,0.0,0.0,0.0,0.0,0.0,0.0,0.0,0.0,0.0,0.0,0.0,0.0,0.0,3.5998,3.5549,3.4757,0.0,0.0,0.0,0.0,0.0,0.0,0.0,0.0,0.0,0.0,0.0,0.0,0.0,0.0,0.0,0.0,0.0,0.0,0.0,0.0,0.0,0.0,0.0,0.0,0.0,0.0,0.0,0.0,0.0,0.0,0.0,0.0,0.0,0.0,0.0,0.0,0.0,0.0,0.0,0.0,0.0,0.0,0.0,0.0,0.0,0.0,0.0,0.0,0.0,0.0,0.0,0.0,0.0,0.0,0.0,0.0,0.0,0.0,0.0,0.0,0.0,0.0,0.0,0.0,0.0,0.0,0.0,0.0,0.0,0.0,0.0,0.0,0.0,0.0,0.0,0.0,0.0,0.0,0.0,0.0,0.0,0.0,0.0,0.0,0.0,0.0,0.0,0.0,0.0,0.0,0.0,0.0,0.0,0.0,0.0,0.0,0.0,0.0,0.0,0.0,0.0,0.0,0.0,0.0,0.0,0.0,0.0,0.0,0.0,0.0,3.6327,3.8063,3.7524,0.0,3.5549,0.0,0.0,0.0,0.0,0.0,0.0,0.0,0.0,0.0,0.0,0.0,0.0,0.0,0.0,0.0,0.0,0.0,0.0,0.0,0.0,0.0,0.0,0.0,0.0,0.0,0.0,0.0,0.0,0.0,0.0,0.0,0.0,0.0,0.0,0.0,0.0,0.0,0.0,0.0,0.0,0.0,0.0,0.0,0.0,0.0,0.0,0.0,0.0,0.0,0.0,0.0,0.0,0.0,0.0,0.0,0.0,0.0,0.0,0.0,0.0,0.0,0.0,0.0,0.0,0.0,0.0,0.0,0.0,0.0,0.0,0.0,0.0,0.0,0.0,0.0,0.0,0.0,0.0,0.0,0.0,0.0,0.0,0.0,0.0,0.0,0.0,0.0,0.0,0.0,0.0,0.0,0.0,0.0,0.0,0.0,0.0,0.0,0.0,0.0,0.0,0.0,0.0,0.0,0.0,0.0,0.0,0.0,0.0,0.0,0.0,0.0,3.7793,3.6806,3.6028,0.0,0.0,0.0,0.0,0.0,0.0,0.0,0.0,0.0,0.0,0.0,0.0,0.0,0.0,0.0,0.0,0.0,0.0,0.0,0.0,0.0,0.0,0.0,0.0,0.0,0.0,0.0,0.0,0.0,0.0,0.0,0.0,0.0,0.0,0.0,0.0,0.0,0.0,0.0,0.0,0.0,0.0,0.0,0.0,0.0,0.0,0.0,0.0,0.0,0.0,0.0,0.0,0.0,0.0,0.0,0.0,0.0,0.0,0.0,0.0,0.0,0.0,0.0,0.0,0.0,0.0,0.0,0.0,0.0,0.0,0.0,0.0,0.0,0.0,0.0,0.0,0.0,0.0,0.0,0.0,0.0,0.0,0.0,0.0,0.0,0.0,0.0,0.0,0.0,0.0,0.0,0.0,0.0,0.0,0.0,0.0,0.0,0.0,0.0,0.0,0.0,0.0,0.0,0.0,0.0,0.0,0.0,0.0,0.0,0.0,3.7208,0.0,3.7896,3.7255,3.6357,3.525,0.0,0.0,0.0,0.0,0.0,0.0,0.0,0.0,0.0,0.0,0.0,0.0,0.0,0.0,0.0,0.0,0.0,0.0,0.0,0.0,0.0,0.0,0.0,0.0,0.0,0.0,0.0,0.0,0.0,0.0,0.0,0.0,0.0,0.0,0.0,0.0,0.0,0.0,0.0,0.0,0.0,0.0,0.0,0.0,0.0,0.0,0.0,0.0,0.0,0.0,0.0,0.0,0.0,0.0,0.0,0.0,0.0,0.0,0.0,0.0,0.0,0.0,0.0,0.0,0.0,0.0,0.0,0.0,0.0,0.0,0.0,0.0,0.0,0.0,0.0,0.0,0.0,0.0,0.0,0.0,0.0,0.0,0.0,0.0,0.0,0.0,0.0,0.0,0.0,0.0,0.0,0.0,0.0,0.0,0.0,0.0,0.0,0.0,0.0,0.0,0.0,0.0,0.0,0.0,0.0,0.0,0.0,0.0,0.0,3.8332,3.8015,3.9272,3.9858,3.8392,0.0,0.0,0.0,0.0,0.0,0.0,0.0,0.0,0.0,0.0,0.0,0.0,0.0,0.0,0.0,0.0,0.0,0.0,0.0,0.0,0.0,0.0,0.0,0.0,0.0,0.0,0.0,0.0,0.0,0.0,0.0,0.0,0.0,0.0,0.0,0.0,0.0,0.0,0.0,0.0,0.0,0.0,0.0,0.0,0.0,0.0,0.0,0.0,0.0,0.0,0.0,0.0,0.0,0.0,0.0,0.0,0.0,0.0,0.0,0.0,0.0,0.0,0.0,0.0,0.0,0.0,0.0,0.0,0.0,0.0,0.0,0.0,0.0,0.0,0.0,0.0,0.0,0.0,0.0,0.0,0.0,0.0,0.0,0.0,0.0,0.0,0.0,0.0,0.0,0.0,0.0,0.0,0.0,0.0,0.0,0.0,0.0,0.0,0.0,0.0,0.0,0.0,0.0,0.0,0.0,0.0,0.0,0.0,0.0,3.6523,3.7105,3.8452,4.0487,3.8482,3.6776,0.0,0.0,0.0,0.0,0.0,0.0,0.0,0.0,0.0,0.0,0.0,0.0,0.0,0.0,0.0,0.0,0.0,0.0,0.0,0.0,0.0,0.0,0.0,0.0,0.0,0.0,0.0,0.0,0.0,0.0,0.0,0.0,0.0,0.0,0.0,0.0,0.0,0.0,0.0,0.0,0.0,0.0,0.0,0.0,0.0,0.0,0.0,0.0,0.0,0.0,0.0,0.0,0.0,0.0,0.0,0.0,0.0,0.0,0.0,0.0,0.0,0.0,0.0,0.0,0.0,0.0,0.0,0.0,0.0,0.0,0.0,0.0,0.0,0.0,0.0,0.0,0.0,0.0,0.0,0.0,0.0,0.0,0.0,0.0,0.0,0.0,0.0,0.0,0.0,0.0,0.0,0.0,0.0,0.0,0.0,0.0,0.0,0.0,0.0,0.0,0.0,0.0,0.0,0.0,0.0,0.0,0.0,0.0,0.0,3.4975,0.0,3.8486,0.0,3.7459,3.5729,0.0,0.0,0.0,0.0,0.0,0.0,0.0,0.0,0.0,0.0,0.0,0.0,0.0,0.0,0.0,0.0,0.0,0.0,0.0,0.0,0.0,0.0,0.0,0.0,0.0,0.0,0.0,0.0,0.0,0.0,0.0,0.0,0.0,0.0,0.0,0.0,0.0,0.0,0.0,0.0,0.0,0.0,0.0,0.0,0.0,0.0,0.0,0.0,0.0,0.0,0.0,0.0,0.0,0.0,0.0,0.0,0.0,0.0,0.0,0.0,0.0,0.0,0.0,0.0,0.0,0.0,0.0,0.0,0.0,0.0,0.0,0.0,0.0,0.0,0.0,0.0,0.0,0.0,0.0,0.0,0.0,0.0,0.0,0.0,0.0,0.0,0.0,0.0,0.0,0.0,0.0,0.0,0.0,0.0,0.0,0.0,0.0,0.0,0.0,0.0,0.0,0.0,0.0,0.0,0.0,0.0,0.0,0.0,3.3579,3.5769,3.7594,3.8073,3.694,3.7175,3.5533,0.0,0.0,0.0,0.0,0.0,0.0,0.0,0.0,0.0,0.0,0.0,0.0,0.0,0.0,0.0,0.0,0.0,0.0,0.0,0.0,0.0,0.0,0.0,0.0,0.0,0.0,0.0,0.0,0.0,0.0,0.0,0.0,0.0,0.0,0.0,0.0,0.0,0.0,0.0,0.0,0.0,0.0,0.0,0.0,0.0,0.0,0.0,0.0,0.0,0.0,0.0,0.0,0.0,0.0,0.0,0.0,0.0,0.0,0.0,0.0,0.0,0.0,0.0,0.0,0.0,0.0,0.0,0.0,0.0,0.0,0.0,0.0,0.0,0.0,0.0,0.0,0.0,0.0,0.0,0.0,0.0,0.0,0.0,0.0,0.0,0.0,0.0,0.0,0.0,0.0,0.0,0.0,0.0,0.0,0.0,0.0,0.0,0.0,0.0,0.0,0.0,0.0,0.0,0.0,0.0,0.0,0.0,0.0,0.0,3.4052,3.6494,3.8268,3.9151,3.6743,3.5266,0.0,0.0,0.0,0.0,0.0,0.0,0.0,0.0,0.0,0.0,0.0,0.0,0.0,0.0,0.0,0.0,0.0,0.0,0.0,0.0,0.0,0.0,0.0,0.0,0.0,0.0,0.0,0.0,0.0,0.0,0.0,0.0,0.0,0.0,0.0,0.0,0.0,0.0,0.0,0.0,0.0,0.0,0.0,0.0,0.0,0.0,0.0,0.0,0.0,0.0,0.0,0.0,0.0,0.0,0.0,0.0,0.0,0.0,0.0,0.0,0.0,0.0,0.0,0.0,0.0,0.0,0.0,0.0,0.0,0.0,0.0,0.0,0.0,0.0,0.0,0.0,0.0,0.0,0.0,0.0,0.0,0.0,0.0,0.0,0.0,0.0,0.0,0.0,0.0,0.0,0.0,0.0,0.0,0.0,0.0,0.0,0.0,0.0,0.0,0.0,0.0,0.0,0.0,0.0,0.0,0.0,0.0,0.0,0.0,3.3853,3.6662,3.862,3.9424,3.6918,3.5506,3.531,0.0,0.0,0.0,0.0,0.0,0.0,0.0,0.0,0.0,0.0,0.0,0.0,0.0,0.0,0.0,0.0,0.0,0.0,0.0,0.0,0.0,0.0,0.0,0.0,0.0,0.0,0.0,0.0,0.0,0.0,0.0,0.0,0.0,0.0,0.0,0.0,0.0,0.0,0.0,0.0,0.0,0.0,0.0,0.0,0.0,0.0,0.0,0.0,0.0,0.0,0.0,0.0,0.0,0.0,0.0,0.0,0.0,0.0,0.0,0.0,0.0,0.0,0.0,0.0,0.0,0.0,0.0,0.0,0.0,0.0,0.0,0.0,0.0,0.0,0.0,0.0,0.0,0.0,0.0,0.0,0.0,0.0,0.0,0.0,0.0,0.0,0.0,0.0,0.0,0.0,0.0,0.0,0.0,0.0,0.0,0.0,0.0,0.0,0.0,0.0,0.0,0.0,0.0,0.0,0.0,0.0,0.0,0.0,3.4799,3.8042,3.9226,3.8101,3.7618,3.6221,0.0,0.0,0.0,0.0,0.0,0.0,0.0,0.0,0.0,0.0,0.0,0.0,0.0,0.0,0.0,0.0,0.0,0.0,0.0,0.0,0.0,0.0,0.0,0.0,0.0,0.0,0.0,0.0,0.0,0.0,0.0,0.0,0.0,0.0,0.0,0.0,0.0,0.0,0.0,0.0,0.0,0.0,0.0,0.0,0.0,0.0,0.0,0.0,0.0,0.0,0.0,0.0,0.0,0.0,0.0,0.0,0.0,0.0,0.0,0.0,0.0,0.0,0.0,0.0,0.0,0.0,0.0,0.0,0.0,0.0,0.0,0.0,0.0,0.0,0.0,0.0,0.0,0.0,0.0,0.0,0.0,0.0,0.0,0.0,0.0,0.0,0.0,0.0,0.0,0.0,0.0,0.0,0.0,0.0,0.0,0.0,0.0,0.0,0.0,0.0,0.0,0.0,0.0,0.0,0.0,0.0,0.0,0.0,0.0,3.6186,3.9761,4.1299,4.044,3.8477,3.6866,0.0,0.0,0.0,0.0,0.0,0.0,0.0,0.0,0.0,0.0,0.0,0.0,0.0,0.0,0.0,0.0,0.0,0.0,0.0,0.0,0.0,0.0,0.0,0.0,0.0,0.0,0.0,0.0,0.0,0.0,0.0,0.0,0.0,0.0,0.0,0.0,0.0,0.0,0.0,0.0,0.0,0.0,0.0,0.0,0.0,0.0,0.0,0.0,0.0,0.0,0.0,0.0,0.0,0.0,0.0,0.0,0.0,0.0,0.0,0.0,0.0,0.0,0.0,0.0,0.0,0.0,0.0,0.0,0.0,0.0,0.0,0.0,0.0,0.0,0.0,0.0,0.0,0.0,0.0,0.0,0.0,0.0,0.0,0.0,0.0,0.0,0.0,0.0,0.0,0.0,0.0,0.0,0.0,0.0,0.0,0.0,0.0,0.0,0.0,0.0,0.0,0.0,0.0,0.0,0.0,0.0,0.0,0.0,3.5919,3.7591,4.0989,4.2331,4.1433,3.9888,3.826,0.0,0.0,0.0,0.0,0.0,0.0,0.0,0.0,0.0,0.0,0.0,0.0,0.0,0.0,0.0,0.0,0.0,0.0,0.0,0.0,0.0,0.0,0.0,0.0,0.0,0.0,0.0,0.0,0.0,0.0,0.0,0.0,0.0,0.0,0.0,0.0,0.0,0.0,0.0,0.0,0.0,0.0,0.0,0.0,0.0,0.0,0.0,0.0,0.0,0.0,0.0,0.0,0.0,0.0,0.0,0.0,0.0,0.0,0.0,0.0,0.0,0.0,0.0,0.0,0.0,0.0,0.0,0.0,0.0,0.0,0.0,0.0,0.0,0.0,0.0,0.0,0.0,0.0,0.0,0.0,0.0,0.0,0.0,0.0,0.0,0.0,0.0,0.0,0.0,0.0,0.0,0.0,0.0,0.0,0.0,0.0,0.0,0.0,0.0,0.0,0.0,0.0,0.0,0.0,0.0,0.0,0.0,0.0,3.69,3.8987,4.1755,4.2641,4.1463,4.1343,3.9787,0.0,0.0,0.0,0.0,0.0,0.0,0.0,0.0,0.0,0.0,0.0,0.0,0.0,0.0,0.0,0.0,0.0,0.0,0.0,0.0,0.0,0.0,0.0,0.0,0.0,0.0,0.0,0.0,0.0,0.0,0.0,0.0,0.0,0.0,0.0,0.0,0.0,0.0,0.0,0.0,0.0,0.0,0.0,0.0,0.0,0.0,0.0,0.0,0.0,0.0,0.0,0.0,0.0,0.0,0.0,0.0,0.0,0.0,0.0,0.0,0.0,0.0,0.0,0.0,0.0,0.0,0.0,0.0,0.0,0.0,0.0,0.0,0.0,0.0,0.0,0.0,0.0,0.0,0.0,0.0,0.0,0.0,0.0,0.0,0.0,0.0,0.0,0.0,0.0,0.0,0.0,0.0,0.0,0.0,0.0,0.0,0.0,0.0,0.0,0.0,0.0,0.0,0.0,0.0,0.0,0.0,0.0,0.0,3.765,3.9006,4.135,4.2211,4.1403,4.0876,3.932,0.0,0.0,0.0,0.0,0.0,0.0,0.0,0.0,0.0,0.0,0.0,0.0,0.0,0.0,0.0,0.0,0.0,0.0,0.0,0.0,0.0,0.0,0.0,0.0,0.0,0.0,0.0,0.0,0.0,0.0,0.0,0.0,0.0,0.0,0.0,0.0,0.0,0.0,0.0,0.0,0.0,0.0,0.0,0.0,0.0,0.0,0.0,0.0,4.3972,0.0,0.0,0.0,0.0,0.0,0.0,0.0,0.0,0.0,0.0,0.0,0.0,0.0,0.0,0.0,0.0,0.0,0.0,0.0,0.0,0.0,0.0,0.0,0.0,0.0,0.0,0.0,0.0,0.0,0.0,0.0,0.0,0.0,0.0,0.0,0.0,0.0,0.0,0.0,0.0,0.0,0.0,0.0,0.0,0.0,0.0,0.0,0.0,0.0,0.0,0.0,0.0,0.0,0.0,0.0,0.0,0.0,0.0,0.0,3.8272,4.0097,4.1622,4.2141,4.1553,4.1176,3.9747,0.0,0.0,0.0,0.0,0.0,0.0,0.0,0.0,0.0,0.0,0.0,0.0,0.0,0.0,0.0,0.0,0.0,0.0,0.0,0.0,0.0,0.0,0.0,0.0,0.0,0.0,0.0,0.0,0.0,0.0,0.0,0.0,0.0,0.0,0.0,0.0,0.0,0.0,0.0,0.0,0.0,0.0,0.0,0.0,0.0,0.0,0.0,0.0,0.0,0.0,0.0,0.0,0.0,0.0,0.0,0.0,0.0,0.0,0.0,0.0,0.0,0.0,0.0,0.0,0.0,0.0,0.0,0.0,0.0,0.0,0.0,0.0,0.0,0.0,0.0,0.0,0.0,0.0,0.0,0.0,0.0,0.0,0.0,0.0,0.0,0.0,0.0,0.0,0.0,0.0,0.0,0.0,0.0,0.0,0.0,0.0,0.0,0.0,0.0,0.0,0.0,0.0,0.0,0.0,0.0,0.0,0.0,3.6366,3.8646,4.1297,4.1975,4.2003,4.1409,4.1503,4.03,3.7639,0.0,0.0,0.0,0.0,0.0,0.0,0.0,0.0,0.0,0.0,0.0,0.0,0.0,0.0,0.0,0.0,0.0,0.0,0.0,0.0,0.0,0.0,0.0,0.0,0.0,0.0,0.0,0.0,0.0,0.0,0.0,0.0,0.0,0.0,0.0,0.0,0.0,0.0,4.257,4.5297,0.0,0.0,0.0,0.0,0.0,0.0,0.0,0.0,4.6061,0.0,0.0,0.0,0.0,0.0,0.0,0.0,0.0,0.0,0.0,0.0,0.0,0.0,0.0,0.0,0.0,0.0,0.0,0.0,0.0,0.0,0.0,0.0,0.0,0.0,0.0,0.0,0.0,0.0,0.0,0.0,0.0,0.0,0.0,0.0,0.0,0.0,0.0,0.0,0.0,0.0,0.0,0.0,0.0,0.0,0.0,0.0,0.0,0.0,0.0,0.0,0.0,0.0,0.0,0.0,0.0,3.7061,3.6985,3.8375,4.1324,4.1699,4.1208,4.0017,4.0636,3.995,3.7778,0.0,0.0,0.0,0.0,0.0,0.0,0.0,0.0,0.0,0.0,0.0,0.0,0.0,0.0,0.0,0.0,0.0,0.0,0.0,0.0,0.0,0.0,0.0,0.0,0.0,0.0,0.0,0.0,0.0,0.0,0.0,0.0,0.0,0.0,0.0,0.0,0.0,0.0,0.0,4.7143,4.8917,0.0,0.0,0.0,0.0,0.0,0.0,0.0,0.0,4.6684,0.0,0.0,0.0,0.0,0.0,0.0,0.0,0.0,0.0,0.0,0.0,0.0,0.0,0.0,0.0,0.0,0.0,0.0,0.0,0.0,0.0,0.0,0.0,0.0,0.0,0.0,0.0,0.0,0.0,0.0,0.0,0.0,0.0,0.0,0.0,0.0,0.0,0.0,0.0,0.0,0.0,0.0,0.0,0.0,0.0,0.0,0.0,0.0,0.0,0.0,0.0,0.0,0.0,0.0,0.0,3.6284,3.7391,3.9031,4.1438,4.1291,4.1045,4.0926,4.0219,3.9196,0.0,0.0,0.0,0.0,0.0,0.0,0.0,0.0,0.0,0.0,0.0,0.0,0.0,0.0,0.0,0.0,0.0,0.0,0.0,0.0,0.0,0.0,0.0,0.0,0.0,0.0,0.0,0.0,0.0,0.0,0.0,0.0,0.0,0.0,0.0,0.0,0.0,0.0,0.0,0.0,4.8173,4.9965,5.1082,0.0,0.0,0.0,0.0,0.0,0.0,4.7041,4.7075,0.0,0.0,0.0,0.0,0.0,0.0,0.0,0.0,0.0,0.0,0.0,0.0,0.0,0.0,0.0,0.0,0.0,0.0,0.0,0.0,0.0,0.0,0.0,0.0,0.0,0.0,0.0,0.0,0.0,0.0,0.0,0.0,0.0,0.0,0.0,0.0,0.0,0.0,0.0,0.0,0.0,0.0,0.0,0.0,0.0,0.0,0.0,0.0,0.0,0.0,0.0,0.0,0.0,0.0,0.0,3.5438,3.7645,3.973,4.1577,4.1211,4.1247,4.1899,4.0196,3.8776,0.0,0.0,0.0,0.0,0.0,0.0,0.0,0.0,0.0,0.0,0.0,0.0,0.0,0.0,0.0,0.0,0.0,0.0,0.0,0.0,0.0,0.0,0.0,0.0,0.0,0.0,0.0,0.0,0.0,0.0,0.0,0.0,0.0,0.0,0.0,0.0,0.0,0.0,0.0,0.0,0.0,5.0805,5.1697,5.0951,0.0,0.0,0.0,0.0,4.7782,4.8173,0.0,0.0,0.0,0.0,0.0,0.0,0.0,0.0,0.0,0.0,0.0,0.0,0.0,0.0,0.0,0.0,0.0,0.0,0.0,0.0,0.0,0.0,0.0,0.0,0.0,0.0,0.0,0.0,0.0,0.0,0.0,0.0,0.0,0.0,0.0,0.0,0.0,0.0,0.0,0.0,0.0,0.0,0.0,0.0,0.0,0.0,0.0,0.0,0.0,0.0,0.0,0.0,0.0,0.0,0.0,0.0,3.6257,3.7928,3.9683,4.1606,4.19,4.1752,4.119,4.1003,3.9661,0.0,0.0,0.0,0.0,0.0,0.0,0.0,0.0,0.0,0.0,0.0,0.0,0.0,0.0,0.0,0.0,0.0,0.0,0.0,0.0,0.0,0.0,0.0,0.0,0.0,0.0,0.0,0.0,0.0,0.0,0.0,0.0,0.0,0.0,0.0,0.0,0.0,0.0,0.0,0.0,0.0,5.1395,5.0321,5.0676,5.0998,0.0,0.0,5.0033,5.0592,5.0761,0.0,0.0,0.0,0.0,0.0,0.0,0.0,0.0,0.0,0.0,0.0,0.0,0.0,0.0,0.0,0.0,0.0,0.0,0.0,0.0,0.0,0.0,0.0,0.0,0.0,0.0,0.0,0.0,0.0,0.0,0.0,0.0,0.0,0.0,0.0,0.0,0.0,0.0,0.0,0.0,0.0,0.0,0.0,0.0,0.0,0.0,0.0,0.0,0.0,0.0,0.0,0.0,0.0,0.0,0.0,3.397,3.6625,3.8762,4.0725,4.251,4.2354,4.2061,4.1752,4.0562,3.8543,0.0,0.0,0.0,0.0,0.0,0.0,0.0,0.0,0.0,0.0,0.0,0.0,0.0,0.0,0.0,0.0,0.0,0.0,0.0,0.0,0.0,0.0,0.0,0.0,0.0,0.0,0.0,0.0,0.0,0.0,0.0,0.0,0.0,0.0,0.0,0.0,0.0,0.0,0.0,0.0,0.0,0.0,5.16,5.2501,0.0,0.0,0.0,5.1961,5.186,0.0,0.0,0.0,0.0,0.0,0.0,0.0,0.0,0.0,0.0,0.0,0.0,0.0,0.0,0.0,0.0,0.0,0.0,0.0,0.0,0.0,0.0,0.0,0.0,0.0,0.0,0.0,0.0,0.0,0.0,0.0,0.0,0.0,0.0,0.0,0.0,0.0,0.0,0.0,0.0,0.0,0.0,0.0,0.0,0.0,0.0,0.0,0.0,0.0,0.0,0.0,0.0,0.0,0.0,0.0,0.0,0.0,3.6768,3.959,4.174,4.3229,4.2789,4.2431,4.2273,4.0493,0.0,0.0,0.0,0.0,0.0,0.0,0.0,0.0,0.0,0.0,0.0,0.0,0.0,0.0,0.0,0.0,0.0,0.0,0.0,0.0,0.0,0.0,0.0,0.0,0.0,0.0,0.0,3.4968,0.0,0.0,0.0,0.0,0.0,0.0,0.0,0.0,0.0,0.0,0.0,0.0,0.0,0.0,5.0803,5.1977,5.3866,5.5074,0.0,0.0,5.3551,5.2976,5.2401,5.11,0.0,0.0,0.0,0.0,0.0,0.0,0.0,0.0,0.0,0.0,0.0,0.0,0.0,0.0,0.0,0.0,0.0,0.0,0.0,0.0,0.0,0.0,0.0,0.0,0.0,0.0,0.0,0.0,0.0,0.0,0.0,0.0,0.0,0.0,0.0,0.0,0.0,0.0,0.0,0.0,0.0,0.0,0.0,0.0,0.0,0.0,0.0,0.0,0.0,0.0,0.0,0.0,0.0,0.0,0.0,3.6814,4.0167,4.2363,4.3275,4.3327,4.2996,4.2333,4.1487,3.9297,0.0,0.0,0.0,0.0,0.0,0.0,0.0,0.0,0.0,0.0,0.0,0.0,0.0,0.0,0.0,0.0,0.0,0.0,0.0,0.0,0.0,0.0,0.0,0.0,0.0,0.0,0.0,0.0,0.0,0.0,0.0,0.0,0.0,0.0,0.0,0.0,0.0,0.0,0.0,0.0,0.0,5.1217,4.9912,5.3672,5.6427,0.0,0.0,5.4499,5.4448,5.438,5.2909,4.8597,0.0,0.0,0.0,0.0,0.0,0.0,0.0,0.0,0.0,0.0,0.0,0.0,0.0,0.0,0.0,0.0,0.0,0.0,0.0,0.0,0.0,0.0,0.0,0.0,0.0,0.0,0.0,0.0,0.0,0.0,0.0,0.0,0.0,0.0,0.0,0.0,0.0,0.0,0.0,0.0,0.0,0.0,0.0,0.0,0.0,0.0,0.0,0.0,0.0,0.0,0.0,0.0,0.0,3.485,3.7528,4.0496,4.2692,4.4049,4.4142,4.3775,4.2983,4.2286,4.0121,0.0,0.0,0.0,0.0,0.0,0.0,0.0,0.0,0.0,0.0,0.0,0.0,0.0,0.0,0.0,0.0,0.0,0.0,0.0,0.0,0.0,0.0,0.0,0.0,0.0,0.0,0.0,0.0,3.9229,3.9472,3.8994,0.0,0.0,0.0,0.0,0.0,0.0,0.0,0.0,0.0,0.0,5.281,5.3043,5.5599,0.0,0.0,5.575,5.5108,5.4685,5.3788,5.23,4.9661,4.8883,0.0,0.0,0.0,0.0,0.0,0.0,0.0,0.0,0.0,0.0,0.0,0.0,0.0,0.0,0.0,0.0,0.0,0.0,0.0,0.0,0.0,0.0,0.0,0.0,0.0,0.0,0.0,0.0,0.0,0.0,0.0,0.0,0.0,0.0,0.0,0.0,0.0,0.0,0.0,0.0,0.0,0.0,0.0,0.0,0.0,0.0,0.0,0.0,0.0,0.0,0.0,0.0,3.5277,3.828,4.0747,4.2846,4.4573,4.4567,4.4228,4.3423,4.2692,4.0777,0.0,0.0,0.0,0.0,0.0,0.0,0.0,0.0,0.0,0.0,0.0,0.0,0.0,0.0,0.0,0.0,0.0,0.0,0.0,0.0,0.0,0.0,0.0,0.0,0.0,0.0,0.0,0.0,3.9918,3.9897,3.9315,0.0,0.0,0.0,0.0,0.0,0.0,0.0,0.0,0.0,0.0,5.4419,5.4901,5.6638,5.7595,5.663,5.5852,5.5175,5.4668,5.3687,5.2401,5.071,0.0,0.0,0.0,0.0,0.0,0.0,0.0,0.0,0.0,0.0,0.0,0.0,0.0,0.0,0.0,0.0,0.0,0.0,0.0,0.0,0.0,0.0,0.0,0.0,0.0,0.0,0.0,0.0,0.0,0.0,3.1517,0.0,0.0,0.0,0.0,0.0,0.0,0.0,0.0,0.0,0.0,0.0,0.0,0.0,0.0,0.0,0.0,0.0,0.0,0.0,0.0,0.0,0.0,3.5938,3.8929,4.094,4.2831,4.4497,4.4567,4.4228,4.3457,4.2692,4.1251,3.8983,0.0,0.0,0.0,0.0,0.0,0.0,0.0,0.0,0.0,0.0,0.0,0.0,0.0,0.0,0.0,0.0,0.0,0.0,0.0,0.0,0.0,0.0,0.0,0.0,0.0,0.0,4.1136,4.054,4.0121,0.0,0.0,0.0,0.0,0.0,0.0,0.0,0.0,0.0,0.0,5.3081,5.5903,5.442,5.6318,5.7442,5.5969,5.5141,5.4634,5.4651,5.455,5.3788,0.0,0.0,0.0,0.0,0.0,0.0,0.0,0.0,0.0,0.0,0.0,0.0,0.0,0.0,0.0,0.0,0.0,0.0,0.0,0.0,0.0,0.0,0.0,0.0,0.0,0.0,0.0,3.6443,3.5693,0.0,0.0,0.0,0.0,0.0,0.0,0.0,0.0,0.0,0.0,0.0,3.7441,3.8888,0.0,0.0,0.0,0.0,0.0,0.0,0.0,0.0,0.0,0.0,0.0,0.0,3.5704,3.8105,4.0658,4.2567,4.3695,4.4312,4.4465,4.4195,4.3436,4.1766,3.9073,0.0,0.0,0.0,0.0,0.0,0.0,0.0,0.0,0.0,0.0,0.0,0.0,0.0,0.0,0.0,0.0,0.0,0.0,0.0,0.0,0.0,0.0,0.0,0.0,0.0,4.1914,0.0,0.0,0.0,0.0,0.0,0.0,0.0,0.0,0.0,0.0,0.0,4.958,5.2688,5.6031,5.7794,5.6783,5.7781,5.8118,0.0,0.0,0.0,0.0,0.0,0.0,0.0,0.0,0.0,0.0,0.0,0.0,0.0,0.0,5.6855,5.1473,5.034,5.0203,5.0109,0.0,0.0,0.0,0.0,0.0,0.0,0.0,0.0,0.0,0.0,0.0,0.0,0.0,0.0,3.9061,0.0,3.7334,0.0,0.0,0.0,0.0,0.0,0.0,0.0,0.0,3.9398,4.077,4.1123,4.2538,4.2833,0.0,4.1923,3.9813,0.0,0.0,0.0,0.0,0.0,0.0,0.0,0.0,3.6552,3.8528,4.1116,4.2862,4.371,4.4312,4.4567,4.4567,4.3809,4.2273,3.9863,3.8836,3.8075,0.0,0.0,0.0,0.0,0.0,0.0,0.0,0.0,0.0,0.0,0.0,0.0,0.0,0.0,0.0,0.0,0.0,0.0,0.0,0.0,0.0,0.0,0.0,4.301,0.0,0.0,0.0,0.0,0.0,0.0,0.0,0.0,0.0,4.865,5.0809,5.3531,5.6635,5.8392,5.9032,5.8035,0.0,0.0,0.0,0.0,0.0,0.0,0.0,5.6427,5.6651,5.757,5.8164,5.7856,5.9903,6.1538,6.1306,0.0,0.0,5.6187,5.4837,5.4506,5.4419,5.4312,5.4093,5.3619,5.4329,5.4871,0.0,0.0,0.0,0.0,0.0,0.0,0.0,0.0,4.1813,4.1935,0.0,3.9745,0.0,0.0,0.0,0.0,0.0,3.9161,0.0,0.0,4.3797,4.5225,4.4721,4.6089,4.6481,4.5838,4.6384,4.5201,4.222,3.8241,0.0,0.0,0.0,0.0,0.0,0.0,3.8497,4.0023,4.2158,4.3695,4.4502,4.4587,4.4567,4.4567,4.3842,4.278,4.136,4.1238,4.0511,3.8888,3.8803,0.0,0.0,0.0,0.0,0.0,0.0,0.0,0.0,0.0,0.0,0.0,0.0,0.0,0.0,0.0,0.0,0.0,0.0,0.0,0.0,4.4189,0.0,0.0,0.0,0.0,0.0,0.0,0.0,0.0,0.0,0.0,5.3574,5.588,5.8247,5.9933,0.0,0.0,0.0,0.0,5.7256,5.8126,5.8221,5.8841,6.0412,6.1193,6.137,6.0707,0.0,0.0,6.198,6.3022,6.323,6.1045,6.2509,6.3673,6.2887,6.1188,6.0149,6.0081,5.8851,5.8038,5.7934,5.7798,5.7949,4.6295,0.0,0.0,0.0,0.0,4.3687,4.3992,4.4147,4.4553,4.3998,4.2746,4.2341,0.0,0.0,0.0,0.0,0.0,0.0,4.3285,4.3348,4.5435,4.6589,4.6959,4.7912,4.7954,4.7263,4.7481,4.6602,4.4742,4.3521,4.0835,3.6833,0.0,0.0,0.0,0.0,3.9255,4.0714,4.242,4.3428,4.3665,4.4298,4.4567,4.4567,4.4364,4.3775,4.2814,4.278,4.2298,4.1329,4.1001,0.0,0.0,0.0,0.0,0.0,0.0,0.0,0.0,0.0,0.0,0.0,0.0,0.0,0.0,0.0,0.0,0.0,0.0,0.0,4.4729,4.5572,4.6179,0.0,0.0,0.0,0.0,0.0,0.0,0.0,0.0,0.0,6.0323,5.9238,5.9159,0.0,0.0,6.0588,5.9607,5.9859,6.0237,6.0496,6.1031,0.0,6.2104,6.1903,6.1812,6.2131,6.2971,6.4115,6.5698,6.529,6.4686,6.4595,6.5087,6.5374,6.5074,6.294,6.1032,6.0353,6.022,6.0114,5.9641,5.9911,6.0317,5.0392,4.7643,4.6705,4.6167,4.5954,4.6515,4.6868,4.7022,4.7022,4.6466,4.5587,4.4993,4.3783,4.2125,4.1557,0.0,0.0,0.0,4.5587,4.5918,4.7098,4.7902,4.8326,4.8781,4.8781,4.836,4.8326,4.7718,4.6568,4.6568,4.4706,4.1129,0.0,0.0,3.8769,3.9756,4.0667,4.1526,4.3031,4.3798,4.3846,4.4327,4.4567,4.4567,4.4567,4.4364,4.3862,4.3876,4.3627,4.3111,4.2852,4.1928,0.0,0.0,0.0,0.0,0.0,0.0,0.0,0.0,0.0,0.0,0.0,4.2014,4.2111,0.0,0.0,0.0,4.497,4.633,4.7565,4.8958,0.0,0.0,0.0,0.0,0.0,0.0,0.0,5.9979,6.1264,6.2516,6.4086,6.2374,6.1662,6.3471,6.2821,6.213,6.2024,0.0,6.2666,6.3343,6.3891,6.4327,6.4681,6.4395,6.4251,6.4668,6.4818,6.5346,6.675,6.6182,6.5436,6.536,6.547,6.5391,6.4756,6.3275,6.2354,6.237,6.2484,6.2415,6.1975,6.2279,6.2618,5.3393,5.2482,5.0404,4.8994,4.8308,4.9627,4.9796,4.9187,4.9154,4.9154,4.8984,4.7665,4.7022,4.6902,4.5616,0.0,4.6061,4.6819,4.7496,4.809,4.8766,4.9052,4.9018,4.9018,4.9018,4.9018,4.9018,4.8631,4.8022,4.7973,4.7278,4.5843,4.3804,4.1957,4.0518,4.176,4.2473,4.2506,4.3871,4.4567,4.4567,4.4567,4.4567,4.4567,4.4567,4.4643,4.4665,4.4665,4.4613,4.4473,4.4407,4.3403,4.1313,0.0,0.0,0.0,0.0,0.0,0.0,0.0,0.0,0.0,0.0,0.0,0.0,0.0,0.0,0.0,4.9162,0.0,5.1296,5.3491,0.0,0.0,0.0,5.5243,5.6206,5.866,6.0892,6.2502,0.0,0.0,6.5662,6.5189,6.5019,6.5717,6.4512,6.3888,6.4746,6.4381,6.4636,6.5987,6.6464,6.6852,6.7273,6.7359,6.7227,6.702,6.6881,6.6338,6.6268,6.5993,6.5249,6.4214,6.4304,6.4421,6.295,6.336,6.4149,6.5535,6.5064,6.4444,6.4377,6.4309,6.4275,5.6158,5.4881,5.4317,5.2696,5.0473,5.0795,5.0829,5.066,5.066,5.0371,4.9796,4.9458,4.9018,4.8477,4.8695,4.8898,4.9086,4.9814,4.9965,4.9593,4.9763,4.9526,4.9018,4.9018,4.9018,4.9018,4.9018,4.8917,4.8732,4.8732,4.8259,4.7398,4.681,4.5551,4.3595,4.3871,4.4057,4.4072,4.4429,4.4567,4.4567,4.4567,4.4567,4.4567,4.4567,4.4797,4.5254,4.528,4.5489,4.5855,4.5316,4.4563,4.3615,4.1128,0.0,0.0,0.0,0.0,0.0,0.0,0.0,0.0,0.0,4.8161,4.6547,0.0,5.0508,0.0,5.2915,5.4363,5.4474,5.5589,0.0,0.0,5.7247,5.8321,6.1279,6.1772,6.2651,6.4701,6.5243,6.5696,6.644,6.6406,6.6318,6.6508,6.529,6.4444,6.4676,6.5777,6.6369,6.6393,6.7427,6.8142,6.778,6.77,6.7193,6.5868,6.6043,6.6171,6.5458,6.4739,6.43,6.441,6.4084,6.4121,6.4674,6.5074,6.5453,6.6222,6.5094,6.3917,6.4444,6.4208,6.3971,5.7092,5.5724,5.5709,5.4361,5.2232,5.2216,5.2232,5.2182,5.186,5.1454,5.1048,5.0744,5.0371,5.0017,5.0405,5.0608,5.0642,5.0998,5.0964,5.0574,5.0252,4.988,4.9458,4.9154,4.9018,4.9018,4.9018,4.9018,4.9018,4.9018,4.8766,4.8394,4.8394,4.7582,4.6109,4.5751,4.5596,4.5582,4.5244,4.5244,4.5548,4.4939,4.4567,4.4567,4.4567,4.4709,4.4996,4.5321,4.5626,4.5847,4.5446,4.4964,4.4341,4.2433,4.1211,0.0,0.0,0.0,0.0,0.0,0.0,0.0,0.0,0.0,0.0,0.0,5.3896,5.462,5.7189,5.8761,5.8723,6.0073,6.0957,6.1047,6.0955,6.1704,6.3768,6.3903,6.4498,6.6,6.6569,6.6975,6.7386,6.7822,6.8083,6.8063,6.7,6.6223,6.6268,6.7112,6.7711,6.7791,6.8682,6.8939,6.7875,6.699,6.6181,6.5261,6.5117,6.5091,6.4917,6.4186,6.3757,6.413,6.4078,6.4106,6.4647,6.529,6.5852,6.6,6.5358,6.485,6.5425,6.5236,6.51,5.7092,5.5724,5.5709,5.4848,5.3501,5.3501,5.3501,5.345,5.2739,5.2435,5.2435,5.1776,5.1505,5.1505,5.1472,5.1505,5.1505,5.1472,5.1438,5.1302,5.0676,5.0353,5.0202,4.9593,4.9289,4.9273,4.9289,4.9289,4.9289,4.9289,4.9255,4.9154,4.9154,4.8781,4.8056,4.7394,4.7003,4.6786,4.6177,4.6143,4.6766,4.5548,4.4894,4.4856,4.4856,4.4829,4.4821,4.5496,4.5921,4.5937,4.5961,4.5682,4.5179,4.4478,4.4051,0.0,4.3468,0.0,0.0,0.0,0.0,0.0,0.0,0.0,0.0,5.5826,5.7088,5.848,6.1322,6.3021,6.2907,6.4792,6.5479,6.409,6.4468,6.4925,6.5067,6.5719,6.6405,6.7106,6.7886,6.8381,6.8613,6.9309,6.9849,6.9724,6.905,6.842,6.8327,6.8235,6.8508,6.9689,6.9816,6.9038,6.7593,6.6258,6.5355,6.5,6.4603,6.4166,6.4712,6.4161,6.372,6.3855,6.4262,6.4444,6.3984,6.4986,6.5696,6.5899,6.5865,6.5967,6.6508,6.6487,6.669,5.7092,5.5724,5.5709,5.4833,5.3518,5.3501,5.3501,5.3484,5.3348,5.3264,5.3247,5.3112,5.3078,5.3078,5.3061,5.3061,5.3078,5.3078,5.2723,5.2097,5.1961,5.1555,5.0998,5.0863,5.0795,5.0795,5.0795,5.0795,5.0761,5.0761,5.0491,4.9898,4.9914,4.9526,4.88,0.0,0.0,0.0,4.6665,4.6665,4.68,4.653,4.6343,4.6224,4.623,0.0,4.6823,4.7606,4.8568,4.9638,4.9828,0.0,0.0,0.0,0.0,0.0,0.0,0.0,0.0,0.0,0.0,0.0,5.7109,5.7104,5.6506,5.9412,6.1448,6.1768,6.3427,6.4449,6.4323,6.5276,6.5783,6.5391,6.5935,6.667,6.7414,6.8187,6.8812,6.911,6.9331,6.9669,7.0323,7.0592,7.07,7.0771,7.052,7.0129,6.9581,6.8814,6.8669,6.9611,6.9381,6.8271,6.6495,6.6532,6.6039,6.5195,6.5233,6.521,6.4775,6.4544,6.4613,6.5053,6.4918,6.4986,6.5899,6.5967,6.5899,6.6474,6.6576,6.6643,6.6757,6.6339,6.6068,5.7327,0.0,5.6299,5.5428,0.0,5.4042,5.3849,5.3501,5.3501,5.3501,5.3501,5.3501,5.3501,5.3501,5.3501,5.3501,5.3501,5.3501,5.3281,5.2875,5.2469,5.2097,5.1708,5.137,5.1201,5.1201,5.1201,5.1201,5.1201,5.1201,5.0998,5.0642,5.0626,5.0457,5.0085,5.0085,4.9341,4.7902,4.753,4.7689,4.8328,4.7638,4.7431,4.7694,4.7732,0.0,0.0,0.0,0.0,0.0,0.0,0.0,0.0,0.0,0.0,5.1764,5.2523,5.3544,5.4709,5.578,5.7389,5.9766,6.0956,6.1193,6.0456,6.2527,6.3992,6.4431,6.5798,6.6427,6.5921,6.6554,6.6809,6.6336,6.7005,6.7688,6.82,6.8977,6.9745,7.0274,7.0697,7.1275,7.2097,7.2612,7.2864,7.2847,7.246,7.2215,7.2036,7.0327,6.921,6.9659,6.8675,6.7606,6.6716,6.6028,6.5795,6.4869,6.4968,6.5204,6.5155,6.4816,6.485,6.5493,6.5358,6.5425,6.6034,6.6203,6.6373,6.6711,6.6791,6.6791,6.6791,6.6508,6.6339,5.7583,5.6912,5.6899,5.6095,5.4787,5.4684,5.4203,5.3501,0.0,0.0,0.0,5.3501,5.3501,5.3501,5.3501,5.3501,5.3501,5.3501,5.3501,5.3484,5.2807,5.2536,5.2469,5.1877,5.1607,5.1607,5.1607,5.1607,5.1607,5.1607,5.1539,5.1404,5.137,5.1383,5.1407,5.1516,5.103,4.985,4.9052,4.9247,5.0327,4.9353,4.9091,4.9659,4.9672,4.9937,5.0482,5.1196,5.1905,5.258,5.2795,5.2937,5.3155,5.3892,5.4962,5.6308,5.7295,5.8466,5.9895,6.0705,6.1471,6.2265,6.3423,6.4144,6.4247,6.4679,6.5294,6.6169,6.7319,6.7696,6.7019,6.7532,6.7696,6.7066,6.7868,6.847,6.874,6.9702,7.0717,7.1352,7.221,7.3072,7.3845,7.4572,7.5124,7.5012,7.4378,7.4038,7.422,7.2203,7.0253,6.9423,6.848,6.7556,6.6945,6.608,6.506,6.5162,6.5074,6.5222,6.5595,6.5392,6.529,6.5831,6.5899,6.5933,6.5933,6.6406,6.6825,6.696,6.6859,6.6825,6.696,6.7015,6.6948,5.7546,5.6899,5.6899,5.6367,5.5509,5.4878,5.4203,5.3518,5.3501,5.3501,5.3501,5.3501,5.3501,5.3501,5.3501,5.3501,5.3501,5.3501,5.3501,5.3484,5.3365,5.3332,5.3348,5.3247,5.3179,5.3179,5.3145,5.3162,5.3162,5.3179,5.2841,5.2232,5.2164,5.2179,5.2284,5.2866,5.3097,5.285,5.2117,5.1818,5.1979,5.2457,5.2695,5.2666,5.2678,5.2709,5.2756,5.3474,5.4298,5.5071,5.5757,5.6458,5.7159,5.7894,5.8481,5.8762,6.0127,6.137,6.227,6.3141,6.3918,6.4535,6.4776,6.4892,6.4939,6.4862,6.5174,6.5886,6.617,6.631,6.6716,6.6995,6.728,6.773,6.8637,6.9521,7.0226,7.1711,7.2762,7.3094,7.4004,7.4735,7.5436,7.5758,7.5849,7.5879,7.5613,7.5251,7.4189,7.3508,7.1817,6.9363,6.8988,6.8546,6.7221,6.6722,6.644,6.6487,6.6474,6.6508,6.6609,6.6508,6.6474,6.6622,6.6643,6.6643,6.6711,6.669,6.7096,6.7523,6.7286,6.7083,6.7557,6.7726,6.7557,5.7797,5.7498,5.7486,5.6812,5.5624,5.4482,5.3833,5.3518,5.3501,5.3501,5.3501,5.3501,5.3501,5.3501,5.3501,5.3501,5.3501,5.3501,5.3501,5.3501,5.3501,5.3501,5.3501,5.3501,5.3501,5.3501,5.3501,5.3501,5.3501,5.3501,5.3315,5.2976,5.3351,5.3557,5.3628,5.4323,5.4718,5.4662,5.358,5.3164,5.3552,5.3913,5.4228,5.4547,5.4522,5.4756,5.5148,5.55,5.6088,5.687,5.7666,5.8279,5.8646,5.9832,6.0493,6.0554,6.2034,6.3319,6.4114,6.5268,6.5865,6.5669,6.5543,6.5496,6.5542,6.5456,6.5569,6.5893,6.6458,6.7015,6.7387,6.7387,6.7692,6.847,6.9083,6.9713,7.0584,7.1779,7.2759,7.3279,7.3687,7.4466,7.5758,7.5916,7.6213,7.6548,7.634,7.5475,7.432,7.3698,7.236,6.9682,6.8844,6.818,6.7082,6.7184,6.7332,6.7421,6.776,6.7827,6.7523,6.7421,6.7421,6.7421,6.7387,6.759,6.7895,6.8064,6.8064,6.776,6.7692,6.7624,6.7861,6.8233,6.8267,5.8417,5.825,5.8079,5.7033,5.5379,5.4216,5.3634,5.3484,5.3501,5.3501,5.3501,5.3501,5.3501,5.3501,5.3501,5.3501,5.3501,5.3501,5.3501,5.3501,5.3501,5.3501,5.3501,5.3501,5.3501,5.3501,5.3501,5.3501,5.3501,5.3501,5.3501,5.3601,5.4422,5.4848,5.4863,5.5766,5.6204,5.6137,5.5084,5.4701,5.5088,5.5257,5.5604,5.6091,5.6124,5.6418,5.7031,5.7079,5.7446,5.8253,5.8866,5.9453,6.004,6.119,6.2034,6.2475,6.3846,6.4966,6.5742,6.6632,6.6851,6.6126,6.5792,6.5608,6.5589,6.5761,6.583,6.5994,6.7045,6.7861,6.7895,6.8064,6.8504,6.9246,6.9509,6.9985,7.0689,7.1616,7.2395,7.298,7.3246,7.4006,7.5102,7.5666,7.6058,7.6575,7.628,7.5481,7.4453,7.3507,7.2188,7.0461,6.908,6.8339,6.7506,6.7772,6.8132,6.8166,6.8639,6.8673,6.8301,6.8166,6.8166,6.8166,6.8166,6.8368,6.8944,6.9045,6.8876,6.8571,6.8368,6.8233,6.8538,6.8944,6.9045,5.9723,5.9016,5.8339,5.6777,5.4826,5.4563,5.4143,5.3602,5.3501,5.3501,5.3551,5.3501,5.3501,5.3501,5.3501,5.3501,5.3501,5.3501,5.3501,5.3501,5.3501,5.3501,5.3501,5.3501,5.3501,5.3501,5.3501,5.3501,5.3501,5.3501,5.3518,5.3668,5.4894,5.556,5.5766,5.7029,5.776,5.7769,5.7649,5.7283,5.6658,5.7292,5.7719,5.7776,5.7776,5.7813,5.7886,5.7886,5.8253,5.9013,5.9196,6.0212,6.2132,6.2609,6.338,6.4811,6.5742,6.6596,6.7123,6.6657,6.6214,6.5894,6.5236,6.485,6.4864,6.5373,6.5725,6.603,6.71,6.7929,6.7963,6.8571,6.9282,6.9969,7.0201,7.0713,7.1371,7.2388,7.3015,7.305,7.3514,7.4258,7.4406,7.512,7.5735,7.5872,7.5632,7.4977,7.3663,7.2976,7.2282,7.0888,7.024,6.9804,6.8999,6.891,6.8977,6.8977,6.9045,6.9113,6.9045,6.8977,6.8977,6.8977,6.8977,6.9079,6.918,6.9113,6.9383,6.9553,6.935,6.918,6.9755,7.0048,6.9789,5.8799,5.8467,5.816,5.7232,5.5942,5.546,5.5094,5.4769,5.4329,5.416,5.4093,5.3687,5.3501,5.3501,5.3501,5.3501,5.3501,5.3501,5.3501,5.3501,5.3501,5.3501,5.3501,5.3501,5.3501,5.3501,5.3501,5.3501,5.3501,5.3501,5.3701,5.4235,5.5203,5.5934,5.6434,5.7474,5.7997,5.7997,5.7997,5.807,5.8205,5.807,5.7997,5.8033,5.8437,5.8682,5.8756,5.9171,5.9575,5.993,6.0811,6.1765,6.2756,6.371,6.4554,6.5325,6.6512,6.7039,6.6709,6.7205,6.7003,6.5886,6.5875,6.5878,6.5912,6.6203,6.6508,6.7049,6.7996,6.8774,6.918,6.9574,7.0048,7.0634,7.0565,7.0619,7.1349,7.1789,7.2029,7.2063,7.2326,7.2797,7.3392,7.4291,7.4849,7.4812,7.4498,7.3732,7.2973,7.2368,7.1696,7.1178,7.0973,7.0413,6.9483,6.9485,6.9654,6.9789,7.0128,7.0331,6.9823,6.9755,6.9755,6.9755,6.9755,6.9958,7.0376,7.0364,7.0466,7.0398,7.0094,6.9857,7.015,7.0534,7.0635,5.8683,5.8273,5.788,5.7212,5.6485,5.591,5.5699,5.5631,5.5141,5.4905,5.4837,5.4329,5.4093,5.4042,5.3721,5.3501,5.3518,5.3721,5.3788,5.3822,5.4008,5.4109,5.4109,5.4126,5.4093,5.4109,5.416,5.4008,5.3822,5.3585,5.3983,5.4865,5.5666,5.6528,5.7526,5.8312,5.8657,5.8657,5.8657,5.8951,5.938,5.8951,5.8657,5.8694,5.9233,5.9526,5.9515,6.0077,6.0639,6.1068,6.2169,6.3123,6.382,6.4958,6.5815,6.6316,6.7357,6.7774,6.7152,6.8005,6.7878,6.6647,6.6716,6.6791,6.6825,6.6981,6.7455,6.8166,6.8944,6.9654,7.0082,7.0364,7.0737,7.1188,7.0804,7.0737,7.1233,7.1289,7.1345,7.1289,7.1445,7.1688,7.2645,7.3452,7.3869,7.3827,7.3292,7.2624,7.2406,7.1764,7.13,7.1289,7.1278,7.0872,6.9958,7.0128,7.0466,7.0567,7.0939,7.1007,7.0567,7.0534,7.05,7.05,7.05,7.0567,7.0872,7.1086,7.1154,7.0703,7.0466,7.0466,7.0601,7.1007,7.1188,6.0458,5.8939,5.7515,5.6604,5.5785,5.5818,5.5767,5.5834,5.5665,5.5665,5.5665,5.5564,5.5564,5.5428,5.4194,5.3551,5.3636,5.4262,5.4566,5.4617,5.5192,5.5564,5.5631,5.5597,5.5564,5.5395,5.5395,5.5141,5.455,5.3924,5.4256,5.5725,5.6543,5.7646,5.899,5.9797,6.026,6.0126,6.0126,6.026,6.037,6.0309,6.0297,6.0382,6.0346,6.0382,6.0407,6.0407,6.1153,6.2646,6.2903,6.393,6.5999,6.6439,6.7173,6.8444,6.8788,6.9134,6.9408,6.895,6.8378,6.7942,6.7182,6.6825,6.6927,6.7421,6.8132,6.8977,6.9654,7.0094,7.0297,7.0804,7.1154,7.1255,7.1255,7.1244,7.1255,7.1289,7.1289,7.1289,7.1289,7.1666,7.2603,7.2818,7.2859,7.2859,7.2776,7.2456,7.171,7.1379,7.1312,7.1289,7.1289,7.1255,7.1154,7.0985,7.1086,7.112,7.1109,7.1255,7.1255,7.1255,7.1222,7.121,7.1109,7.1109,7.1222,7.1289,7.1255,7.1109,7.1075,7.1086,7.0951,7.1154,7.1289,6.0262,5.9698,5.9146,5.849,5.7829,5.7829,5.7577,5.707,5.6596,5.6409,5.6308,5.5902,5.5699,5.5665,5.5158,5.4887,5.4921,5.5209,5.5293,5.5327,5.5597,5.5699,5.5699,5.5699,5.5699,5.5699,5.5699,5.5564,5.538,5.5534,5.6216,5.7213,5.8075,5.8996,5.9868,6.0262,6.0407,6.0407,6.0407,6.0639,6.1227,6.1655,6.2181,6.2658,6.1704,6.141,6.1912,6.2438,6.3282,6.4371,6.4848,6.5815,6.7136,6.8238,6.9045,6.9633,7.0132,7.0267,6.99,6.95,6.8942,6.8231,6.7332,6.7028,6.7421,6.7793,6.8402,6.9519,6.9992,7.0364,7.0838,7.1176,7.1289,7.1289,7.1289,7.1289,7.1289,7.1289,7.1289,7.1289,7.1289,7.1479,7.1754,7.1851,7.183,7.183,7.1851,7.1688,7.1434,7.1289,7.1289,7.1289,7.1289,7.1289,7.1289,7.1255,7.1289,7.1289,7.1289,7.1289,7.1289,7.1289,7.1222,7.1222,7.1289,7.1289,7.1289,7.1289,7.1289,7.1289,7.1289,7.1289,7.1289,7.1289,7.1289,6.008,6.008,6.008,5.9844,5.9385,5.9351,5.8912,5.822,5.7712,5.7408,5.7103,5.663,5.6409,5.6409,5.6427,5.6427,5.6393,5.6172,5.6037,5.6071,5.6292,5.6427,5.6427,5.6427,5.6427,5.6359,5.6139,5.6071,5.6093,5.6638,5.758,5.8854,5.9699,6.0742,6.1739,6.1985,6.1998,6.1998,6.1985,6.2291,6.2805,6.3306,6.387,6.4237,6.3356,6.3013,6.36,6.4163,6.4861,6.5668,6.6439,6.7357,6.8435,6.9486,7.022,7.0485,7.0697,7.0708,7.0254,6.9634,6.9015,6.8609,6.7728,6.7489,6.8199,6.8504,6.9202,6.998,7.0466,7.0804,7.112,7.1289,7.1289,7.1289,7.1289,7.1289,7.1289,7.1289,7.1289,7.1289,7.1289,7.1312,7.1289,7.1312,7.1334,7.1289,7.1289,7.1289,7.1289,7.1289,7.1289,7.1289,7.1289,7.1289,7.1289,7.1289,7.1289,7.1289,7.1289,7.1289,7.1289,7.1289,7.1289,7.1289,7.1289,7.1289,7.1289,7.1289,7.1289,7.1289,7.1289,7.1289,7.1289,7.1289,7.1356,6.0182,6.025,6.0148,6.0216,6.0114,6.0114,5.9708,5.9047,5.8912,5.8438,5.7915,5.7814,5.7663,5.7764,5.7611,5.7798,5.7712,5.7205,5.6867,5.6867,5.7442,5.773,5.7697,5.7764,5.7848,5.7866,5.7171,5.69,5.7022,5.7341,5.844,6.0327,6.1393,6.2847,6.5141,6.4811,6.4995,6.4884,6.4774,6.4995,6.5288,6.5141,6.5215,6.5288,6.5228,6.5251,6.5362,6.5375,6.5815,6.6549,6.7357,6.8471,6.9779,7.022,7.0536,7.0974,7.0499,7.0421,7.0741,6.9456,6.8949,6.9105,6.8493,6.8267,6.9011,6.962,7.0082,7.0364,7.0838,7.1255,7.1255,7.1289,7.1289,7.1289,7.1289,7.1289,7.1289,7.1289,7.1289,7.1289,7.1289,7.1289,7.1289,7.1289,7.1289,7.1289,7.1289,7.1289,7.1289,7.1289,7.1289,7.1289,7.1289,7.1289,7.1289,7.1289,7.1289,7.1289,7.1289,7.1289,7.1289,7.1289,7.1289,7.1289,7.1289,7.1289,7.1289,7.1289,7.1289,7.1289,7.1289,7.1289,7.1289,7.1334,7.1457,6.167,6.167,6.169,6.1366,6.096,6.0926,6.0486,5.9742,5.925,5.8844,5.8592,5.8118,5.79,5.79,5.79,5.8186,5.8592,5.8389,5.8051,5.7697,5.7832,5.7934,5.8035,5.8423,5.893,5.9235,5.866,5.8592,5.9055,5.9711,6.0843,6.2062,6.3434,6.4516,6.5349,6.5325,6.5325,6.5325,6.5325,6.5325,6.5362,6.5875,6.6145,6.6182,6.6659,6.7173,6.7724,6.7247,6.7357,6.8128,6.8898,6.9816,7.0756,7.1468,7.1553,7.1262,7.142,7.1204,7.0841,7.0227,6.9772,6.9923,6.9257,6.9166,6.9722,7.0082,7.0432,7.0838,7.1154,7.1289,7.1289,7.1289,7.1289,7.1289,7.1289,7.1289,7.1289,7.1289,7.1289,7.1289,7.1289,7.1289,7.1312,7.1356,7.1479,7.1457,7.1412,7.1412,7.1367,7.1457,7.1289,7.1289,7.1289,7.1312,7.1289,7.1289,7.1289,7.1289,7.1289,7.1289,7.1289,7.1289,7.1289,7.1323,7.1323,7.1323,7.1323,7.1289,7.1289,7.1323,7.1357,7.1323,7.1289,7.1524,7.1859,6.3057,6.2821,6.2821,6.2381,6.1738,6.1704,6.1264,6.0554,6.008,5.9689,5.937,5.893,5.8727,5.8727,5.8727,5.8964,5.9404,5.9419,5.9167,5.878,5.8727,5.8727,5.8761,5.9167,5.9641,5.9945,5.9641,5.9622,6.0141,6.1068,6.2075,6.3239,6.486,6.6062,6.6583,6.694,6.71,6.71,6.7136,6.71,6.7173,6.7577,6.7847,6.7907,6.8311,6.8839,6.9288,6.8795,6.8753,6.9287,6.9783,7.0412,7.1164,7.1604,7.1593,7.1242,7.1248,7.1265,7.0726,7.0173,7.012,7.018,6.9841,6.9845,7.0432,7.0601,7.0872,7.121,7.1289,7.1289,7.1289,7.1289,7.1289,7.1289,7.1289,7.1289,7.1289,7.1289,7.1289,7.1379,7.1622,7.1786,7.1873,7.2257,7.2364,7.2406,7.2406,7.2406,7.2321,7.212,7.196,7.1722,7.1479,7.1434,7.1312,7.1289,7.1289,7.1289,7.1289,7.1289,7.1289,7.1289,7.1289,7.1458,7.1492,7.1526,7.1492,7.1357,7.1289,7.1357,7.1582,7.1548,7.1684,7.2317,7.2687,6.4153,6.3579,6.3545,6.3125,6.2482,6.2448,6.2042,6.14,6.1197,6.0757,6.025,5.9945,5.9945,6.0013,5.9844,5.9945,6.0182,6.0182,6.025,6.0216,6.0216,6.0182,6.0114,6.0129,6.0283,6.0385,6.025,6.0283,6.0713,6.1423,6.242,6.4285,6.5889,6.7339,6.8541,6.9633,6.9664,6.9392,6.9603,6.9567,6.9603,6.9741,6.9778,6.9713,6.9699,6.9752,6.9668,6.9756,6.9901,7.0106,7.0139,7.0566,7.0976,7.0964,7.1002,7.0856,7.064,7.065,7.0331,6.9999,6.9773,7.0338,7.0373,7.0534,7.1075,7.1154,7.1154,7.1289,7.1289,7.1289,7.1289,7.1424,7.1458,7.1424,7.1424,7.1323,7.1289,7.1379,7.1534,7.1666,7.2215,7.288,7.2935,7.3681,7.4104,7.4255,7.4267,7.4331,7.3994,7.354,7.3032,7.2613,7.2183,7.1864,7.1819,7.2217,7.2193,7.1994,7.2085,7.2296,7.2019,7.192,7.1925,7.2029,7.2156,7.2033,7.1819,7.1808,7.1785,7.1954,7.2022,7.1954,7.2345,7.303,7.3627,6.4478,6.4309,6.4309,6.3869,6.324,6.3207,6.2787,6.2096,6.1535,6.1264,6.0926,6.0351,6.0216,6.0114,6.0182,6.0419,6.0858,6.1028,6.1332,6.1738,6.1825,6.1467,6.1095,6.0994,6.1264,6.1637,6.1366,6.1569,6.2561,6.284,6.4148,6.638,6.7298,6.8527,6.9705,6.9953,6.9711,6.9153,6.9113,6.9186,6.9186,6.9186,6.9077,6.9077,6.915,6.9095,6.9121,7.0001,7.0573,7.0637,7.1124,7.1446,7.157,7.1512,7.1171,7.0752,7.1026,7.0994,7.0512,7.0529,7.077,7.0951,7.0917,7.1109,7.1255,7.1289,7.1289,7.1289,7.1289,7.1289,7.1413,7.1819,7.2293,7.2665,7.2135,7.1503,7.1581,7.1926,7.2427,7.2498,7.3362,7.3913,7.4232,7.48,7.5369,7.5475,7.5726,7.5863,7.5429,7.4848,7.4302,7.37,7.3176,7.2677,7.2553,7.3024,7.3145,7.2929,7.3233,7.3976,7.3624,7.3293,7.3365,7.3434,7.3735,7.3731,7.3094,7.2722,7.2699,7.2935,7.2937,7.3108,7.3378,7.3958,7.4598,6.5358,6.5053,6.5053,6.4647,6.4005,6.3971,6.3734,6.3226,6.255,6.2448,6.2448,6.1873,6.1535,6.1535,6.1569,6.1603,6.1772,6.2076,6.2279,6.2279,6.2367,6.211,6.1907,6.2009,6.2448,6.2821,6.2753,6.3193,6.3814,6.4059,6.5079,6.6406,6.7603,6.8508,6.9322,7.0134,7.0145,6.9782,6.9826,6.9916,6.9628,6.9592,6.9377,6.9306,6.9397,6.9526,6.9555,7.051,7.1152,7.1256,7.1336,7.1297,7.1294,7.12,7.0915,7.0435,7.1079,7.1181,7.088,7.1109,7.1255,7.1289,7.1289,7.1289,7.1289,7.1289,7.1289,7.1289,7.1289,7.1458,7.1853,7.2428,7.3243,7.3864,7.3418,7.2905,7.2905,7.3886,7.4356,7.4642,7.5247,7.5958,7.5976,7.6715,7.7164,7.7414,7.7808,7.747,7.6872,7.6215,7.5415,7.4657,7.4103,7.3628,7.3748,7.4205,7.5041,7.4793,7.5273,7.5904,7.5765,7.5292,7.5156,7.5284,7.5443,7.5331,7.4761,7.4347,7.4404,7.451,7.438,7.4537,7.4958,7.5401,7.5979,6.644,6.5818,6.5818,6.5392,6.4783,6.4715,6.458,6.4444,6.3835,6.3883,6.4174,6.3835,6.3429,6.3612,6.3328,6.3226,6.2739,6.326,6.3125,6.2956,6.2821,6.2753,6.2821,6.3057,6.3396,6.3666,6.4309,6.4512,6.4688,6.4708,6.5283,6.6466,6.7216,6.7926,6.9228,7.0292,7.0786,7.0713,7.0957,7.0922,7.057,7.0465,7.0217,6.9882,6.9925,7.0215,7.0406,7.0986,7.1428,7.1788,7.1012,7.0764,7.067,7.046,7.0383,7.0519,7.1016,7.13,7.1278,7.1222,7.1289,7.1289,7.1289,7.1289,7.1323,7.1391,7.1526,7.1582,7.1515,7.2056,7.271,7.3366,7.4308,7.5241,7.5425,7.5715,7.5791,7.6382,7.6863,7.6939,7.7685,7.8257,7.8624,7.9192,7.9847,7.9063,7.9282,7.8799,7.8003,7.7075,7.6188,7.5284,7.4863,7.4523,7.496,7.5492,7.6457,7.7053,7.7757,7.8278,7.8349,7.7966,7.7504,7.7347,7.725,7.7071,7.6836,7.6539,7.6278,7.6337,7.6329,7.6615,7.6939,7.7397,7.7935,6.6724,6.6576,6.6555,6.6136,6.5527,6.548,6.5155,6.4647,6.4444,6.4512,6.458,6.4444,6.4377,6.4343,6.4377,6.4275,6.4038,6.4208,6.4241,6.4174,6.4106,6.4106,6.4005,6.3815,6.3869,6.4275,6.4512,6.4918,6.529,6.5609,6.6213,6.758,6.828,6.9345,7.0162,7.0828,7.1242,7.0756,7.0788,7.0823,7.0669,7.0565,7.046,7.0228,6.983,6.9841,7.02,7.0398,7.0779,7.1206,7.1219,7.1051,7.1066,7.105,7.0973,7.1041,7.1142,7.1289,7.1289,7.1289,7.1289,7.1289,7.1289,7.1289,7.1379,7.1819,7.209,7.2259,7.2699,7.3265,7.4252,7.5068,7.5997,7.699,7.8226,7.916,7.9204,7.851,7.8117,7.8206,7.8872,7.9454,7.9548,8.0246,8.0695,8.0715,8.0395,8.0006,7.8968,7.7752,7.6936,7.592,7.6226,7.6189,7.7118,7.7892,7.904,7.9522,8.0017,8.0614,8.067,8.0221,7.9593,7.9216,7.8926,7.8813,7.8786,7.8047,7.7659,7.7949,7.83,7.8455,7.8729,7.9262,7.9384,6.7015,6.7286,6.696,6.6576,6.6237,6.6203,6.6,6.5595,6.5222,6.5324,6.5493,6.529,6.5121,6.5121,6.5087,6.4952,6.4647,6.4613,6.4816,6.4884,6.4816,6.4783,6.5074,6.4783,6.4783,6.5155,6.5527,6.5865,6.6203,6.6584,6.7152,6.8029,6.8898,6.9296,7.002,7.0784,7.078,7.058,7.0741,7.0741,7.0433,7.0365,7.0386,7.0343,6.9913,6.9958,7.0657,7.0759,7.0939,7.1188,7.1289,7.1289,7.1289,7.1289,7.1289,7.1289,7.1289,7.1289,7.1289,7.1289,7.1289,7.1323,7.1289,7.1526,7.1594,7.1954,7.2259,7.2824,7.3537,7.439,7.643,7.7058,7.7978,7.9196,8.004,8.0804,8.1049,8.057,8.0077,8.0254,8.0994,8.1391,8.1697,8.1559,8.1367,8.134,8.0347,7.9847,7.8453,7.7424,7.7296,7.6933,7.7497,7.8127,7.9261,8.0468,8.1975,8.2179,8.215,8.2648,8.2952,8.2274,8.152,8.1163,8.0872,8.0903,8.0728,7.9955,7.9357,8.0008,8.029,8.0246,8.0254,8.0486,8.0451,6.7523,6.803,6.74,6.7151,6.7129,6.7163,6.7062,6.6846,6.6339,6.6406,6.6757,6.6271,6.6136,6.6089,6.6089,6.5662,6.5358,6.5256,6.573,6.6034,6.5459,6.5493,6.5764,6.5967,6.5933,6.5967,6.6542,6.6914,6.7151,6.7658,6.8027,6.8264,6.8919,6.9462,6.9514,7.0002,7.0573,7.0597,7.0982,7.1028,7.0587,7.0463,7.0485,7.0463,7.0453,7.0601,7.1052,7.1188,7.1255,7.1289,7.1289,7.1289,7.1289,7.1289,7.1289,7.1289,7.1289,7.1289,7.1357,7.1424,7.1526,7.1458,7.1492,7.1853,7.2259,7.2553,7.3038,7.3839,7.4834,7.6118,7.8695,7.9289,8.0097,8.1193,8.1237,8.1701,8.2285,8.2553,8.2361,8.2031,8.2165,8.2528,8.254,8.2411,8.2196,8.1765,8.0723,7.9697,7.8371,7.7635,7.7783,7.8361,7.9029,8.0344,8.1537,8.1961,8.3605,8.3831,8.3785,8.4168,8.4572,8.4135,8.3388,8.3118,8.2913,8.2501,8.1819,8.0782,8.0762,8.1789,8.1905,8.145,8.1459,8.164,8.1525,6.8808,6.8876,6.8774,6.8707,6.8707,6.8707,6.8267,6.776,6.7557,6.759,6.7692,6.7557,6.7489,6.7489,6.7523,6.7421,6.7184,6.7117,6.7252,6.7354,6.6779,6.6609,6.6779,6.7184,6.7151,6.6948,6.7387,6.7793,6.7827,6.847,6.8842,6.9045,6.9654,6.9992,7.0195,7.0703,7.1007,7.0973,7.1188,7.1176,7.1075,7.1007,7.1007,7.1007,7.1007,7.112,7.1255,7.1323,7.1289,7.1289,7.1289,7.1289,7.1323,7.1323,7.1357,7.1391,7.1391,7.1458,7.156,7.1954,7.2157,7.2225,7.2225,7.2632,7.3277,7.3996,7.4593,7.5844,7.7118,7.8458,7.8932,8.0508,8.1338,8.2088,8.2971,8.3695,8.3955,8.3948,8.3508,8.281,8.3038,8.3139,8.2831,8.2598,8.232,8.1728,8.0803,8.0244,7.9535,7.9089,7.9115,7.9873,8.0775,8.2293,8.387,8.3977,8.4558,8.4615,8.4682,8.4903,8.527,8.5453,8.5199,8.4395,8.3334,8.2342,8.1726,8.1201,8.1453,8.1959,8.2214,8.2451,8.2737,8.292,8.2737,6.8944,6.9642,6.9282,6.9079,6.9079,6.9079,6.8876,6.8571,6.8538,6.8538,6.8538,6.8538,6.8538,6.8504,6.8538,6.8538,6.8538,6.8538,6.8504,6.8402,6.8166,6.7996,6.7963,6.8368,6.8301,6.8301,6.8707,6.8571,6.8098,6.9113,6.9586,6.9823,7.0398,7.077,7.0804,7.1109,7.1289,7.1289,7.1289,7.1289,7.1289,7.1289,7.1289,7.1289,7.1357,7.1492,7.1751,7.1424,7.1526,7.1695,7.1492,7.1323,7.1424,7.1684,7.1887,7.1887,7.1887,7.209,7.236,7.28,7.2935,7.2969,7.2958,7.3663,7.4465,7.5159,7.6077,7.7811,7.938,8.0897,8.196,8.2685,8.3334,8.3841,8.4373,8.4508,8.4575,8.4612,8.4031,8.338,8.3657,8.3427,8.2469,8.2272,8.2176,8.159,8.0897,8.0701,8.0658,8.0805,8.0926,8.1703,8.2718,8.3864,8.5187,8.5385,8.5436,8.5436,8.5453,8.5673,8.5595,8.5654,8.5462,8.4973,8.3787,8.2687,8.1634,8.112,8.1609,8.2043,8.2414,8.286,8.3746,8.4132,8.3801,6.9316,7.0364,6.9789,6.9553,6.9553,6.9553,6.9485,6.935,6.9316,6.9316,6.9316,6.9316,6.9316,6.9316,6.9316,6.9316,6.9316,6.9316,6.9316,6.9248,6.9045,6.9045,6.9079,6.9248,6.918,6.8977,6.9891,6.9688,6.9011,6.9789,7.0297,7.0534,7.1075,7.1289,7.1255,7.1255,7.1289,7.1289,7.1289,7.1289,7.1289,7.1447,7.1548,7.156,7.1684,7.209,7.2496,7.2225,7.2191,7.236,7.2191,7.1796,7.1853,7.2293,7.2665,7.28,7.2699,7.2969,7.3274,7.368,7.3713,7.3713,7.3923,7.4921,7.598,7.6692,7.7547,7.9829,8.1254,8.2594,8.3741,8.4615,8.4879,8.4947,8.4802,8.4672,8.4534,8.4464,8.4536,8.4228,8.4367,8.3954,8.3204,8.2763,8.2864,8.3274,8.2607,8.251,8.2551,8.2972,8.3274,8.389,8.47,8.5531,8.6263,8.6466,8.6464,8.6354,8.6261,8.6297,8.595,8.5664,8.5387,8.5076,8.4692,8.3589,8.2321,8.1211,8.1387,8.1782,8.2517,8.3556,8.487,8.4922,8.4425,7.1019,7.1154,7.1075,7.1052,7.0985,7.0951,7.0635,7.0116,7.006,7.0082,7.006,7.006,7.006,7.006,7.0082,7.006,7.006,7.006,7.006,6.9992,6.9586,6.935,6.9282,6.9823,6.9722,6.9654,7.0567,7.0635,7.0161,7.0703,7.1109,7.1142,7.1176,7.1289,7.1289,7.1289,7.1289,7.1289,7.1289,7.1323,7.1391,7.1921,7.2225,7.236,7.2732,7.3195,7.3274,7.3105,7.3195,7.3274,7.324,7.3172,7.324,7.3297,7.3747,7.3916,7.3815,7.3409,7.3747,7.4356,7.4825,7.5023,7.54,7.6242,7.7537,7.9175,8.0623,8.2606,8.318,8.3464,8.4425,8.5185,8.5094,8.4881,8.4727,8.4375,8.4147,8.4733,8.4768,8.476,8.4766,8.4741,8.4333,8.3947,8.3677,8.4123,8.4435,8.4415,8.4518,8.4984,8.5004,8.5446,8.5603,8.6321,8.6664,8.6941,8.7014,8.7014,8.6711,8.6582,8.6353,8.5882,8.5346,8.5013,8.4803,8.4328,8.2968,8.1975,8.1404,8.1949,8.3213,8.4754,8.631,8.5916,8.5159,7.1289,7.1289,7.1289,7.1289,7.1289,7.1289,7.112,7.0872,7.0804,7.0838,7.0838,7.0838,7.0838,7.0804,7.0838,7.0804,7.0804,7.0804,7.0804,7.077,7.0466,7.0297,7.0466,7.0669,7.0567,7.0534,7.0883,7.112,7.1007,7.1075,7.1289,7.1289,7.1289,7.1289,7.1289,7.1289,7.1289,7.1391,7.165,7.1684,7.1718,7.2326,7.2834,7.2462,7.3195,7.3703,7.3984,7.3669,7.3781,7.3883,7.3781,7.3713,7.4119,7.4525,7.51,7.5811,7.6082,7.5676,7.51,7.5879,7.637,7.6816,7.7377,7.8192,7.9757,8.1541,8.2945,8.3938,8.4482,8.4645,8.459,8.5064,8.4686,8.443,8.435,8.3985,8.3903,8.4793,8.5189,8.5173,8.5385,8.574,8.5893,8.5423,8.5478,8.6174,8.6587,8.6697,8.6836,8.7137,8.6939,8.6604,8.6597,8.6667,8.6831,8.7014,8.7088,8.6947,8.621,8.6211,8.6483,8.617,8.577,8.56,8.5695,8.4869,8.3626,8.3292,8.3111,8.3595,8.4195,8.5444,8.6586,8.6796,8.617,7.1289,7.1289,7.1289,7.1289,7.1289,7.1289,7.1289,7.1289,7.1255,7.1289,7.1289,7.1255,7.1255,7.1289,7.1255,7.1188,7.1255,7.1289,7.1289,7.1289,7.1289,7.1188,7.112,7.1222,7.1222,7.1289,7.1188,7.1255,7.1255,7.1289,7.1289,7.1289,7.1289,7.1289,7.1289,7.1323,7.1357,7.1695,7.209,7.2191,7.2259,7.3138,7.3341,7.3375,7.3646,7.4322,7.4695,7.4728,7.483,7.4965,7.4864,7.4965,7.5574,7.5845,7.6284,7.6995,7.7536,7.7435,7.6893,7.7184,7.8179,7.8808,7.9661,8.0552,8.2158,8.392,8.4976,8.5216,8.5166,8.521,8.5197,8.5464,8.4762,8.4315,8.3886,8.3486,8.349,8.4631,8.5399,8.5414,8.6089,8.7776,8.772,8.7086,8.7272,8.8155,8.8625,8.8851,8.8838,8.8852,8.8227,8.7601,8.7418,8.7234,8.6978,8.7088,8.7124,8.7077,8.6373,8.6535,8.7249,8.7042,8.6565,8.6542,8.6766,8.66,8.6112,8.5493,8.4939,8.5079,8.5295,8.5771,8.65,8.6821,8.7124,7.1289,7.1289,7.1289,7.1289,7.1289,7.1289,7.1289,7.1289,7.1289,7.1289,7.1289,7.1289,7.1289,7.1289,7.1289,7.1289,7.1289,7.1289,7.1289,7.1289,7.1289,7.1289,7.1289,7.1289,7.1289,7.1289,7.1289,7.1289,7.1289,7.1289,7.1289,7.1289,7.1289,7.1289,7.1357,7.1424,7.1718,7.2124,7.2529,7.2902,7.324,7.395,7.4367,7.4525,7.5033,7.5574,7.5642,7.5912,7.6217,7.6386,7.6251,7.6657,7.713,7.7096,7.7435,7.8247,7.8855,7.872,7.8382,7.8209,7.8623,7.9835,8.152,8.3186,8.4237,8.4476,8.5343,8.6364,8.601,8.5878,8.6177,8.6358,8.4762,8.3996,8.3355,8.317,8.3508,8.4886,8.5536,8.5582,8.6797,8.8708,8.9587,8.8957,8.8914,8.9747,8.9859,9.0081,8.9807,8.9639,8.8996,8.8445,8.8243,8.7876,8.7252,8.7325,8.7655,8.7735,8.7304,8.7906,8.8762,8.8263,8.7416,8.8169,8.8554,8.8558,8.8365,8.7272,8.6441,8.6204,8.6287,8.6447,8.6625,8.6891,8.7344,7.1289,7.1289,7.1289,7.1289,7.1289,7.1289,7.1289,7.1289,7.1289,7.1289,7.1289,7.1289,7.1289,7.1289,7.1289,7.1289,7.1289,7.1289,7.1289,7.1289,7.1289,7.1289,7.1289,7.1289,7.1289,7.1289,7.1289,7.1289,7.1289,7.1289,7.1289,7.1289,7.1323,7.1289,7.1357,7.1695,7.2124,7.2563,7.3172,7.3781,7.3669,7.4627,7.5067,7.4695,7.5337,7.5642,7.5709,7.5946,7.6386,7.6792,7.6961,7.7671,7.845,7.828,7.872,7.9591,8.0107,8.0073,7.9878,7.9664,7.9953,8.1758,8.4123,8.6115,8.617,8.6813,8.6828,8.6974,8.6605,8.643,8.4621,8.4339,8.3612,8.3134,8.2959,8.2971,8.3776,8.5315,8.6339,8.6691,8.8155,8.9989,9.0556,9.0868,9.0997,9.1272,9.1271,9.1179,9.0776,9.0445,8.9784,8.9271,8.9014,8.8573,8.7968,8.8059,8.8243,8.8286,8.8308,8.8947,8.9623,8.9065,8.8586,8.9453,9.0092,8.9924,8.9428,8.8514,8.7806,8.73,8.6903,8.6681,8.6856,8.7051,8.7344,7.1289,7.1289,7.1289,7.1289,7.1289,7.1289,7.1289,7.1289,7.1289,7.1289,7.1289,7.1289,7.1289,7.1289,7.1289,7.1289,7.1289,7.1289,7.1289,7.1289,7.1289,7.1289,7.1289,7.1289,7.1289,7.1289,7.1289,7.1289,7.1289,7.1289,7.1289,7.1357,7.1515,7.1582,7.1481,7.1988,7.2496,7.3003,7.3758,7.4593,7.4346,7.5067,7.554,7.5134,7.5743,7.6115,7.6352,7.6758,7.7299,7.757,7.7807,7.828,7.8889,7.9431,7.9837,8.0606,8.1215,8.1317,8.119,8.1513,8.1759,8.3302,8.5926,8.741,8.808,8.8453,8.7753,8.7473,8.7116,8.602,8.3731,8.415,8.3949,8.3695,8.4143,8.4328,8.5051,8.6265,8.7208,8.7973,8.9579,9.0959,9.1106,9.14,9.1473,9.1583,9.1583,9.1473,9.1326,9.0959,9.0629,9.0152,8.9784,8.9253,8.8739,8.905,8.9344,8.9511,8.9569,8.9697,8.9971,8.9587,8.973,9.0497,9.096,9.1088,9.0246,8.8947,8.8472,8.8174,8.7586,8.6873,8.7238,8.7418,8.7344,7.1289,7.1289,7.1289,7.1289,7.1289,7.1289,7.1289,7.1289,7.1289,7.1289,7.1289,7.1289,7.1289,7.1289,7.1289,7.1289,7.1289,7.1289,7.1289,7.1289,7.1289,7.1289,7.1289,7.1289,7.1289,7.1289,7.1289,7.1289,7.1289,7.1289,7.1289,7.1627,7.2022,7.2157,7.1515,7.2056,7.2766,7.35,7.4289,7.4897,7.5303,7.5574,7.5574,7.5709,7.6082,7.6386,7.6792,7.7468,7.8108,7.8817,7.8929,7.9503,8.0346,7.9828,7.9967,8.0596,8.1156,8.1384,8.1419,8.2696,8.3574,8.4377,8.6564,8.7923,8.8637,8.8535,8.7785,8.7348,8.6678,8.5959,8.5401,8.513,8.4433,8.4633,8.5098,8.5813,8.6532,8.7413,8.8413,8.93,9.0589,9.173,9.173,9.1767,9.173,9.1767,9.1767,9.173,9.162,9.1473,9.1143,9.0959,9.0555,9.0115,8.9748,9.0152,9.0427,9.0629,9.0648,9.0557,9.0814,9.0941,9.1198,9.162,9.1253,9.0849,9.0115,8.9217,8.8536,8.7802,8.7455,8.707,8.7491,8.7802,8.7802,7.1289,7.1289,7.1289,7.1289,7.1289,7.1289,7.1289,7.1289,7.1289,7.1289,7.1289,7.1289,7.1289,7.1289,7.1289,7.1289,7.1289,7.1289,7.1289,7.1289,7.1289,7.1289,7.1289,7.1289,7.1289,7.1289,7.1289,7.1289,7.1289,7.1357,7.1661,7.2056,7.2732,7.2935,7.3037,7.3443,7.4052,7.4322,7.4931,7.5473,7.5676,7.5676,7.5709,7.5709,7.6048,7.6454,7.6961,7.7773,7.8657,7.9922,8.0179,8.0832,8.1748,8.1424,8.1249,8.1738,8.2203,8.2272,8.27,8.3545,8.3973,8.4916,8.6204,8.7567,8.7694,8.8077,8.7523,8.6909,8.6263,8.5461,8.4498,8.4205,8.4049,8.5323,8.611,8.708,8.7909,8.8905,8.9838,9.0656,9.1748,9.1803,9.1803,9.1803,9.1803,9.1803,9.1803,9.1803,9.173,9.173,9.1546,9.1546,9.1289,9.0886,9.0702,9.0812,9.0812,9.0831,9.0868,9.0886,9.1271,9.173,9.1767,9.1693,9.1069,9.0445,8.9564,8.872,8.7876,8.7215,8.7088,8.7308,8.7802,8.8133,8.8316,7.1289,7.1289,7.1289,7.1289,7.1289,7.1289,7.1289,7.1289,7.1289,7.1289,7.1289,7.1289,7.1289,7.1289,7.1289,7.1289,7.1289,7.1289,7.1289,7.1289,7.1289,7.1289,7.1289,7.1312,7.1289,7.1312,7.1312,7.1289,7.1323,7.156,7.2236,7.3138,7.3612,7.3984,7.4221,7.4525,7.4468,7.4728,7.5168,7.5642,7.5676,7.5676,7.5676,7.5811,7.6082,7.6521,7.713,7.7832,7.8719,8.0431,8.14,8.1958,8.2831,8.3064,8.251,8.2576,8.2576,8.2876,8.3634,8.402,8.4302,8.4485,8.6032,8.7005,8.7208,8.7496,8.6908,8.6314,8.5896,8.5172,8.4271,8.3934,8.489,8.6231,8.7397,8.8325,8.9061,9.0031,9.0716,9.1546,9.1803,9.1803,9.1803,9.1803,9.1803,9.1803,9.1803,9.1803,9.1803,9.1803,9.1803,9.1767,9.1767,9.14,9.1179,9.1179,9.1143,9.1069,9.1106,9.1216,9.14,9.1803,9.1803,9.1693,9.1069,9.0262,8.9087,8.8169,8.7619,8.7288,8.7215,8.7545,8.8096,8.8463,8.8793,7.1289,7.1289,7.1289,7.1289,7.1289,7.1289,7.1289,7.1289,7.1289,7.1289,7.1289,7.1289,7.1289,7.1289,7.1289,7.1289,7.1289,7.1289,7.1289,7.1289,7.1289,7.1289,7.1379,7.1434,7.1457,7.1401,7.1446,7.1658,7.1514,7.2326,7.3375,7.4153,7.4492,7.4864,7.51,7.5033,7.483,7.5067,7.5337,7.5676,7.5676,7.5676,7.5811,7.6014,7.642,7.7164,7.7874,7.8591,7.9911,8.1119,8.1887,8.2648,8.3234,8.3557,8.2839,8.2383,8.2325,8.3267,8.4193,8.4472,8.454,8.4659,8.5821,8.708,8.7245,8.6699,8.6128,8.5715,8.5378,8.511,8.4717,8.5454,8.6192,8.748,8.8697,8.9465,9.0111,9.0774,9.1398,9.1803,9.1803,9.1803,9.1803,9.1803,9.1803,9.1803,9.1803,9.1803,9.1803,9.1803,9.1803,9.1803,9.1767,9.1803,9.1657,9.151,9.1473,9.14,9.151,9.1583,9.1767,9.1803,9.1803,9.1583,9.1033,9.0152,8.8867,8.8133,8.7692,8.7509,8.7655,8.8225,8.8904,8.8959,8.9253,7.1289,7.1289,7.1289,7.1289,7.1289,7.1289,7.1289,7.1289,7.1289,7.1289,7.1289,7.1289,7.1289,7.1289,7.1289,7.1289,7.1289,7.1289,7.1289,7.1289,7.1289,7.1289,7.1546,7.1873,7.1808,7.172,7.1854,7.219,7.2395,7.3206,7.395,7.4559,7.5067,7.5473,7.554,7.5473,7.5371,7.5371,7.5608,7.5709,7.5743,7.5743,7.6014,7.6521,7.669,7.7536,7.8517,7.8923,8.0112,8.1514,8.1875,8.2706,8.4653,8.3421,8.2094,8.2424,8.2868,8.3625,8.4377,8.458,8.458,8.4606,8.525,8.5181,8.5421,8.5566,8.5318,8.5118,8.5214,8.5196,8.5643,8.6414,8.7398,8.8645,8.9719,9.0304,9.0868,9.1249,9.1803,9.1803,9.1803,9.1803,9.1803,9.1803,9.1803,9.1803,9.1803,9.1803,9.1803,9.1803,9.1803,9.1803,9.1803,9.1803,9.1803,9.1693,9.173,9.1767,9.1803,9.1803,9.1803,9.1803,9.1803,9.1527,9.1029,8.991,8.8536,8.8092,8.8095,8.8276,8.8498,8.9087,8.9638,8.9889,9.0285,7.1289,7.1289,7.1289,7.1289,7.1289,7.1289,7.1289,7.1289,7.1289,7.1289,7.1289,7.1289,7.1289,7.1289,7.1289,7.1289,7.1289,7.1289,7.1289,7.1289,7.1289,7.1289,7.1644,7.2185,7.2056,7.1969,7.2115,7.2571,7.2881,7.3815,7.4637,7.51,7.5574,7.5642,7.5676,7.5642,7.5642,7.5642,7.5709,7.5879,7.5946,7.5912,7.6352,7.7063,7.713,7.7841,7.8923,7.9126,8.0146,8.1725,8.2152,8.3103,8.4437,8.312,8.2959,8.3301,8.3345,8.39,8.4411,8.458,8.458,8.4766,8.504,8.5412,8.5206,8.524,8.4943,8.4739,8.5162,8.5634,8.6439,8.7305,8.8557,8.9858,9.044,9.1039,9.1379,9.1694,9.1803,9.1803,9.1803,9.1803,9.1803,9.1803,9.1803,9.1803,9.1803,9.1803,9.1803,9.1803,9.1803,9.1803,9.1803,9.1803,9.1803,9.1803,9.1803,9.1803,9.1803,9.1803,9.1803,9.1803,9.1803,9.1488,9.1074,9.0118,8.9362,8.8884,8.8811,8.9044,8.9445,8.9938,9.0664,9.1414,9.1841,7.1289,7.1289,7.1289,7.1289,7.1289,7.1289,7.1289,7.1289,7.1289,7.1289,7.1289,7.1289,7.1289,7.1289,7.1289,7.1289,7.1289,7.1289,7.1289,7.1289,7.1289,7.1289,7.1578,7.2206,7.212,7.1982,7.2193,7.2931,7.3197,7.4123,7.5239,7.5771,7.5676,7.5709,7.5676,7.5676,7.5709,7.5709,7.5946,7.6183,7.6454,7.642,7.6454,7.7671,7.7773,7.7841,7.8855,7.9494,8.0014,8.1621,8.2661,8.3321,8.338,8.348,8.3943,8.417,8.3908,8.4129,8.457,8.4864,8.4969,8.5266,8.5836,8.634,8.6266,8.5978,8.5786,8.5786,8.635,8.6913,8.7677,8.8468,8.9558,9.044,9.1059,9.1398,9.162,9.1803,9.1803,9.1803,9.1803,9.1803,9.1803,9.1803,9.1803,9.1803,9.1803,9.1803,9.1803,9.1803,9.1803,9.1803,9.1803,9.1803,9.1803,9.1803,9.1803,9.1803,9.1803,9.1803,9.1803,9.1803,9.1803,9.1544,9.1318,9.1216,9.0663,9.0041,8.9703,9.0187,9.0549,9.0875,9.1556,9.2368,9.2869,7.1289,7.1289,7.1289,7.1289,7.1289,7.1289,7.1289,7.1289,7.1289,7.1289,7.1289,7.1289,7.1289,7.1289,7.1289,7.1289,7.1289,7.1289,7.1289,7.1289,7.1289,7.1289,7.1501,7.2236,7.212,7.1939,7.2292,7.3347,7.4143,7.5025,7.5818,7.6576,7.6219,7.5676,7.5676,7.5676,7.5743,7.5879,7.6284,7.6657,7.6961,7.7096,7.7266,7.8314,7.8653,7.8855,7.96,7.9954,8.0687,8.1816,8.206,8.2568,8.3056,8.354,8.3812,8.3935,8.4279,8.4566,8.4912,8.5464,8.5937,8.635,8.6937,8.7445,8.7654,8.7422,8.7363,8.741,8.7654,8.8246,8.8863,8.962,9.0364,9.1003,9.1583,9.1675,9.1803,9.1803,9.1803,9.1803,9.1803,9.1803,9.1803,9.1803,9.1803,9.1803,9.1803,9.1803,9.1803,9.1803,9.1803,9.1803,9.1803,9.1803,9.1803,9.1803,9.1803,9.1803,9.1803,9.1803,9.1821,9.1822,9.1822,9.1785,9.1653,9.1535,9.13,9.0688,9.0599,9.1151,9.1245,9.1358,9.2101,9.2912,9.3417,7.1289,7.1289,7.1289,7.1289,7.1289,7.1289,7.1289,7.1289,7.1289,7.1289,7.1289,7.1289,7.1289,7.1289,7.1289,7.1289,7.1289,7.1289,7.1289,7.1289,7.1289,7.1289,7.171,7.2249,7.196,7.181,7.2649,7.3746,7.4895,7.5446,7.6033,7.6531,7.5926,7.5676,7.5676,7.5709,7.5946,7.6284,7.6724,7.7198,7.757,7.7739,7.8179,7.9126,7.9431,7.9667,7.9938,8.025,8.0892,8.1707,8.2268,8.3368,8.3845,8.3977,8.3943,8.4291,8.4794,8.5387,8.571,8.6365,8.7151,8.7561,8.8313,8.8928,8.9164,8.8971,8.8689,8.8732,8.8798,8.9348,8.9683,9.0364,9.0945,9.1565,9.1694,9.1785,9.1803,9.1803,9.1803,9.1803,9.1803,9.1803,9.1803,9.1803,9.1803,9.1803,9.1803,9.1803,9.1803,9.1803,9.1803,9.1803,9.1803,9.1803,9.1803,9.1803,9.1803,9.1803,9.1803,9.2071,9.2229,9.1965,9.184,9.2016,9.206,9.1895,9.1566,9.1167,9.1469,9.2039,9.1895,9.1678,9.2526,9.3264,9.375,7.1289,7.1289,7.1289,7.1289,7.1289,7.1289,7.1289,7.1289,7.1289,7.1289,7.1289,7.1289,7.1289,7.1289,7.1289,7.1289,7.1289,7.1289,7.1289,7.1289,7.1289,7.1289,7.1624,7.215,7.2095,7.2428,7.3164,7.4048,7.506,7.5495,7.5747,7.5794,7.5747,7.5676,7.5709,7.5912,7.6183,7.6724,7.7299,7.7976,7.8314,7.8551,7.9092,7.9464,7.9701,7.9667,8.0006,8.0376,8.0844,8.1976,8.2928,8.3797,8.4215,8.4117,8.4489,8.4778,8.5632,8.6192,8.6793,8.7723,8.8201,8.871,8.9662,9.0208,9.0424,9.0344,9.0067,9.0026,9.0087,9.0264,9.0637,9.0926,9.1454,9.1785,9.1803,9.1803,9.1803,9.1803,9.1803,9.1803,9.1803,9.1803,9.1803,9.1803,9.1803,9.1803,9.1803,9.1803,9.1803,9.1803,9.1803,9.1803,9.1803,9.1803,9.1803,9.1803,9.1803,9.1803,9.1857,9.2314,9.2552,9.2142,9.2124,9.2558,9.257,9.2111,9.202,9.1759,9.2212,9.2497,9.216,9.1813,9.2316,9.3077,9.3883,7.1289,7.1289,7.1289,7.1289,7.1289,7.1289,7.1289,7.1289,7.1289,7.1289,7.1289,7.1289,7.1289,7.1289,7.1289,7.1289,7.1289,7.1289,7.1289,7.1289,7.1424,7.1357,7.1604,7.2347,7.2723,7.3207,7.3897,7.4844,7.5321,7.5654,7.6137,7.6713,7.5923,7.5801,7.5845,7.6183,7.6826,7.7333,7.8044,7.8788,7.8864,7.9126,7.9431,7.9803,8.0073,8.0073,8.0175,8.0209,8.145,8.2816,8.3798,8.4246,8.4341,8.4283,8.4728,8.5621,8.6463,8.7187,8.7975,8.8992,8.9516,8.9724,9.0562,9.1192,9.1305,9.1305,9.1173,9.1173,9.1211,9.1211,9.1454,9.1454,9.1803,9.1803,9.1803,9.1803,9.1803,9.1803,9.1803,9.1803,9.1803,9.1803,9.1803,9.1803,9.1803,9.1803,9.1803,9.1803,9.1803,9.1803,9.1803,9.1803,9.1803,9.1803,9.1803,9.1803,9.1803,9.1803,9.2001,9.2515,9.2649,9.2177,9.2277,9.2945,9.2562,9.1925,9.1904,9.1949,9.1955,9.2085,9.1963,9.1929,9.2365,9.2886,9.3726]}]]